GFSSGP_850_temp_000.txt.gz
Temp
20 21 21 21 22 24 25 28 28 27 26 26 26 26 24 23 23 20 20 19 18 17 17 17 16 16 16 15 15 15 15 15 15 14 14 14 14 14 14 14 14 14 14 14 15 15 16 16 16
20 20 20 22 23 24 27 28 27 26 26 26 26 26 25 22 21 20 19 19 18 16 16 17 16 16 16 15 15 15 15 15 15 15 15 15 15 15 14 15 15 15 15 15 15 15 15 15 14
20 20 22 23 24 25 26 27 25 26 26 26 25 24 24 23 21 20 19 19 18 17 17 17 17 16 16 16 15 15 15 15 15 15 15 15 15 15 15 15 14 14 15 15 15 15 14 14 14
21 21 22 24 25 27 27 26 26 25 25 25 25 24 23 22 20 19 19 19 18 18 18 17 17 17 16 16 15 15 15 15 15 15 14 15 15 14 14 14 14 14 15 14 14 14 14 14 13
20 22 23 25 26 27 27 26 26 26 26 25 25 23 22 20 20 19 19 19 18 18 18 18 18 17 17 16 16 16 16 15 15 15 15 15 14 14 14 14 14 14 14 14 14 14 14 14 14
22 23 23 24 26 27 27 26 26 26 26 25 25 23 21 20 20 19 19 19 18 17 18 18 18 18 17 17 16 16 15 15 15 15 14 14 14 14 14 14 14 14 14 14 14 14 14 14 14
21 22 23 25 25 25 26 26 26 26 26 25 25 23 21 20 19 19 19 18 17 17 18 18 17 17 17 16 16 15 15 15 15 15 14 14 14 14 14 14 14 14 14 14 14 14 14 14 14
23 24 23 25 25 25 25 25 26 26 24 24 25 24 22 20 19 19 18 18 18 17 17 16 16 17 16 16 16 16 15 15 15 14 14 14 13 13 13 13 13 13 13 13 13 13 14 14 14
24 24 25 25 25 25 25 25 25 24 24 24 24 23 22 19 18 18 18 18 18 18 17 17 16 15 15 15 15 15 15 14 14 13 14 13 13 12 13 13 13 13 13 13 13 12 12 12 12
26 25 26 27 26 26 25 26 25 24 24 24 23 22 20 19 19 19 19 19 18 18 17 17 16 15 16 16 15 15 14 14 14 13 13 13 13 13 13 13 13 12 12 12 11 11 11 11 12
26 25 26 26 25 26 26 25 25 25 24 24 23 22 21 19 19 19 19 19 19 18 18 17 16 16 15 16 15 15 15 14 14 13 14 13 13 13 13 13 12 12 12 12 12 11 11 11 11
26 26 26 25 25 25 25 25 25 25 25 24 24 23 21 20 20 20 20 20 19 19 18 17 16 17 16 15 16 15 15 15 14 14 13 13 13 13 13 13 13 12 12 12 12 12 11 11 11
26 26 25 25 24 25 24 25 25 25 24 24 24 23 22 21 20 20 20 20 20 19 19 17 17 17 16 17 15 15 15 15 14 14 13 14 14 14 13 13 12 12 12 12 12 12 11 11 11
26 25 25 25 24 24 24 25 24 25 24 24 24 23 22 22 21 21 20 20 20 20 19 18 16 16 16 15 15 14 14 14 14 14 14 14 14 14 13 14 13 12 12 12 12 12 12 11 11
25 25 25 25 25 25 24 24 24 24 24 24 24 23 23 23 22 21 21 20 20 20 20 18 15 16 16 15 15 15 14 14 14 14 13 13 13 13 13 13 12 12 12 12 12 12 12 12 12
25 26 24 25 25 25 24 24 26 25 24 24 24 24 24 24 23 22 21 20 20 20 20 16 15 16 15 15 15 15 14 14 14 14 14 13 13 12 12 12 12 12 12 12 12 12 12 12 12
25 24 25 24 26 26 25 24 26 25 25 24 25 24 24 24 23 22 21 20 20 20 20 19 17 15 15 15 15 14 14 14 14 14 14 13 13 12 12 12 12 12 11 11 11 11 12 12 12
23 25 25 25 25 25 25 25 26 25 25 25 24 25 24 24 24 22 21 21 20 20 19 19 17 16 15 15 15 14 14 14 14 13 13 12 12 11 11 11 11 11 11 11 11 11 11 11 11
25 25 25 25 24 24 25 25 25 25 25 24 24 24 24 22 20 20 19 19 19 18 18 18 16 16 15 15 15 14 14 13 13 12 12 11 11 11 11 10 10 10 10 10 10 10 10 10 10
24 24 24 25 24 24 25 25 24 24 24 23 23 23 21 20 19 18 17 17 17 17 16 16 15 14 14 14 13 13 12 12 12 11 11 10 10 10 9 9 9 9 9 9 8 9 9 9 9
24 23 22 22 24 24 24 24 23 23 22 22 21 21 20 19 18 17 16 15 15 15 15 15 14 13 13 12 12 11 12 12 11 12 11 10 10 9 8 8 8 8 8 7 7 7 8 8 8
22 22 21 22 22 22 25 22 23 23 22 21 20 20 19 19 18 17 16 14 14 14 14 13 12 12 12 12 13 12 11 10 10 11 9 9 8 8 8 8 7 7 6 6 6 6 6 6 6
21 21 21 22 22 22 24 23 22 23 21 20 19 19 18 17 17 16 15 13 12 12 12 12 12 11 12 11 11 9 9 9 9 9 8 8 7 7 7 7 6 6 6 6 5 5 5 4 4
22 22 22 22 22 20 23 22 19 21 21 20 19 18 18 17 16 15 14 13 12 12 11 11 12 11 11 10 9 9 9 8 8 7 7 7 7 6 5 5 5 4 4 4 4 3 3 3 3
22 22 19 19 19 19 22 21 20 21 20 20 19 18 17 16 16 16 15 14 13 12 12 12 11 11 11 11 10 9 8 7 7 6 6 6 5 4 4 3 3 3 3 2 2 2 2 1 1
21 21 18 17 17 19 22 21 19 20 19 18 18 17 17 16 15 15 14 13 13 12 12 12 11 10 10 10 9 8 7 7 6 5 5 4 3 3 3 3 2 2 2 1 1 1 1 0 0
20 18 20 17 16 16 20 20 20 20 19 18 18 17 17 16 15 15 14 14 13 12 12 12 11 10 10 9 8 7 6 5 5 4 3 3 3 2 2 1 1 1 1 0 0 -0 -0 -0 -1
20 20 18 18 15 15 19 19 16 18 19 19 18 18 17 16 16 14 14 14 13 12 11 11 10 9 9 8 7 7 6 5 4 3 3 3 2 2 0 -0 -0 -1 -1 -2 -2 -2 -2 -2 -2
20 20 19 19 17 15 15 18 20 19 19 18 17 17 16 16 15 14 13 12 12 11 10 10 9 8 8 6 6 5 4 4 4 3 3 2 1 1 -0 -1 -1 -2 -3 -2 -2 -3 -3 -3 -3
19 19 19 15 15 15 14 15 20 19 17 17 16 16 15 14 13 12 11 11 10 9 9 8 8 7 6 5 4 4 4 3 3 2 2 1 -1 -1 -1 -2 -2 -2 -2 -3 -3 -3 -3 -4 -4

GFSSGP_850_temp_003.txt.gz
Temp
20 20 20 20 18 18 20 22 25 23 23 24 23 21 20 20 19 17 18 18 17 17 16 16 16 16 16 16 15 15 15 15 15 15 15 15 14 14 14 14 15 15 15 15 16 16 16 16 16
20 20 20 20 18 19 20 23 22 22 25 24 23 21 20 18 19 18 17 18 17 16 16 16 16 16 16 16 16 16 15 15 15 15 15 15 15 14 15 15 15 15 15 16 16 16 15 15 15
20 20 20 18 18 19 19 23 22 24 25 25 23 22 21 19 19 18 17 18 18 17 17 17 16 16 16 16 15 15 15 15 15 15 15 15 15 15 15 14 14 14 15 15 15 15 15 14 14
20 20 21 19 19 21 21 22 24 24 25 23 23 19 20 19 19 18 17 17 17 17 17 17 17 17 16 16 16 16 15 15 15 15 15 15 15 15 14 14 14 14 15 15 15 15 15 15 15
20 20 18 19 20 21 22 24 24 22 23 22 21 19 19 19 19 18 18 18 18 18 18 18 18 17 17 16 16 16 15 15 15 15 15 15 15 14 14 14 14 14 14 14 14 15 15 14 15
20 21 18 19 22 23 23 25 25 22 24 22 20 19 19 19 19 18 18 18 19 18 18 18 18 17 17 16 16 16 16 16 16 15 15 15 14 14 14 14 14 14 14 14 14 14 14 14 15
19 17 18 20 23 23 23 26 24 23 23 22 21 19 19 19 19 18 18 18 18 18 18 18 17 17 17 16 16 16 16 16 16 15 15 14 14 14 14 14 14 14 14 14 14 14 14 14 14
21 19 21 21 22 22 24 24 24 24 23 23 22 19 17 19 19 19 18 18 17 18 18 17 17 16 16 16 16 17 16 16 16 15 15 14 14 14 14 13 13 13 13 13 13 13 13 13 13
22 19 19 20 22 21 24 22 24 24 24 23 23 21 19 19 19 18 18 18 17 17 17 17 17 16 16 16 17 16 16 16 15 15 15 14 14 14 14 13 13 13 13 12 13 13 13 13 12
22 18 21 22 22 21 24 23 24 23 23 22 20 20 19 19 18 18 18 18 17 17 17 16 16 17 16 16 15 15 15 15 14 14 14 14 14 13 13 12 13 12 12 12 12 12 12 12 12
24 20 22 23 24 25 23 24 24 22 20 23 19 19 19 19 19 19 19 18 18 18 17 17 17 16 15 16 15 15 15 15 14 14 13 13 13 12 13 13 13 13 12 12 12 12 12 12 11
22 24 24 24 25 24 23 24 24 24 23 23 22 20 20 19 19 19 19 19 18 18 17 17 18 18 16 16 15 15 14 14 14 14 14 14 13 13 14 13 13 13 12 12 12 12 12 12 11
22 22 24 24 24 24 24 24 23 24 24 23 23 21 20 20 20 20 20 19 19 18 18 18 18 18 17 16 15 15 15 14 14 14 13 14 14 14 13 14 14 13 13 12 12 12 12 12 12
25 24 23 24 24 24 23 23 24 24 24 24 23 21 21 21 20 20 20 20 20 19 18 18 17 17 17 16 16 15 15 14 14 14 14 14 14 14 13 14 14 13 12 12 12 12 12 12 12
25 22 21 23 24 22 24 21 21 23 24 23 23 22 22 21 21 20 20 20 20 19 18 17 15 14 15 15 16 15 14 15 14 14 14 14 13 13 13 13 12 12 12 12 12 12 12 12 12
23 21 19 21 22 23 22 19 21 24 24 23 23 23 23 22 21 21 20 20 20 20 18 18 17 15 15 15 15 15 14 14 14 14 13 13 12 12 12 12 12 12 12 12 12 12 11 11 12
21 18 20 21 23 22 21 22 22 24 24 24 23 23 23 23 22 21 20 20 20 20 20 18 16 16 14 15 15 14 14 14 14 14 13 13 12 12 12 12 11 11 11 11 11 11 11 11 11
20 20 20 19 22 23 22 22 21 24 24 24 24 22 20 20 19 19 19 19 19 19 19 17 16 15 15 15 14 14 14 14 13 13 13 12 12 12 12 11 10 10 10 10 10 10 10 10 10
22 21 20 20 23 23 22 19 20 21 21 20 17 17 17 17 17 17 17 18 18 18 16 15 15 15 15 15 15 14 14 13 13 12 13 13 12 12 11 11 10 9 9 9 9 10 10 9 9
23 21 19 21 23 22 21 20 19 20 19 19 18 17 17 17 16 16 16 16 16 16 16 15 15 16 15 14 14 14 13 13 13 13 12 11 11 10 10 9 9 9 9 9 9 8 8 8 8
20 19 19 20 20 21 21 19 18 19 19 19 19 18 18 17 16 16 16 15 15 16 15 15 15 14 14 13 13 13 13 12 11 11 10 9 9 9 8 8 8 8 8 8 8 7 7 7 7
19 19 20 20 19 17 19 16 18 18 17 17 17 17 16 15 15 15 15 15 14 13 14 14 14 13 13 13 12 11 11 10 9 9 9 8 8 8 8 7 7 7 7 7 6 6 6 6 5
19 20 19 20 18 19 18 16 18 18 16 16 17 18 17 16 15 14 14 14 13 13 13 13 12 12 12 11 11 11 9 9 9 8 7 7 7 7 7 7 7 6 6 6 5 5 4 4 4
20 19 19 19 17 13 18 17 16 15 16 16 17 17 17 16 16 15 14 13 13 13 13 12 12 11 11 11 10 10 9 8 7 7 7 7 6 6 7 5 4 4 4 3 3 3 3 3 3
18 17 12 13 10 12 18 17 14 16 17 16 15 16 16 15 15 14 13 13 13 12 12 12 12 12 11 10 9 9 8 8 7 6 6 6 6 5 4 3 3 3 2 2 2 2 2 1 1
17 17 11 14 10 14 17 16 14 16 17 17 17 17 16 16 15 15 14 13 13 13 12 12 11 11 10 10 10 9 8 7 5 5 4 5 4 3 3 3 2 2 1 0 0 0 0 -0 -1
18 14 18 13 12 11 14 16 16 16 16 17 17 17 16 15 15 14 13 12 12 12 11 11 11 10 10 10 9 8 7 5 4 3 4 3 3 3 2 2 1 0 -0 -1 -2 -2 -2 -2 -2
18 19 13 11 12 12 14 15 13 15 15 16 16 16 16 15 14 13 12 12 11 11 10 10 10 9 9 8 7 6 5 5 3 3 4 3 3 2 2 1 -0 -1 -1 -2 -2 -3 -3 -3 -3
16 17 16 15 10 9 8 12 15 14 14 13 15 14 13 13 12 12 11 11 10 10 9 9 8 8 7 7 6 6 5 4 4 4 3 3 3 2 1 -1 -1 -2 -2 -2 -3 -3 -3 -4 -4
18 17 15 8 12 7 6 10 14 13 15 15 14 14 13 12 12 11 10 10 9 9 9 8 7 6 6 6 6 5 4 4 4 4 3 2 2 0 -1 -1 -2 -2 -2 -3 -3 -3 -4 -4 -4

GFSSGP_850_temp_006.txt.gz
Temp
19 20 20 20 18 17 18 21 23 20 20 20 20 19 17 18 19 17 17 17 17 17 16 16 16 16 16 16 16 16 15 15 15 15 15 15 15 15 15 15 15 15 15 16 16 16 16 15 15
20 20 21 20 17 17 19 22 20 20 21 20 20 19 18 16 16 16 16 16 17 17 16 16 16 16 16 16 16 16 15 15 15 15 16 15 15 15 15 15 15 15 15 15 15 15 15 15 15
20 20 20 17 16 16 19 22 22 21 22 22 20 19 19 17 17 16 17 17 16 16 16 16 16 16 16 16 16 16 16 15 16 16 16 15 15 15 15 15 15 15 15 15 15 15 15 15 15
19 20 20 18 18 19 21 20 23 22 21 20 20 18 19 18 18 17 17 17 17 16 16 16 16 16 16 16 16 16 16 16 16 16 15 15 15 15 15 15 15 15 15 15 15 15 15 15 15
19 20 17 18 18 22 22 23 24 22 20 19 20 18 18 18 18 17 17 17 17 16 16 16 17 17 16 16 16 16 16 16 16 16 15 15 15 15 15 15 14 14 14 14 14 14 14 14 15
19 20 17 17 21 23 22 23 23 20 19 18 18 18 18 17 18 17 17 17 18 17 17 17 17 16 16 16 16 16 16 16 15 15 15 15 15 15 15 15 14 14 14 14 14 13 13 14 14
18 16 18 18 20 22 23 23 21 20 19 19 19 17 18 17 17 17 18 18 18 18 17 17 17 16 16 16 16 16 16 16 16 16 15 15 15 15 14 14 14 13 13 13 13 13 13 13 13
20 18 20 20 20 21 23 23 23 22 20 19 21 17 17 17 18 17 18 18 17 17 17 17 17 17 17 17 16 16 16 16 16 16 15 14 14 14 14 14 13 13 13 13 12 12 12 12 12
21 17 17 20 20 22 23 22 23 22 21 21 21 19 19 18 18 18 17 17 17 17 17 17 17 16 16 16 17 16 16 16 15 15 15 14 14 14 14 14 13 13 13 13 12 12 12 12 12
19 17 19 20 22 21 22 23 23 22 20 18 19 19 18 18 18 18 17 17 17 17 17 17 17 17 16 16 16 15 15 15 15 15 15 15 14 14 13 14 13 13 13 12 12 12 12 12 12
20 19 21 21 23 23 22 23 23 21 18 19 18 18 18 18 18 18 17 17 17 17 17 17 17 17 16 16 16 15 15 14 14 14 14 14 14 14 14 14 14 13 13 13 12 12 12 12 12
22 21 23 23 23 22 21 23 22 23 22 21 21 20 19 19 18 18 18 17 17 17 17 17 17 17 16 16 15 15 14 14 14 14 13 14 13 13 14 13 13 13 13 13 13 13 13 12 12
19 21 23 23 23 23 23 23 22 23 22 21 20 19 19 19 19 19 18 18 17 17 17 17 17 16 16 15 15 15 14 14 14 14 13 14 14 14 13 12 12 12 12 12 12 12 12 12 12
22 22 23 23 23 23 22 22 24 22 22 20 20 20 20 20 20 19 19 18 18 18 17 17 17 17 16 15 15 15 14 14 14 14 14 14 13 13 12 12 12 12 12 12 12 12 12 12 12
23 20 21 21 22 22 23 21 21 23 21 20 20 20 20 20 20 20 19 19 19 18 18 17 18 17 17 16 15 15 14 14 14 14 14 13 13 12 12 12 12 12 12 12 12 12 12 11 11
21 18 18 20 20 22 21 18 20 23 22 20 20 20 20 20 20 20 20 20 19 18 18 18 17 17 16 15 15 15 14 14 14 14 13 13 12 12 12 12 12 12 12 12 11 11 11 11 11
16 18 18 20 20 21 20 20 19 23 23 23 21 18 19 18 18 19 20 19 19 19 18 17 17 16 16 15 14 14 14 14 14 13 13 12 12 12 12 12 12 11 11 11 10 10 10 10 10
18 18 17 18 19 20 18 19 19 20 19 17 17 17 16 16 17 18 18 19 19 18 17 17 16 15 15 14 14 14 14 13 13 13 12 13 12 12 12 11 11 10 9 9 9 9 9 9 9
20 19 17 19 20 21 17 15 15 15 15 15 14 15 15 15 16 17 17 17 18 16 15 14 14 14 14 14 14 14 13 12 13 13 12 12 12 11 11 10 9 9 8 8 8 8 8 8 8
20 19 18 19 20 20 16 15 15 16 15 15 15 15 15 15 15 15 15 15 15 14 14 13 14 14 13 13 12 12 12 12 12 12 11 11 11 11 10 8 8 8 8 7 7 7 7 7 7
17 17 19 19 19 17 17 16 15 15 15 15 15 15 15 15 14 14 14 14 14 13 13 13 13 13 13 13 12 12 12 12 12 11 11 10 10 9 8 7 7 7 7 6 6 6 6 5 5
17 19 19 19 17 16 17 13 16 14 14 14 14 14 15 15 15 14 14 14 14 13 13 13 13 13 13 13 13 12 12 11 11 10 9 9 8 7 7 7 7 6 6 5 5 4 4 4 4
18 19 19 19 16 17 17 14 15 15 14 13 13 14 15 15 16 15 15 14 14 13 13 13 13 13 12 12 12 11 11 10 9 9 8 7 6 6 6 6 6 5 5 3 3 3 2 2 2
19 19 16 15 14 12 16 14 14 13 14 14 13 14 15 16 16 16 15 14 13 13 13 12 12 12 11 11 10 10 10 9 8 7 6 6 5 4 4 4 4 3 3 2 1 1 1 1 0
16 14 11 12 10 11 16 13 14 16 15 14 13 14 15 15 15 15 14 13 13 13 12 12 11 11 11 10 10 9 9 8 7 5 5 4 3 4 3 3 3 2 2 1 0 -0 -0 -0 -1
17 15 10 13 10 13 15 13 13 14 15 15 16 16 15 15 14 13 13 12 11 11 11 11 11 11 10 10 9 8 7 6 5 5 3 3 2 3 3 2 2 1 0 -0 -1 -1 -2 -2 -3
17 14 15 11 9 10 12 14 15 15 15 16 16 16 14 13 12 12 11 12 11 11 11 10 9 9 9 8 7 6 6 6 5 5 5 3 3 3 2 2 2 1 -0 -1 -2 -2 -3 -3 -3
17 17 13 9 12 11 12 14 13 14 13 13 11 12 13 12 12 11 10 10 10 9 9 9 8 8 7 6 6 6 6 6 5 5 4 4 3 3 2 2 1 -0 -2 -2 -3 -3 -3 -3 -4
15 15 13 12 8 9 8 11 12 13 12 10 11 12 12 11 10 9 9 8 8 8 8 7 6 6 5 6 5 5 5 5 4 3 3 1 1 -0 1 1 -1 -1 -2 -2 -3 -3 -3 -3 -4
17 16 12 8 12 6 5 10 14 12 12 12 11 11 11 10 9 8 8 8 7 7 7 6 6 6 6 5 5 4 3 3 3 3 2 2 0 0 -0 -1 -1 -2 -2 -3 -3 -3 -3 -4 -4

GFSSGP_850_temp_009.txt.gz
Temp
18 19 21 21 18 16 17 19 20 19 18 18 19 19 16 15 17 16 15 16 16 17 16 16 16 16 16 16 15 15 15 15 15 15 15 15 15 15 15 15 15 15 15 16 16 15 15 15 14
19 19 20 20 16 17 18 19 19 19 19 20 19 18 17 16 15 16 15 15 16 17 16 16 16 16 16 15 15 15 15 15 15 15 15 15 15 15 15 15 15 15 15 15 15 15 15 15 15
19 19 20 16 15 15 18 19 19 20 20 21 19 19 18 16 17 16 16 15 15 16 16 16 16 16 15 15 15 15 15 15 15 15 15 15 15 15 15 15 15 15 15 15 15 15 15 15 15
19 19 19 17 17 17 20 20 20 20 20 21 19 18 18 17 16 17 16 15 15 16 16 16 16 15 15 15 15 15 16 15 15 15 15 15 15 15 15 15 15 15 15 14 14 14 14 14 14
19 19 17 17 18 19 20 21 21 20 19 19 20 18 17 17 17 17 16 15 16 16 15 16 15 16 16 15 16 16 16 16 16 16 16 15 15 15 15 15 15 14 14 14 13 13 13 14 14
19 18 16 17 19 20 21 21 20 19 19 18 18 17 16 16 17 16 16 16 16 16 16 16 16 16 16 16 16 16 16 16 16 16 15 15 15 15 14 14 14 14 13 13 13 13 13 13 13
17 15 17 18 18 20 21 22 19 18 18 18 18 15 16 16 16 16 16 16 16 17 17 16 16 16 16 16 16 16 16 16 16 16 15 15 15 14 14 14 14 14 13 13 13 13 13 13 13
20 15 19 18 18 17 21 22 20 19 18 19 19 15 14 16 16 17 17 17 17 17 17 17 17 16 16 16 16 16 16 16 16 15 14 15 14 14 14 14 14 13 13 13 13 13 13 13 12
20 14 16 19 18 19 22 20 20 20 19 19 19 18 17 16 17 17 17 17 17 17 17 17 17 17 17 16 16 16 16 15 15 15 14 14 14 15 14 14 14 13 13 13 13 12 12 12 12
18 13 16 19 19 20 22 21 21 20 18 17 18 18 17 17 17 17 17 17 17 17 17 17 17 16 16 16 16 16 15 15 15 15 15 15 14 14 14 14 13 13 13 12 13 12 12 12 12
18 18 20 21 23 23 22 20 21 18 17 19 18 17 17 17 17 17 17 18 18 17 17 17 16 16 16 16 16 15 15 15 15 15 15 15 14 14 14 13 13 13 13 13 13 12 12 12 12
19 20 21 21 22 22 20 22 20 21 20 21 21 19 17 17 18 18 17 18 17 17 17 17 16 16 16 15 15 15 15 15 15 15 15 15 14 14 14 13 13 12 12 12 12 12 12 12 12
20 20 21 22 22 22 22 21 21 21 21 20 20 18 18 18 18 18 18 18 17 17 17 17 17 17 16 16 15 15 15 15 14 14 14 14 14 13 13 13 12 12 13 13 13 13 12 12 12
21 20 21 22 22 22 21 21 21 20 20 19 19 18 18 18 18 18 18 18 17 17 17 17 17 17 16 16 15 15 15 14 14 14 14 13 13 13 12 12 12 12 13 13 13 12 12 11 11
21 19 20 21 21 21 22 21 19 21 19 18 19 19 19 19 19 19 18 18 17 17 17 17 17 16 16 15 15 14 14 14 14 14 13 13 13 12 12 12 12 12 12 12 11 11 11 10 10
19 17 18 19 20 20 20 17 20 20 18 18 18 17 17 17 17 18 18 18 18 18 17 16 15 14 14 14 14 14 13 14 14 13 13 13 12 12 12 12 12 12 11 11 11 10 10 10 9
15 17 19 20 19 19 19 19 18 18 18 16 16 17 17 17 17 17 18 18 18 18 16 15 14 15 12 14 14 13 13 13 13 12 12 12 12 12 12 12 11 11 10 10 10 9 9 9 9
18 19 17 18 19 18 19 16 12 16 18 15 15 16 17 17 17 17 18 18 18 17 16 16 14 12 12 13 13 13 13 13 12 12 12 12 12 12 12 11 10 10 9 9 8 8 8 8 7
20 18 17 16 19 14 13 12 11 13 12 12 12 13 13 14 15 16 17 18 18 17 16 16 13 12 13 12 13 13 12 12 12 12 12 11 11 10 11 11 10 9 8 7 7 7 7 7 6
18 18 17 18 16 14 13 12 12 13 12 12 12 12 13 13 15 15 16 17 16 15 15 14 14 12 12 12 12 11 12 12 11 11 10 10 10 10 10 9 8 7 7 7 6 6 6 5 5
16 17 18 17 15 15 15 13 13 14 13 12 12 13 14 14 14 14 15 14 14 14 13 13 13 13 12 12 12 12 12 11 11 11 11 10 9 9 8 7 6 6 6 6 5 5 4 3 3
17 18 18 16 15 14 15 11 14 13 12 12 12 12 13 13 14 14 14 13 13 13 13 13 13 13 12 12 12 12 11 11 11 10 10 9 7 7 6 5 5 4 5 5 4 3 3 2 1
18 18 18 18 14 14 15 11 13 12 12 11 11 12 13 15 15 14 14 14 14 13 13 12 12 12 11 11 11 10 10 10 9 8 7 6 5 5 4 4 4 4 3 3 2 2 2 1 -0
18 16 14 13 13 11 16 12 12 11 12 11 12 12 14 14 13 13 13 13 13 12 12 11 11 11 11 10 10 10 9 8 7 7 6 5 4 4 4 4 4 3 3 2 2 2 0 -0 -1
15 14 11 12 9 11 14 13 12 13 13 12 12 12 13 13 14 14 13 12 12 12 11 11 11 11 10 10 10 9 8 7 6 6 6 5 5 5 4 4 2 3 2 1 0 -1 -1 -2 -2
16 14 11 13 9 13 13 13 13 13 15 14 14 14 13 13 13 13 12 12 11 11 11 11 11 10 9 8 7 6 6 6 5 5 4 4 4 4 3 1 1 -0 0 1 -1 -1 -2 -3 -3
17 13 13 9 7 9 10 13 14 13 12 14 14 13 13 12 12 12 12 11 10 10 10 9 9 8 7 6 6 6 5 5 4 4 4 3 3 3 2 0 -1 -2 -2 -1 -2 -3 -3 -3 -4
16 15 13 8 11 10 11 12 10 12 12 12 11 11 11 11 10 10 10 9 9 10 9 9 8 7 7 6 6 5 4 4 3 3 3 3 2 2 1 -0 -2 -2 -3 -2 -2 -3 -3 -3 -4
14 14 11 10 7 8 7 10 11 11 11 9 8 10 10 10 10 9 9 9 9 8 8 7 6 6 6 5 5 5 4 4 3 3 2 2 2 1 -0 -1 -3 -3 -2 -2 -3 -3 -3 -3 -4
16 14 11 7 11 5 4 9 11 10 11 10 9 9 9 8 8 8 8 8 7 7 6 6 6 6 5 5 5 4 3 3 2 2 1 1 -0 -0 -1 -1 -2 -2 -2 -2 -3 -3 -3 -4 -4

GFSSGP_850_temp_012.txt.gz
Temp
19 19 18 18 17 16 16 18 19 19 17 17 18 17 16 16 17 17 15 16 15 16 16 15 16 16 16 16 16 15 15 15 15 15 15 15 15 15 15 15 15 15 15 15 15 15 15 15 15
19 19 18 20 15 15 16 19 18 19 19 19 19 17 17 16 16 15 14 16 15 15 15 15 15 15 16 16 16 15 15 15 15 15 15 15 15 15 15 15 15 15 15 15 15 15 14 14 14
19 18 19 13 13 16 17 18 18 19 19 20 18 16 16 18 16 16 16 16 15 15 14 15 15 15 16 16 16 15 15 15 15 15 15 15 15 15 15 15 15 15 15 14 14 14 14 14 14
19 19 18 15 17 17 19 19 18 18 18 20 20 17 17 18 18 17 16 15 15 15 15 15 15 16 16 16 15 16 16 15 15 15 15 15 15 15 15 15 15 14 14 14 13 13 13 14 14
19 18 14 15 17 18 18 20 20 19 18 18 19 17 16 17 16 16 15 15 15 14 15 15 15 16 16 15 16 16 15 15 15 15 15 15 15 15 15 14 14 14 14 14 13 13 13 13 13
18 17 14 16 18 19 19 20 20 19 18 18 17 16 15 16 17 16 15 14 14 15 15 15 15 16 16 16 16 16 15 15 15 15 15 15 15 15 15 14 14 14 14 14 14 13 13 13 13
16 13 15 17 18 19 20 20 19 19 19 18 18 14 14 15 16 16 15 14 15 15 16 16 15 15 15 16 15 15 15 15 15 15 15 14 14 14 14 14 14 14 14 14 13 13 13 13 13
19 13 17 17 18 18 19 20 21 19 18 18 18 14 14 15 15 15 15 15 15 16 16 16 16 16 16 15 15 16 15 15 15 14 14 14 14 14 14 14 14 13 13 13 13 13 12 12 12
18 13 15 17 17 19 21 20 19 19 18 18 18 17 17 16 16 15 15 15 16 16 17 17 16 16 16 16 16 16 16 15 15 15 14 14 14 14 14 14 13 13 13 13 12 12 12 12 12
16 13 16 17 18 18 19 20 19 18 18 16 17 17 17 16 16 16 16 17 17 17 17 16 16 16 16 16 16 16 16 15 15 15 14 14 14 14 14 14 13 13 13 12 12 13 13 12 12
16 16 17 19 21 21 20 19 19 17 17 17 17 17 16 16 16 17 17 18 18 18 17 16 16 16 16 16 16 16 15 15 15 15 14 14 14 14 14 14 13 13 13 13 13 13 13 13 13
18 19 19 21 22 20 19 20 19 20 20 20 20 18 16 16 17 17 17 18 18 17 17 17 17 16 16 15 15 15 15 15 14 14 15 14 14 14 13 13 13 13 13 13 13 13 12 12 12
18 19 20 20 20 21 21 20 19 19 20 19 18 18 17 17 17 17 18 18 18 17 17 17 17 16 16 15 15 15 14 14 14 14 14 14 13 13 13 13 13 12 12 12 12 12 12 11 11
19 19 19 19 20 21 19 20 21 20 19 18 18 18 17 17 18 17 17 18 18 17 17 16 16 15 14 14 14 14 14 13 13 13 13 13 13 13 12 12 12 11 12 11 11 11 11 10 10
20 19 18 19 20 19 21 19 19 19 18 18 18 17 16 16 16 17 17 18 18 17 16 16 15 15 14 14 14 14 13 13 13 13 13 13 12 12 12 11 11 11 11 11 11 10 10 9 9
17 16 17 19 20 18 19 17 15 16 18 16 16 16 16 15 16 17 17 17 17 17 16 16 15 14 14 13 12 13 13 13 13 13 12 12 12 11 11 11 11 11 11 10 10 9 9 9 8
14 16 18 20 19 19 18 17 12 15 16 15 15 16 16 16 16 16 17 17 17 16 16 16 15 14 13 12 12 13 12 11 12 12 11 12 11 11 11 11 11 11 10 9 9 8 8 8 7
17 17 17 18 18 12 13 10 10 13 15 13 14 15 16 16 16 16 16 16 17 16 16 16 15 13 12 12 12 11 11 11 11 11 11 11 11 11 11 11 10 9 9 8 8 8 7 7 7
17 18 17 16 16 11 10 10 9 11 11 11 11 13 14 15 15 15 15 15 16 14 14 15 13 13 11 11 10 10 11 11 11 11 11 11 10 10 10 10 9 9 8 7 7 6 6 6 6
17 16 16 15 14 12 12 10 10 11 11 10 11 12 13 14 14 14 13 13 13 12 12 13 13 12 11 11 11 12 12 11 11 11 11 10 10 10 9 9 8 7 6 5 5 5 5 5 4
16 16 17 15 14 12 13 12 11 12 11 11 11 12 13 14 14 13 13 13 13 14 13 13 12 12 11 12 12 12 11 11 11 10 10 10 9 9 8 7 7 6 5 5 5 5 4 4 3
18 17 16 13 14 13 13 11 13 12 11 11 11 12 13 13 14 14 14 14 14 13 13 12 12 12 12 12 12 11 11 10 10 9 9 8 7 6 6 5 5 5 5 4 3 3 3 2 2
17 15 16 15 13 13 13 11 11 11 11 10 10 11 12 13 14 15 14 13 13 12 12 12 12 12 11 11 11 10 10 9 8 8 7 7 5 5 5 5 4 4 3 2 2 2 2 1 -0
17 15 13 11 11 11 14 12 11 10 11 10 11 11 12 12 13 13 13 13 12 12 12 11 11 11 10 10 10 9 8 7 6 6 5 5 5 4 4 4 4 3 1 1 0 0 -0 -1 -2
14 13 10 12 9 10 12 12 12 12 11 12 11 12 11 11 12 12 12 12 12 11 11 11 10 10 10 9 9 8 7 6 5 5 4 4 4 3 3 3 2 1 1 -0 -2 -2 -2 -2 -3
15 13 10 13 9 12 12 12 12 12 13 14 14 12 12 12 11 10 10 11 11 11 11 10 9 9 9 8 7 6 6 5 5 4 4 4 3 3 2 2 2 2 0 -1 -1 -2 -2 -3 -3
15 12 12 9 7 9 10 12 13 10 10 12 13 12 11 11 10 10 10 10 10 10 10 9 9 8 7 6 6 5 5 4 4 4 4 3 3 2 2 1 1 -1 -1 -3 -3 -2 -3 -3 -4
16 13 12 8 11 10 10 11 10 11 10 10 10 11 10 9 10 9 9 9 9 9 9 8 8 7 6 6 5 5 4 4 4 3 3 3 2 1 1 0 -0 -1 -2 -2 -3 -2 -3 -3 -4
14 13 10 9 7 7 6 9 9 10 11 9 9 11 10 10 10 9 9 9 9 9 9 8 7 6 6 5 5 4 4 3 3 3 2 1 1 0 0 -0 -1 -2 -3 -2 -3 -3 -3 -3 -4
15 14 10 7 11 4 4 8 10 8 11 11 9 10 9 9 8 8 9 9 9 8 7 7 6 6 5 5 4 3 3 2 2 1 1 1 -0 -1 -1 -1 -2 -3 -2 -2 -3 -3 -3 -4 -4

GFSSGP_850_temp_015.txt.gz
Temp
18 18 18 18 20 20 20 21 21 19 18 17 17 18 18 16 18 18 14 15 16 16 15 14 15 15 15 16 15 15 15 15 15 16 15 15 15 15 15 15 15 15 15 15 15 15 15 15 15
18 19 18 18 20 20 20 20 20 20 18 17 17 17 17 16 15 15 14 15 16 16 15 14 15 15 15 15 15 15 15 15 16 15 15 15 15 15 15 15 15 15 15 15 15 15 15 15 14
18 18 18 19 18 20 20 20 20 19 18 18 15 16 16 15 16 15 16 16 15 15 15 14 15 15 15 15 15 15 16 16 15 15 15 15 15 15 15 15 14 14 14 14 14 14 14 14 14
18 18 18 20 19 19 21 20 19 19 18 19 18 16 16 16 16 15 15 15 15 15 15 15 15 15 15 15 15 16 16 16 15 15 15 15 15 15 14 14 14 14 14 14 14 14 14 14 14
18 18 19 18 19 20 20 20 18 20 19 20 18 17 16 16 15 16 16 15 15 15 15 15 15 15 15 15 16 16 15 15 15 15 15 15 15 14 14 14 14 14 14 14 14 14 14 14 14
18 16 19 20 19 20 19 20 20 19 20 18 17 17 15 16 15 15 15 15 15 15 14 14 14 14 15 15 15 15 15 15 15 15 15 14 14 14 14 14 14 14 14 14 14 14 14 14 13
18 18 19 19 19 20 20 19 19 20 19 18 17 15 14 14 16 16 15 15 14 14 14 14 14 15 15 15 15 15 15 15 15 15 14 14 14 14 14 14 14 14 13 13 13 13 13 14 14
18 18 18 19 20 17 19 18 18 17 18 18 18 16 14 14 15 15 14 14 14 14 14 15 15 15 15 14 15 15 15 15 15 14 14 15 14 14 14 14 14 14 14 13 13 13 13 13 13
18 18 19 19 20 17 17 19 18 19 18 17 17 16 16 15 15 14 14 14 14 14 15 15 15 15 15 15 15 15 15 14 14 14 14 14 14 14 14 14 14 14 14 14 13 13 13 13 13
18 18 19 19 20 19 19 20 19 18 17 16 15 16 16 16 15 14 14 14 15 16 16 16 16 15 15 15 15 15 14 14 14 14 14 14 14 14 14 13 13 13 13 13 13 13 12 12 12
16 19 18 19 20 21 21 19 19 18 18 17 16 15 15 14 14 15 15 17 18 16 16 16 16 15 15 15 15 14 14 14 14 14 14 14 13 13 13 13 13 13 12 13 12 12 12 12 12
19 17 18 21 19 20 19 19 18 19 19 20 19 18 17 15 17 18 18 18 17 17 17 16 16 15 15 14 14 14 13 14 13 13 13 13 13 13 13 13 13 12 12 12 12 12 12 11 11
18 19 19 19 20 20 20 19 20 19 20 20 18 17 18 17 17 17 17 17 17 17 16 15 15 14 14 14 13 13 13 13 12 12 13 13 13 12 12 12 12 12 12 12 12 11 11 11 11
19 19 18 18 19 19 20 19 20 18 19 20 19 18 17 16 17 17 17 17 17 16 16 15 15 14 14 14 13 13 14 13 13 12 12 12 12 12 12 12 11 11 11 11 11 11 11 10 10
19 20 19 18 19 19 20 20 16 14 16 18 15 16 16 16 16 16 17 17 17 16 15 15 14 14 13 13 13 13 13 13 13 13 12 12 12 12 12 11 11 11 11 11 11 10 10 9 9
19 18 20 19 19 18 19 19 15 14 15 15 15 15 15 15 15 15 15 16 16 16 15 16 15 14 13 13 12 13 12 12 13 13 12 12 11 11 11 11 11 11 11 10 10 9 9 8 8
17 19 18 19 16 18 19 17 13 14 14 13 13 14 15 15 15 15 16 16 16 15 15 15 15 15 13 13 12 11 11 11 11 11 11 11 11 11 11 11 11 11 10 9 9 8 7 7 7
19 18 18 19 17 16 16 13 12 11 13 12 13 14 14 15 15 16 16 16 16 16 15 14 15 15 14 13 12 11 11 11 11 12 11 11 11 11 11 10 10 10 9 8 8 7 6 6 6
18 18 18 16 14 14 12 13 12 11 11 12 12 13 14 15 15 16 16 15 15 15 13 13 13 13 13 12 11 11 11 11 12 11 11 11 11 10 10 9 9 8 7 7 6 6 6 5 5
17 17 15 15 14 14 14 13 13 12 11 11 11 12 13 14 14 14 15 14 13 13 13 13 12 12 12 11 11 12 12 12 11 11 11 10 10 9 9 8 7 6 5 5 5 4 4 4 3
16 17 16 16 14 14 15 15 13 12 11 10 10 11 11 12 12 12 12 13 13 13 13 12 12 11 11 11 12 11 11 11 10 10 10 9 9 7 6 5 5 5 5 4 3 3 2 1 2
17 16 15 15 16 17 14 18 14 13 12 12 11 10 11 12 12 12 12 12 12 12 12 12 11 11 11 11 11 11 10 10 10 9 8 7 6 5 5 5 5 5 4 3 2 2 2 1 -0
16 15 16 15 16 16 15 17 14 13 13 13 12 11 10 12 12 12 12 12 13 12 12 11 11 11 11 10 10 10 9 8 7 6 6 5 5 5 4 4 4 4 3 2 2 1 1 0 -1
14 16 15 14 15 16 15 16 15 13 14 14 12 11 10 12 12 12 12 12 12 11 11 11 11 11 10 10 9 9 8 7 6 5 5 5 5 4 4 3 3 3 2 2 1 0 -0 -1 -1
16 16 15 16 15 15 13 14 17 15 14 15 13 12 11 12 12 12 12 11 11 11 11 11 10 10 9 9 8 8 7 6 6 5 5 5 4 4 3 3 2 2 2 0 -1 -1 -1 -1 -2
15 16 15 14 14 15 13 15 17 14 14 14 13 12 12 12 11 11 11 11 11 11 11 10 10 9 9 8 7 7 6 5 4 4 4 4 3 3 3 2 2 1 1 -0 -1 -2 -2 -2 -3
15 15 13 11 9 13 14 14 15 12 13 12 12 11 11 11 11 11 11 10 10 9 9 9 9 8 7 7 6 5 5 4 4 4 3 3 3 2 2 1 1 0 -0 -1 -2 -2 -2 -3 -3
16 13 15 13 13 13 14 13 16 13 13 13 12 11 10 11 10 10 9 9 9 9 9 8 7 7 7 6 5 5 4 4 4 3 3 2 2 2 1 0 -0 -1 -1 -2 -2 -2 -3 -3 -3
15 14 11 12 11 13 13 15 13 14 14 13 13 11 11 11 10 9 8 8 8 8 7 6 6 6 6 5 5 4 4 3 3 2 2 1 1 0 -1 -1 -1 -1 -2 -2 -3 -3 -3 -3 -3
14 14 13 13 12 8 10 15 12 12 12 12 11 11 11 10 9 8 8 8 8 7 6 6 6 5 5 5 4 4 3 2 2 1 1 -0 -1 -1 -2 -2 -2 -2 -3 -3 -3 -3 -3 -3 -4

GFSSGP_850_temp_018.txt.gz
Temp
18 19 19 19 24 25 25 25 25 23 21 20 20 21 20 20 20 19 15 15 15 14 14 15 15 16 16 16 16 16 15 15 15 15 15 15 15 15 15 15 15 15 15 15 15 15 15 15 15
18 19 19 22 24 24 25 25 24 23 21 19 19 19 19 19 16 14 14 14 14 15 14 14 15 15 15 16 15 15 15 15 15 15 15 15 15 15 15 15 15 15 15 15 15 15 15 15 14
18 19 22 24 25 24 25 25 23 22 20 21 18 16 16 17 16 15 15 15 15 15 14 14 15 15 15 15 15 15 15 15 15 15 15 15 15 15 15 15 15 14 15 15 14 14 14 14 14
18 19 21 23 24 24 25 24 23 22 21 20 19 15 15 17 16 15 15 15 15 15 14 15 15 15 15 15 15 15 15 15 15 15 15 15 15 15 15 14 14 14 15 14 14 14 14 14 14
18 21 24 24 24 24 25 23 22 22 23 22 21 19 16 14 16 15 16 15 14 15 15 15 14 14 14 14 15 15 15 15 15 14 15 15 15 14 14 14 14 14 14 14 14 14 14 14 14
21 22 23 24 24 24 25 23 22 22 22 21 21 20 17 15 15 15 16 14 14 14 15 14 14 14 14 14 15 15 15 15 15 14 14 14 14 14 14 14 14 14 14 14 14 14 14 14 14
22 24 24 24 23 22 23 22 23 21 22 21 20 20 15 15 15 15 14 14 15 14 15 14 14 14 14 14 14 14 14 14 14 14 14 14 14 14 14 14 14 14 14 14 13 13 13 13 13
21 24 23 24 23 21 21 20 20 21 21 19 20 21 16 14 14 14 14 14 14 15 14 14 13 14 14 14 14 14 14 14 14 14 14 14 14 13 13 13 13 13 13 13 13 13 13 13 13
19 23 24 23 23 21 22 22 19 20 20 18 18 19 17 14 14 14 14 14 15 14 14 13 13 12 12 12 14 14 14 14 13 14 13 13 12 12 13 13 13 13 13 13 13 13 13 12 12
22 23 24 24 24 23 21 22 22 20 20 19 18 16 15 14 14 14 14 13 13 13 14 14 14 14 12 12 14 13 13 12 12 12 13 11 12 12 12 13 13 13 13 12 12 12 12 12 12
22 24 24 23 23 23 23 22 22 22 22 21 19 16 14 14 14 14 14 14 13 13 13 14 14 14 12 12 12 12 12 12 13 13 12 12 13 12 12 12 12 12 12 11 11 11 11 12 12
22 23 22 23 22 23 23 22 22 23 22 21 19 16 15 14 14 14 14 15 15 13 13 15 15 14 14 13 12 13 12 13 12 13 13 13 12 12 12 12 11 12 12 12 12 11 12 12 11
22 23 22 22 21 23 22 23 23 23 20 19 17 16 16 15 15 16 16 16 15 14 13 15 15 15 14 14 13 13 13 12 12 13 13 13 12 13 12 12 12 12 12 12 11 10 10 10 10
22 22 22 21 22 21 23 22 23 20 19 19 17 17 17 16 16 16 16 15 15 14 13 15 15 14 14 12 13 13 13 13 12 12 12 12 12 11 12 12 11 11 11 11 10 11 11 10 9
21 22 22 22 22 22 23 23 21 17 18 19 19 18 17 17 17 17 16 16 15 15 13 14 14 14 13 13 12 12 14 12 12 12 13 12 11 11 11 12 10 10 11 11 10 10 9 9 9
22 23 23 22 22 20 22 22 20 16 18 20 19 18 17 17 16 16 15 16 15 15 13 15 14 14 13 13 12 12 12 11 11 12 12 12 11 11 11 10 10 11 11 10 8 8 8 8 8
22 23 23 21 21 22 23 22 19 17 19 20 19 18 17 16 15 14 15 15 15 15 13 15 15 14 13 12 13 11 11 11 11 12 11 11 11 10 10 10 10 10 9 8 8 7 6 7 7
22 22 23 22 21 23 23 21 19 17 19 19 19 18 17 17 15 14 15 15 14 13 13 14 14 14 12 12 11 11 11 11 11 11 11 11 11 10 10 10 9 9 7 6 6 6 6 5 5
23 23 23 21 19 21 21 21 20 18 18 18 18 18 17 16 14 14 15 15 15 15 15 13 13 12 12 11 12 12 10 11 11 11 11 10 10 10 9 8 7 6 6 5 5 5 5 5 5
23 22 21 19 19 21 21 20 19 18 18 18 18 18 17 15 14 12 12 13 12 12 11 11 11 12 11 11 11 11 10 10 11 11 11 10 9 8 7 7 5 5 5 5 4 4 4 4 3
21 22 20 21 19 20 21 21 19 17 16 15 15 17 16 16 14 13 12 12 11 11 11 11 11 11 10 11 11 11 11 11 10 9 8 8 7 6 6 5 5 5 4 4 3 2 2 3 3
21 20 21 20 21 22 20 22 20 18 18 17 15 15 15 14 14 13 12 12 12 11 11 11 10 10 11 11 10 10 10 10 8 7 6 6 6 6 5 5 5 4 3 3 2 1 1 1 2
20 20 21 21 22 21 21 22 21 18 18 18 16 15 15 14 14 13 13 13 12 10 11 10 11 11 11 10 10 9 9 8 7 6 6 5 5 4 4 3 3 3 2 2 2 0 0 0 0
19 20 20 20 21 20 22 21 23 20 20 19 17 15 14 14 13 13 12 11 10 9 11 10 10 9 9 10 10 9 8 7 6 5 5 5 5 5 4 3 2 2 1 1 0 -0 -1 -1 -1
20 21 20 19 19 19 18 19 22 22 20 20 17 15 14 13 13 12 11 11 10 9 8 8 8 8 8 9 8 8 7 6 5 5 4 4 4 4 3 2 2 1 1 -0 -0 -1 -1 -1 -1
20 21 20 17 18 20 18 19 22 19 19 19 17 16 14 14 13 12 12 11 9 8 8 8 8 8 7 7 6 6 6 6 4 4 3 3 2 2 1 1 1 1 -0 -1 -2 -1 -1 -2 -2
19 19 19 17 14 17 20 21 20 18 18 18 18 16 15 14 13 12 11 10 9 8 8 7 7 7 6 6 5 5 5 5 4 3 2 2 1 1 1 0 0 -0 -1 -1 -2 -1 -1 -2 -2
19 19 18 18 16 17 20 19 21 18 18 18 18 16 15 15 13 12 10 9 8 8 7 7 6 6 6 5 4 5 4 4 4 3 2 1 1 0 0 -0 -0 -1 -1 -1 -2 -1 -2 -2 -2
18 18 17 18 17 18 18 21 19 19 19 18 17 16 16 15 13 11 9 8 8 7 7 6 6 6 6 4 5 5 4 4 3 2 1 0 -0 -1 -1 -1 -1 -1 -2 -2 -2 -2 -3 -2 -2
19 19 19 18 17 15 15 19 18 17 17 18 17 16 16 14 12 11 9 8 7 7 6 6 6 6 5 4 4 4 4 3 2 1 0 -1 -1 -1 -2 -2 -2 -2 -2 -2 -3 -3 -3 -3 -3

GFSSGP_850_temp_021.txt.gz
Temp
19 19 19 22 24 26 27 29 29 25 23 21 21 24 21 21 21 21 18 17 16 16 15 16 16 16 16 16 16 16 16 15 15 16 16 15 16 16 16 16 15 15 15 15 15 15 15 15 15
19 19 21 24 25 26 28 30 27 24 23 22 21 21 22 22 19 17 16 16 16 15 16 15 15 16 16 16 15 16 15 15 16 16 15 15 15 15 15 15 15 15 15 15 15 14 14 15 15
18 20 23 26 26 26 28 28 25 23 23 23 21 21 20 20 19 16 16 15 15 14 14 15 15 15 15 15 15 15 15 15 15 15 15 15 15 15 15 15 15 15 15 15 14 14 14 14 14
19 21 23 25 26 28 27 26 24 25 23 23 22 22 17 18 17 17 15 15 15 15 14 15 15 15 15 14 15 15 15 15 15 15 15 14 14 15 15 15 15 15 14 14 14 14 14 14 14
20 23 25 25 26 27 26 23 23 21 24 22 23 21 20 16 16 15 15 15 15 14 14 14 15 15 14 14 14 14 14 15 14 14 14 14 14 14 14 14 14 14 14 14 14 14 14 14 14
23 24 25 26 27 27 27 23 25 24 23 23 23 22 20 17 16 15 15 16 14 13 14 14 14 14 14 14 14 14 14 14 14 14 14 14 14 14 14 14 14 14 14 14 14 14 14 13 13
23 26 25 27 26 25 26 22 18 24 23 23 23 23 20 18 17 15 15 15 15 14 14 14 14 14 14 14 14 14 14 14 14 14 14 13 14 14 14 14 14 14 14 14 13 13 13 13 13
23 26 25 26 24 23 26 24 23 21 15 21 22 21 22 19 15 14 14 14 13 13 14 14 14 13 14 14 14 14 14 14 14 14 13 13 13 13 13 13 13 13 13 13 13 13 13 13 13
22 24 25 26 23 22 24 24 23 22 20 22 21 21 19 17 15 14 14 14 14 14 15 14 14 13 13 13 13 14 14 14 13 14 13 13 12 12 13 13 13 13 13 13 13 13 13 12 13
24 24 26 26 22 18 25 24 23 22 21 22 21 20 17 16 16 15 15 14 14 14 13 13 14 14 14 14 13 12 13 13 12 12 13 13 12 12 12 13 13 13 13 13 12 12 12 12 12
24 25 26 26 22 24 22 23 23 22 22 23 22 20 18 16 16 16 15 15 14 14 13 13 13 14 13 13 13 13 13 12 12 12 12 12 12 12 12 13 13 12 12 13 12 12 12 11 11
24 25 25 25 24 25 25 24 23 16 13 22 21 19 17 18 17 17 16 16 16 14 13 13 13 13 13 13 14 13 13 13 13 13 11 12 12 12 12 13 13 12 13 12 12 12 11 11 11
24 25 24 24 24 24 24 24 21 20 22 22 20 18 18 18 18 18 18 18 17 16 14 12 12 12 12 13 12 12 12 13 13 12 13 12 12 12 12 12 11 12 12 12 12 12 11 11 11
24 24 24 24 24 22 24 24 22 23 23 21 19 19 19 19 19 19 19 18 17 16 15 13 13 12 13 12 12 12 13 13 13 12 12 12 12 13 12 11 11 11 10 10 10 10 10 10 10
23 23 24 24 24 24 24 24 23 22 22 21 21 21 20 19 19 19 18 18 17 17 15 14 13 13 12 12 13 13 13 13 12 12 12 12 11 11 11 11 11 10 10 10 10 10 10 10 10
23 24 23 24 25 24 24 23 23 22 23 22 22 21 20 19 19 19 18 18 17 17 15 14 13 12 13 14 13 13 13 12 11 12 12 12 12 11 11 10 9 10 9 9 9 9 9 8 9
23 22 23 23 25 25 24 23 23 22 23 23 22 21 20 19 19 18 18 18 18 17 15 13 12 12 13 13 13 12 12 12 11 11 11 11 11 11 9 9 8 9 8 8 8 8 7 8 8
22 23 25 24 24 25 24 24 24 23 23 23 22 21 20 19 19 18 17 18 18 17 15 13 12 12 12 13 12 11 11 10 10 10 9 9 9 10 9 8 9 9 8 8 7 6 6 7 7
24 24 24 24 24 24 24 24 24 23 23 23 22 22 21 20 19 17 16 16 16 16 15 12 13 12 12 11 11 11 10 10 10 10 9 9 9 9 9 8 8 7 7 6 6 6 5 6 6
24 24 24 24 23 23 24 24 24 23 23 23 23 22 21 20 18 17 16 15 15 14 14 12 11 11 11 12 12 12 12 11 10 9 10 9 9 7 7 7 6 6 6 6 5 5 5 5 5
24 24 23 23 23 24 25 24 23 23 23 21 22 22 21 20 18 16 15 15 14 13 12 12 12 12 13 13 12 11 11 10 10 9 9 7 6 6 6 6 5 5 5 5 5 4 3 4 4
23 23 24 23 23 22 24 22 23 23 22 21 20 21 21 20 18 17 16 15 14 13 13 13 13 12 11 12 12 12 12 12 10 9 8 7 6 6 6 5 5 4 4 4 4 4 3 2 3
20 23 23 24 24 23 23 23 17 22 22 22 21 20 19 19 17 17 16 15 14 13 13 12 12 11 11 11 10 11 10 9 8 8 7 7 7 6 6 6 5 4 3 3 3 2 2 2 2
23 23 23 24 24 21 23 23 23 23 24 23 21 19 19 18 17 16 16 14 13 12 11 11 11 10 10 9 9 8 8 8 8 7 7 6 6 5 5 4 4 3 3 3 3 2 1 1 0
23 22 21 20 20 20 23 23 24 25 24 24 21 19 18 17 16 16 15 14 13 11 11 11 10 9 9 8 8 7 7 6 6 6 5 5 5 4 4 3 3 2 3 2 2 1 -0 -0 -0
22 23 21 19 20 21 22 21 24 24 23 23 21 19 17 17 16 16 15 14 12 11 11 10 10 9 8 7 7 6 7 6 5 5 4 4 3 3 2 2 2 2 2 2 0 -0 -1 -1 -1
22 21 23 21 20 19 22 24 24 22 22 22 21 19 18 17 16 15 14 13 12 11 10 10 10 9 8 6 7 7 7 6 4 4 3 3 3 2 2 1 1 1 1 0 -0 -1 -1 -1 -1
21 23 20 21 18 18 22 23 23 22 21 21 22 20 18 17 16 15 14 13 12 11 10 9 9 8 6 7 7 6 5 4 4 3 3 2 2 1 1 1 1 1 1 0 -0 -0 -0 -1 -2
21 21 21 21 20 19 19 22 23 22 22 21 21 20 19 18 17 15 14 12 11 10 9 8 8 7 6 7 6 5 5 4 4 3 3 2 1 1 1 0 0 -0 0 0 -0 -1 -1 -2 -2
22 22 22 19 19 19 18 20 22 22 22 21 20 20 19 18 17 16 14 12 11 10 9 8 7 6 6 5 5 4 4 4 4 3 2 2 1 0 0 -0 -0 0 0 -0 -1 -2 -2 -2 -2

GFSSGP_850_temp_024.txt.gz
Temp
20 20 20 20 22 24 24 26 29 26 24 24 24 25 23 22 20 18 16 17 16 17 17 16 16 16 15 15 15 16 16 16 15 16 16 16 15 16 16 15 15 15 15 15 14 15 15 15 15
20 19 20 22 22 23 26 28 24 23 24 23 23 23 24 22 19 16 16 16 15 16 16 16 15 15 15 15 15 15 15 15 16 16 15 15 15 15 15 15 15 15 15 15 15 15 15 15 15
19 20 22 23 24 24 26 26 25 24 23 23 23 23 22 21 18 16 16 15 15 16 15 16 15 15 15 15 15 15 15 15 16 15 15 15 15 15 15 15 15 15 15 15 14 14 14 14 14
19 21 22 22 24 26 27 24 25 24 23 23 23 22 19 19 19 17 16 15 15 14 15 15 14 14 14 14 14 15 15 15 15 15 15 15 15 15 15 15 15 15 15 14 14 14 14 14 14
20 22 23 23 25 27 28 23 22 17 15 23 23 22 20 18 17 16 15 15 15 15 14 13 14 14 14 14 14 15 15 15 15 15 15 15 15 14 14 14 14 14 14 14 14 14 14 14 14
22 22 22 23 25 28 28 23 18 16 15 21 23 22 20 17 17 16 15 14 14 14 14 14 13 13 14 14 14 14 15 15 15 15 15 14 14 14 14 14 14 14 14 14 14 14 13 13 13
22 24 23 25 26 26 25 21 19 17 17 21 21 19 19 18 16 16 16 14 12 12 13 12 12 13 13 14 14 14 14 14 14 14 14 14 14 14 14 13 14 14 14 13 13 13 13 13 13
22 24 24 25 26 25 22 21 20 20 18 19 18 21 18 17 17 15 14 14 13 12 13 13 13 13 14 14 14 14 15 14 14 14 14 14 14 14 13 13 13 13 13 13 13 13 13 13 13
23 23 23 25 26 18 14 15 21 22 19 20 19 19 18 17 17 14 13 13 11 12 12 13 13 14 14 14 14 14 14 14 14 14 13 13 13 13 12 13 13 13 13 13 13 13 12 12 12
23 23 24 26 23 16 16 18 20 23 23 20 20 19 17 15 15 15 13 12 12 13 13 13 14 14 14 14 14 14 14 13 13 13 13 13 12 12 13 13 13 13 13 13 12 12 12 11 12
24 23 26 24 18 18 19 21 24 20 18 18 15 19 18 16 15 16 14 14 13 13 13 14 14 14 13 14 13 13 13 12 12 12 13 13 13 13 13 13 13 13 13 12 12 12 12 12 11
23 25 25 24 19 19 15 21 19 18 17 19 19 20 18 17 16 16 15 15 14 14 14 14 14 14 14 14 14 14 13 13 12 13 12 13 13 13 13 13 13 12 12 12 12 12 12 11 11
24 25 25 24 24 21 20 20 19 17 19 19 18 19 19 19 18 17 17 16 15 14 14 14 14 13 13 14 13 13 13 13 13 13 13 13 12 12 13 13 12 12 12 12 11 11 11 11 10
24 24 25 24 23 24 23 21 20 19 18 18 19 19 19 20 19 19 19 17 16 15 14 14 13 14 13 13 13 13 14 14 14 13 12 12 12 13 13 13 12 11 11 11 11 10 10 10 10
24 23 24 25 24 24 22 21 21 22 21 21 21 20 20 20 19 19 19 18 17 15 14 13 13 13 13 13 13 13 14 13 13 12 12 12 12 12 12 12 11 11 11 10 10 10 9 9 9
23 23 22 24 24 23 23 20 23 23 22 22 22 21 20 20 20 19 19 18 17 16 14 13 13 13 13 13 14 14 15 13 12 12 12 12 12 12 11 10 10 11 10 9 9 9 8 8 8
22 20 22 24 25 24 23 20 24 23 23 23 22 21 21 20 20 19 19 18 18 16 15 14 13 13 13 13 13 14 13 13 12 12 11 12 12 11 10 10 10 10 9 8 8 8 8 7 7
20 21 22 23 25 25 24 23 24 24 24 23 22 22 21 20 20 19 19 19 18 17 15 14 13 14 13 13 13 12 12 12 11 11 10 10 11 11 10 9 9 8 8 7 7 7 6 6 6
23 23 23 25 25 24 24 24 24 24 24 23 22 22 21 20 19 18 18 18 18 17 15 14 13 12 11 12 12 11 11 10 10 10 9 9 9 9 9 8 8 7 7 6 6 6 5 5 5
23 23 24 24 25 24 25 24 25 24 24 24 23 22 21 21 20 18 17 17 17 16 15 14 12 11 12 12 11 11 11 11 10 10 10 9 9 8 7 8 7 7 7 6 5 5 5 4 4
23 23 22 23 24 24 21 23 24 24 24 24 23 23 22 22 20 18 17 16 16 16 15 14 13 11 12 12 12 12 12 11 11 10 9 8 8 8 8 7 6 6 5 5 4 4 4 4 3
21 22 23 22 23 21 22 19 16 19 23 24 24 23 23 22 20 18 17 16 15 15 14 13 12 12 13 13 12 12 12 11 10 9 9 8 7 7 6 6 6 5 5 4 4 4 4 3 2
19 22 22 23 23 20 19 18 20 19 20 22 23 22 22 22 20 18 17 16 15 14 13 13 13 12 12 12 12 11 11 10 9 8 8 7 7 6 6 6 5 5 5 4 3 3 3 2 2
22 22 23 23 23 16 20 17 20 20 19 13 22 22 21 21 20 18 17 16 15 14 13 13 12 11 11 11 11 11 10 9 8 8 8 7 6 6 5 5 5 5 3 3 3 3 2 2 1
23 22 20 16 15 18 24 22 19 21 16 14 14 21 20 19 19 18 16 15 13 13 12 12 11 11 10 10 10 10 9 9 9 8 7 7 5 5 4 4 4 3 2 2 2 2 2 1 1
18 22 19 13 12 20 22 22 23 23 23 19 21 21 19 18 18 17 15 14 13 12 11 11 11 10 9 8 8 8 9 8 8 8 8 6 5 4 3 3 3 2 2 1 1 1 1 0 -0
22 21 23 19 19 19 21 23 25 24 23 23 22 20 19 18 17 17 15 14 13 12 11 11 10 9 8 8 8 9 8 8 7 6 5 4 4 3 3 2 2 1 1 1 1 1 0 -0 -1
22 23 20 21 18 17 21 22 22 22 22 22 22 20 19 18 17 17 16 14 13 12 11 11 10 9 8 8 8 8 8 7 5 5 4 3 3 3 2 1 1 1 0 0 0 0 -0 -0 -1
21 21 21 22 20 18 17 20 23 22 23 22 22 21 19 18 18 17 16 15 13 12 11 10 10 9 8 8 8 7 7 5 5 4 3 3 2 2 1 1 0 0 0 0 -0 -0 -1 -1 -1
22 21 22 17 18 18 16 18 23 22 23 22 22 22 20 19 18 17 16 15 13 12 11 10 9 8 7 6 7 6 5 5 4 4 3 3 2 1 1 0 -0 -0 -0 -0 -0 -1 -1 -2 -2

GFSSGP_850_temp_030.txt.gz
Temp
18 18 18 18 14 12 14 16 19 19 20 21 21 19 17 17 18 17 14 15 16 15 15 16 16 16 16 15 15 15 16 16 16 16 16 16 16 16 16 16 15 15 15 15 15 15 14 14 14
18 18 17 17 13 13 14 17 19 18 19 21 20 19 18 16 15 15 14 16 17 16 16 16 16 16 15 15 15 15 16 16 16 16 16 16 16 16 16 15 15 15 15 15 15 15 15 14 14
18 17 17 13 10 14 14 19 19 18 21 21 20 19 18 15 14 14 14 15 16 16 15 15 16 16 15 15 15 15 15 15 16 16 16 16 16 16 16 15 15 15 15 15 14 14 14 15 14
17 17 17 14 15 16 19 19 19 19 19 20 19 16 17 16 15 16 15 15 15 14 14 15 15 15 15 14 15 15 15 15 15 16 16 16 16 16 16 16 15 15 15 14 14 14 14 14 14
17 17 13 14 16 19 15 16 17 16 16 18 18 16 15 15 16 16 15 15 15 14 14 14 15 15 14 14 15 15 15 15 16 16 15 16 16 16 16 15 15 15 15 14 14 14 14 13 14
17 16 14 14 18 18 16 17 16 15 16 17 17 16 14 14 14 13 13 13 13 13 13 13 13 14 14 14 15 15 15 15 15 15 15 15 16 16 15 15 15 15 14 14 14 13 13 13 13
16 14 14 17 18 18 17 16 16 16 16 16 17 15 13 14 13 13 12 12 12 12 12 12 12 12 13 14 15 15 15 15 15 15 15 15 15 15 15 15 15 14 14 13 13 13 13 13 13
18 14 16 16 18 17 15 16 16 17 16 16 16 14 13 12 13 13 13 12 12 12 11 11 11 12 13 13 14 15 15 15 15 15 15 15 15 15 15 14 14 14 14 13 13 13 13 12 12
18 15 14 17 19 16 16 15 17 16 16 14 15 15 12 12 13 13 12 12 12 12 11 11 12 12 13 14 14 14 15 14 14 14 15 15 15 14 14 14 13 13 13 12 12 12 12 12 12
17 14 17 18 17 15 16 15 17 17 13 12 12 13 13 12 13 14 13 12 12 13 13 13 12 12 13 14 14 14 15 14 14 14 14 14 13 13 13 13 12 12 12 12 12 12 11 11 11
18 16 18 20 18 18 16 16 16 16 15 13 13 11 13 13 13 14 12 13 14 13 14 13 12 12 13 14 14 14 14 13 13 13 13 13 13 13 12 12 12 12 12 12 12 11 11 11 11
18 19 20 20 18 18 17 17 17 16 17 17 14 14 13 13 13 14 13 13 14 13 14 12 12 13 14 14 14 14 14 13 12 13 13 13 12 13 12 12 12 12 12 12 12 11 11 11 11
18 19 21 19 19 19 18 17 16 15 15 15 13 12 12 13 13 14 15 14 13 13 13 13 13 13 13 14 13 13 13 13 13 13 12 12 12 12 12 12 12 12 12 11 11 11 11 11 11
20 20 19 19 18 18 19 18 17 15 15 14 13 13 15 14 15 14 14 13 13 13 12 12 13 13 13 13 13 13 13 13 13 12 12 12 12 12 12 12 12 12 12 11 11 11 11 11 10
20 20 18 17 17 17 19 17 16 16 16 16 16 15 14 15 15 15 15 14 13 13 13 13 13 13 13 13 13 13 13 12 12 12 12 12 13 13 12 12 12 12 11 11 11 11 10 10 10
18 18 17 17 17 18 19 17 18 17 17 16 16 16 15 15 15 15 15 14 14 13 12 13 13 13 13 13 13 13 12 12 12 12 12 13 13 12 12 12 11 11 11 11 11 11 10 9 8
15 17 19 19 20 19 18 17 18 18 18 18 17 17 16 15 14 15 15 15 15 14 13 13 13 13 13 13 13 13 13 12 13 13 13 13 12 12 11 11 10 11 11 11 10 10 9 8 7
18 18 18 18 20 20 18 17 17 17 18 18 17 18 16 15 15 16 16 15 16 16 15 14 13 13 13 13 13 13 13 13 13 12 12 12 11 12 12 11 11 11 11 10 9 8 8 7 7
19 18 17 18 18 19 18 17 17 16 17 17 18 18 18 17 17 17 16 16 16 15 15 15 15 14 14 13 13 13 13 13 12 12 12 12 12 12 11 11 11 10 9 8 8 8 7 7 6
17 17 17 18 19 19 18 18 16 16 17 17 18 18 18 18 17 17 17 16 16 16 15 15 15 15 14 14 13 14 13 13 12 12 11 11 11 11 11 11 10 10 10 9 8 7 7 5 4
17 17 17 18 18 18 17 16 18 19 18 18 18 20 19 19 18 17 17 17 16 15 16 15 15 15 15 14 13 13 13 12 11 11 10 11 10 10 10 10 10 9 8 8 6 5 4 3 3
16 18 18 19 17 17 17 15 16 18 17 17 17 18 18 18 19 18 17 17 17 16 16 15 15 13 13 13 12 13 12 11 11 11 10 10 9 10 10 10 9 8 7 6 6 5 4 3 3
17 19 19 20 16 17 17 15 16 17 18 17 18 19 18 18 19 18 18 17 17 16 15 16 13 12 12 12 12 12 12 12 11 10 10 9 9 9 9 9 8 6 6 6 5 5 4 3 2
19 19 16 15 14 13 16 15 14 16 18 19 19 20 20 18 17 17 17 17 16 16 15 14 13 12 11 12 12 12 12 11 10 10 9 9 9 8 7 6 6 6 5 5 5 4 2 2 1
19 16 13 14 11 12 16 15 15 17 17 17 18 19 20 19 17 17 17 16 16 15 15 14 14 13 12 11 11 11 11 11 10 10 9 8 8 7 7 6 5 5 4 4 3 2 2 1 1
17 16 12 14 11 14 16 15 17 18 19 19 19 18 19 18 17 17 17 16 16 15 14 12 13 13 12 12 11 11 11 10 10 9 8 8 7 6 5 5 4 4 3 3 2 2 1 0 0
17 16 16 12 10 12 13 17 18 17 16 17 16 18 18 18 17 17 17 16 16 15 13 14 13 13 12 12 11 10 10 9 9 8 8 7 6 5 4 4 4 3 3 2 2 1 0 0 -0
17 18 16 12 14 14 14 15 15 18 19 16 15 16 17 17 17 17 17 16 14 13 14 13 13 13 12 11 10 10 9 9 8 8 7 6 5 4 5 4 4 3 2 1 1 0 -0 -0 -1
16 17 17 14 11 12 11 13 15 17 17 16 14 17 17 17 17 17 16 15 15 14 13 13 13 12 12 11 11 10 9 8 8 7 6 5 4 3 4 4 3 2 1 1 0 -1 -1 -1 -1
17 17 15 10 15 8 8 13 16 16 16 17 17 18 17 17 17 17 17 16 15 14 14 14 13 13 13 12 11 10 9 8 8 7 6 5 3 3 3 3 2 2 1 1 0 -1 -1 -1 -1

GFSSGP_850_temp_033.txt.gz
Temp
17 17 17 17 14 11 14 15 17 18 19 20 20 19 17 15 17 17 14 15 16 15 15 15 16 16 17 16 16 16 16 16 16 16 16 16 16 16 16 16 16 15 15 15 14 14 14 14 14
17 17 17 16 12 12 14 16 18 17 19 18 19 18 17 16 14 14 14 15 15 15 15 15 15 16 16 16 16 16 16 16 16 16 16 16 16 16 16 16 15 15 15 15 14 14 14 14 14
17 17 17 11 9 13 14 16 18 18 18 17 18 17 16 15 14 14 14 14 15 14 14 15 15 16 15 15 16 16 16 16 16 16 16 16 16 16 16 15 15 15 15 14 14 13 13 13 14
17 16 16 13 14 14 17 17 17 18 17 16 16 15 15 14 15 15 14 14 14 14 14 14 15 16 15 15 16 16 16 16 16 16 16 16 16 15 15 15 15 15 14 14 14 13 13 14 13
17 16 13 14 15 17 15 15 15 15 15 16 16 14 14 14 15 14 15 14 14 14 14 14 15 15 14 15 15 16 16 16 16 16 16 16 16 15 15 15 15 14 14 14 14 14 14 14 14
16 15 13 14 16 17 16 15 15 15 15 16 16 15 13 13 14 13 13 13 13 14 13 13 13 13 14 15 15 16 16 16 16 15 16 16 15 15 15 15 14 14 14 14 14 14 13 13 13
14 12 14 15 16 17 16 16 15 15 16 14 17 14 13 13 13 13 12 12 13 13 12 12 12 12 14 14 14 15 15 16 15 15 15 15 15 14 14 14 14 14 14 14 14 13 13 12 12
18 13 15 16 16 16 16 16 17 16 15 15 16 14 13 12 13 13 12 11 12 11 12 12 11 12 13 13 14 16 16 15 15 15 15 15 14 14 14 14 14 13 13 13 13 13 12 12 12
17 13 14 16 16 17 16 16 14 14 14 13 14 13 12 13 12 12 12 13 13 12 11 11 11 13 14 14 14 15 15 14 14 14 14 14 14 14 13 13 13 13 13 13 13 12 12 12 12
15 13 16 16 17 15 15 15 16 14 12 12 12 12 12 12 13 12 11 11 12 12 11 11 11 12 13 13 14 14 14 14 14 14 14 13 13 13 13 13 13 13 12 13 12 12 12 12 11
16 15 17 18 19 17 15 14 16 14 13 12 11 12 12 12 12 11 11 11 11 13 13 11 12 12 12 13 13 14 13 13 13 13 13 13 13 13 13 13 13 12 12 12 12 12 11 11 11
17 18 18 19 18 17 16 16 15 15 15 13 12 13 14 11 11 13 12 12 12 12 13 12 12 12 13 13 14 13 13 13 13 13 13 13 13 13 12 12 12 12 12 12 12 11 11 11 10
17 18 19 19 18 18 17 16 14 12 14 13 14 14 15 12 11 12 13 14 13 13 13 12 12 12 13 13 13 13 12 13 13 13 13 13 13 13 13 12 12 12 12 11 11 11 11 10 10
19 18 17 17 17 18 16 15 17 12 13 14 14 15 16 15 13 13 13 14 14 14 13 13 13 14 13 13 13 13 13 12 13 12 12 12 12 12 12 12 12 12 11 10 10 10 10 10 10
19 18 17 17 17 17 17 16 14 13 12 11 13 15 15 14 13 15 15 14 14 14 13 13 13 13 13 13 13 13 12 13 13 12 12 12 12 12 12 12 12 11 11 10 10 10 10 9 9
18 17 16 17 17 18 18 17 15 14 12 12 12 12 13 14 15 14 15 15 14 14 14 14 13 13 13 12 12 12 12 12 12 12 12 12 12 12 12 11 11 11 10 10 10 10 9 9 8
14 17 17 18 17 17 17 17 15 15 14 13 12 14 14 14 13 13 14 15 14 14 13 13 13 13 13 13 13 12 12 12 12 12 12 12 12 11 11 11 11 11 11 10 10 9 9 8 7
17 17 17 17 19 16 16 17 15 15 14 14 14 14 15 15 15 15 15 15 14 14 13 14 13 13 13 13 13 12 11 11 12 12 12 12 12 11 11 11 11 11 10 10 10 9 8 8 8
17 16 16 17 18 18 16 17 16 15 15 15 15 14 15 16 16 16 15 15 14 13 13 13 13 13 13 13 13 12 12 12 12 12 12 11 11 11 11 11 10 10 10 10 9 9 8 8 8
17 17 17 16 17 17 16 17 15 14 16 16 17 16 15 16 16 15 15 15 14 14 13 13 13 13 13 13 13 13 12 12 12 11 11 11 11 11 11 10 10 10 10 9 9 9 8 7 6
17 17 15 17 18 17 16 16 16 16 16 17 16 18 16 17 16 16 16 16 15 15 15 15 14 14 13 13 13 12 12 12 11 11 11 10 11 10 9 9 9 9 9 9 9 8 7 6 5
16 17 16 17 17 16 16 14 15 15 16 15 16 16 16 17 16 16 16 16 16 16 16 16 15 15 14 13 13 12 13 12 12 12 11 10 9 9 9 9 9 9 7 7 7 6 6 5 4
16 17 17 18 16 16 15 14 14 16 15 16 16 17 16 16 17 16 16 16 16 15 15 15 15 14 14 13 12 13 11 11 12 11 10 9 9 9 9 9 8 6 7 7 6 5 4 4 3
18 18 15 13 13 12 15 14 14 15 16 17 17 17 17 17 17 17 17 16 16 15 15 15 14 15 13 13 14 12 10 11 12 11 9 9 9 9 8 8 7 6 5 5 5 4 4 2 1
17 14 13 13 11 12 15 14 15 17 16 16 15 17 18 18 17 16 16 16 16 16 16 15 15 13 12 12 11 11 11 11 11 11 10 9 9 8 7 7 6 5 5 5 4 3 2 2 1
16 15 12 14 11 14 14 14 16 17 17 17 18 19 20 19 17 17 17 16 15 16 16 14 15 15 13 12 11 11 11 10 10 10 9 8 8 7 6 5 5 4 4 4 3 2 2 1 0
17 15 15 11 9 11 12 14 16 16 17 14 15 18 18 19 18 17 17 16 16 16 16 17 15 14 13 13 12 12 11 11 11 8 8 8 7 5 5 5 4 4 4 3 2 2 1 0 -0
17 16 15 11 14 14 13 14 14 17 18 16 12 16 17 18 18 17 16 16 16 17 16 16 15 14 13 12 12 12 12 11 10 9 9 8 7 6 5 4 2 3 3 2 2 1 1 -0 -1
16 16 14 13 10 11 10 13 13 16 17 17 16 16 17 17 17 18 18 17 17 17 16 15 14 13 13 12 12 12 11 10 9 8 8 8 7 6 5 4 3 3 2 2 1 1 0 -1 -1
17 17 14 10 14 7 7 11 15 14 14 16 19 19 19 18 19 19 18 17 17 17 16 15 14 13 13 12 11 10 10 9 9 8 8 7 6 5 4 3 3 2 2 2 1 1 -0 -1 -1

GFSSGP_850_temp_036.txt.gz
Temp
17 17 18 17 13 10 13 15 16 17 18 17 18 18 16 14 15 16 14 14 15 16 15 15 15 16 17 17 17 17 17 17 17 16 16 16 16 15 15 15 15 14 14 14 14 14 14 14 13
17 17 17 16 11 12 13 15 17 16 16 17 18 16 15 15 14 14 14 14 15 15 15 15 15 16 17 16 16 17 17 17 17 16 16 16 16 15 15 15 14 14 14 14 14 14 14 14 13
17 17 17 10 8 12 13 15 17 15 16 17 17 16 15 14 14 14 14 14 14 15 14 15 15 16 16 15 16 16 16 17 16 16 16 16 15 15 15 15 14 14 14 14 14 14 14 14 14
17 17 15 12 13 14 15 16 14 16 16 16 16 14 14 14 14 14 14 14 14 14 14 14 15 15 15 15 16 16 17 16 16 16 15 15 15 15 15 14 14 14 14 14 14 14 14 14 14
17 16 12 13 14 15 15 15 15 14 15 15 16 14 14 14 14 14 14 14 14 14 14 14 14 14 15 15 16 16 16 16 16 15 15 15 15 15 14 14 14 14 14 14 14 14 14 13 13
16 14 11 13 15 16 15 15 15 15 15 15 15 15 13 13 13 14 14 14 14 13 13 12 12 13 14 15 16 15 16 15 15 15 15 15 14 14 14 14 14 14 14 13 13 13 13 13 13
13 10 13 15 15 16 16 16 15 15 15 15 16 14 13 13 13 13 14 14 13 13 13 12 11 12 12 14 15 15 15 15 15 15 15 14 14 14 14 14 14 14 14 13 13 13 13 12 12
17 11 15 14 15 16 16 15 15 14 14 14 15 14 13 13 14 13 13 13 13 13 12 12 11 10 12 14 14 14 15 14 15 15 14 14 14 13 14 14 14 13 13 13 13 13 12 12 12
17 11 12 15 16 17 15 15 14 13 14 12 13 14 13 13 13 13 12 12 12 12 11 11 10 11 13 14 13 13 15 15 15 14 14 14 13 13 14 14 13 13 13 13 13 12 12 12 11
14 12 15 15 17 16 15 15 15 14 13 12 12 12 12 12 12 12 12 12 11 11 11 10 9 11 11 12 13 14 15 15 14 13 14 14 14 13 13 13 13 13 13 13 12 12 12 11 11
14 14 15 17 18 17 15 15 15 13 12 12 12 11 11 12 12 11 11 11 12 12 11 10 10 11 12 13 14 14 14 14 14 13 13 14 13 13 13 13 12 13 12 12 12 12 12 11 10
16 16 17 18 18 16 15 16 14 14 13 14 12 12 11 11 11 11 12 12 12 10 10 11 11 11 12 13 14 14 13 13 13 13 13 13 13 13 13 13 13 12 12 12 12 11 11 11 10
16 17 18 17 17 16 16 15 13 11 13 14 12 12 11 11 11 11 11 12 13 12 12 11 11 11 12 13 13 13 13 13 13 12 12 13 13 13 12 12 12 12 12 11 11 11 10 10 10
18 17 17 16 16 16 14 14 15 11 13 13 12 11 12 13 12 11 11 11 12 12 12 12 12 12 13 13 13 13 13 12 12 12 12 13 12 12 12 12 12 12 11 11 10 10 10 10 10
18 18 17 16 16 16 17 15 13 11 13 14 13 12 13 15 14 12 12 13 13 13 13 13 12 12 12 13 12 12 12 12 12 13 12 12 12 12 12 11 11 11 11 11 10 10 10 10 9
17 17 17 17 16 16 16 15 12 12 14 13 14 13 12 14 14 14 12 12 13 13 14 13 13 13 13 13 12 12 12 12 12 12 12 12 12 12 11 11 11 11 11 10 10 10 10 9 9
13 15 16 17 16 16 16 15 13 12 13 13 13 14 14 13 14 14 13 13 14 14 14 13 13 13 13 13 12 12 12 12 12 12 12 12 12 11 11 11 11 10 10 10 10 10 9 9 8
16 16 16 16 17 16 16 16 12 12 12 12 14 13 14 14 15 15 15 14 14 13 13 13 13 13 13 12 12 11 12 12 12 12 12 12 12 11 11 10 10 10 10 10 9 9 8 8 7
16 16 15 15 17 17 15 14 13 12 13 13 13 13 14 15 16 16 15 14 14 13 14 14 13 13 13 12 12 12 12 12 12 11 12 12 12 11 10 9 9 9 9 9 8 7 7 6 6
17 16 15 16 16 16 15 14 14 12 13 13 14 14 15 16 16 16 16 15 15 15 14 14 13 13 13 13 12 12 12 12 11 11 12 11 11 10 9 9 9 9 8 8 7 7 6 7 6
16 17 15 16 16 16 15 15 13 14 14 15 14 15 15 15 15 16 16 16 16 15 15 14 14 14 13 13 13 13 12 11 11 11 11 11 10 9 9 9 9 8 8 7 7 6 6 7 7
16 16 15 15 16 15 15 14 14 13 14 14 15 15 16 17 16 16 16 16 16 15 15 14 14 14 13 13 13 13 13 12 12 11 11 10 9 9 9 8 8 8 7 7 7 7 7 7 6
15 16 16 17 15 15 15 14 14 14 14 15 15 16 17 17 18 18 17 17 16 16 15 15 14 14 13 13 13 12 12 12 11 11 10 9 9 8 8 8 8 7 7 7 6 6 7 6 6
17 17 14 12 12 12 15 13 13 13 15 16 16 16 18 18 18 18 18 17 16 16 16 15 15 15 14 13 13 12 12 11 10 10 9 9 9 8 8 8 7 7 6 6 6 7 5 5 4
16 14 12 13 11 12 14 13 13 15 15 14 14 17 18 19 19 18 18 17 17 17 16 15 15 15 14 14 13 12 12 10 9 10 10 9 9 9 8 8 8 6 6 7 5 5 5 4 3
16 14 11 14 11 13 13 14 16 17 16 16 16 17 17 17 18 18 18 18 17 17 16 16 15 14 14 14 14 12 11 10 9 9 9 9 10 9 8 8 6 5 6 6 4 4 4 3 2
16 14 14 10 8 10 12 13 15 16 14 14 15 16 16 17 18 19 18 18 17 17 17 16 15 15 16 15 13 11 10 11 10 9 9 9 9 9 8 7 7 5 4 4 4 4 3 2 1
16 14 13 10 14 14 12 13 13 15 17 14 14 15 17 17 17 18 18 18 18 17 17 17 16 16 16 15 14 13 12 12 11 10 10 9 8 8 7 6 6 4 3 3 3 3 2 1 0
14 14 12 12 9 11 10 12 12 15 15 15 14 16 17 18 18 19 18 18 18 17 16 16 16 15 15 14 13 12 11 12 12 12 11 9 8 7 6 6 5 3 3 3 2 2 1 0 -0
14 14 12 9 13 7 7 10 14 13 13 15 17 19 18 17 17 17 17 17 17 18 17 16 16 16 15 15 13 12 12 12 11 10 10 9 8 7 6 5 4 3 2 2 1 1 0 -0 -1

GFSSGP_850_temp_039.txt.gz
Temp
17 17 17 17 19 17 18 19 18 19 19 16 16 18 18 15 18 19 14 14 14 14 15 15 15 16 16 16 16 17 17 17 17 17 16 16 16 16 16 15 15 15 15 15 15 14 14 14 14
17 17 17 16 18 18 20 17 19 17 17 16 16 15 16 16 14 13 14 14 14 14 14 14 15 15 16 16 16 17 17 17 17 17 16 16 16 16 15 15 15 15 15 15 15 14 14 14 13
17 17 17 17 16 19 19 18 18 16 15 16 16 14 15 15 14 14 14 14 14 14 14 14 15 15 15 16 16 17 17 17 16 16 15 16 15 15 14 15 15 15 15 15 14 14 14 14 13
16 16 15 18 18 17 18 18 16 16 16 16 16 16 14 14 14 14 14 14 14 14 14 14 15 15 15 16 16 16 16 16 16 15 15 15 15 14 14 14 14 14 14 14 14 14 14 13 13
16 16 17 16 16 17 17 16 15 16 16 16 15 16 14 13 14 14 14 14 13 14 13 13 14 14 15 16 16 16 16 15 15 15 15 15 15 14 14 14 14 14 14 14 14 14 13 13 13
16 14 17 17 17 18 17 15 16 16 16 15 16 15 13 13 14 15 14 13 13 14 13 12 12 12 15 16 16 16 16 15 15 15 15 14 14 14 14 14 14 14 14 13 13 13 13 12 12
16 16 17 16 17 18 17 15 16 16 16 16 15 15 13 13 14 15 14 14 14 13 13 12 12 10 13 15 15 15 14 15 14 14 14 14 14 14 14 13 13 13 13 13 13 13 12 12 12
16 16 16 16 17 18 16 15 14 15 15 14 14 15 13 12 13 14 13 13 13 13 12 12 11 11 10 13 14 15 15 15 14 15 14 14 14 14 13 13 13 13 13 13 12 12 12 12 12
16 17 17 17 17 19 15 16 14 14 13 13 13 13 13 12 12 13 13 13 12 12 12 11 10 9 10 12 14 14 15 14 14 14 14 14 14 14 13 13 13 13 12 12 12 12 12 11 11
17 16 17 18 18 18 16 16 15 14 14 13 12 12 12 12 12 12 12 12 11 11 11 11 10 7 9 12 14 13 13 13 14 14 14 14 13 13 13 13 13 12 12 12 12 12 12 11 11
15 18 17 18 17 17 15 15 15 15 15 14 13 12 12 12 12 12 11 12 11 10 10 10 10 9 11 12 12 13 12 13 14 14 14 13 13 13 13 13 13 12 12 12 12 11 11 11 11
16 17 17 17 17 15 15 15 14 14 13 13 11 12 12 12 12 11 11 11 10 9 9 9 10 10 10 11 12 12 12 14 14 13 14 13 13 13 13 13 12 12 12 12 11 11 11 10 10
16 18 17 16 16 16 15 15 14 12 11 12 11 11 11 11 11 10 11 10 10 10 9 9 10 10 10 11 11 12 13 14 13 13 13 13 13 13 12 12 12 12 12 11 11 11 11 10 10
17 17 16 15 16 16 16 14 14 12 12 12 11 11 11 11 10 10 10 10 10 11 11 11 10 11 11 12 12 13 13 13 13 13 13 13 12 12 12 12 12 12 11 11 11 10 10 10 10
17 18 17 16 16 17 16 17 15 12 11 11 11 11 11 11 11 11 12 12 9 11 11 12 11 11 11 12 12 13 13 13 13 12 12 12 12 12 12 12 12 11 11 11 10 10 10 10 9
17 17 18 17 17 16 18 17 14 12 12 12 11 11 11 11 11 11 11 12 12 12 12 12 11 11 12 12 13 13 12 12 12 12 12 12 12 12 12 11 11 11 11 10 10 10 9 9 9
16 18 17 18 17 16 17 17 15 12 12 13 12 12 13 12 12 13 13 12 12 12 12 12 12 12 13 12 13 12 12 12 11 12 12 12 13 12 11 11 11 10 10 10 10 9 9 9 9
17 17 17 18 18 17 16 17 14 12 13 14 13 13 13 14 13 14 14 13 13 13 12 12 12 13 12 12 12 12 12 12 12 12 12 12 12 12 11 11 10 10 10 10 9 9 9 8 8
17 17 17 17 18 17 18 17 15 13 12 13 13 13 14 15 16 14 14 14 14 14 13 13 12 13 12 12 13 12 12 12 12 12 12 12 12 11 11 10 10 9 9 9 8 8 8 8 7
17 17 17 17 17 17 17 17 16 14 14 14 14 13 14 15 15 15 15 14 14 14 14 13 13 13 13 13 13 12 12 12 12 12 12 11 11 11 10 10 9 9 9 8 8 8 8 7 6
17 17 16 17 16 16 16 18 16 15 14 14 14 14 15 15 15 15 15 15 15 15 14 14 13 13 13 13 13 12 12 12 12 12 11 11 11 11 10 9 9 9 9 8 8 7 7 6 5
17 17 16 16 17 18 15 18 16 16 16 15 15 14 16 16 17 17 16 16 15 15 15 14 14 14 13 13 13 13 12 12 12 12 11 11 11 10 9 9 9 8 8 7 7 6 6 5 5
18 16 16 17 16 16 16 18 18 15 16 17 16 15 16 17 17 17 17 17 17 16 16 15 14 14 14 14 13 13 12 12 12 11 11 10 10 10 9 9 8 8 8 7 6 6 5 6 6
16 16 15 14 15 16 15 17 18 17 18 18 17 17 17 17 18 17 17 17 17 17 16 16 15 14 14 14 14 13 12 12 11 11 10 10 10 9 9 8 8 8 7 6 6 6 7 6 5
16 16 16 16 15 16 15 15 18 18 16 17 18 17 17 18 18 19 18 18 17 17 17 16 15 15 15 14 14 13 13 12 11 11 10 10 10 9 9 8 8 7 6 6 6 6 6 5 4
16 17 16 15 15 16 14 16 20 18 17 15 15 16 16 16 18 19 19 19 19 18 18 17 15 16 14 13 14 14 13 12 11 10 10 10 9 9 8 8 7 6 6 6 6 6 5 4 4
16 16 15 13 10 14 15 16 18 17 17 16 15 16 17 17 17 18 18 19 19 18 18 18 17 15 15 14 15 14 13 13 12 10 10 9 9 9 8 7 6 6 6 6 5 4 4 3 3
16 15 16 14 14 14 15 15 18 18 18 17 17 17 18 19 18 18 18 17 17 17 16 16 16 16 15 15 15 14 14 13 10 10 10 9 8 8 8 7 6 5 5 5 4 3 2 2 2
15 16 13 15 13 15 15 17 16 18 18 17 16 17 18 19 19 19 19 18 17 16 16 16 15 15 16 16 15 14 14 13 12 12 11 10 9 8 7 6 5 5 3 3 2 2 1 0 1
15 16 15 15 14 11 12 15 16 16 16 15 16 17 17 18 19 19 19 19 18 18 17 17 17 16 16 15 15 14 14 13 13 12 11 9 8 7 6 5 5 3 2 2 1 1 0 0 0

GFSSGP_850_temp_042.txt.gz
Temp
17 17 17 18 22 22 23 23 25 24 24 21 20 22 22 19 21 21 14 15 15 14 14 16 16 16 16 16 16 16 16 16 16 16 16 16 16 16 16 16 15 15 15 14 14 14 14 14 13
17 17 17 20 21 22 23 24 24 24 22 20 19 19 22 20 15 14 14 15 14 14 13 13 16 16 16 16 16 16 16 16 16 16 16 16 16 16 16 15 15 15 15 14 14 14 14 13 13
17 17 20 22 22 22 23 23 23 22 20 21 21 19 18 18 15 14 14 15 14 14 14 13 15 16 16 16 16 16 16 16 16 16 16 16 16 16 15 15 15 15 14 14 14 14 14 13 13
17 18 19 21 22 23 23 23 22 22 20 20 21 21 17 15 15 15 14 15 14 14 14 15 15 15 15 16 16 16 16 16 16 16 16 16 15 15 15 15 15 14 14 14 14 14 13 13 13
17 19 22 21 22 22 23 22 21 22 21 20 20 20 18 14 15 14 15 15 14 14 13 15 15 15 15 15 16 16 16 16 16 15 15 15 15 15 15 15 14 14 14 14 14 13 13 13 12
20 20 21 21 22 23 23 21 20 20 20 19 20 20 16 13 14 14 14 14 14 14 13 12 13 14 14 15 15 15 15 16 15 15 15 15 15 15 14 14 14 14 14 13 13 13 12 12 12
20 21 22 21 21 22 22 19 20 20 21 20 18 20 14 13 14 14 14 14 14 13 13 12 11 11 12 13 14 15 15 15 15 15 14 15 14 14 14 14 14 13 13 13 13 13 12 12 12
19 21 21 22 21 22 21 19 18 19 20 16 16 20 15 13 13 13 14 13 13 13 12 11 11 11 12 12 14 14 14 15 15 14 14 14 14 13 14 13 13 13 13 13 12 12 12 12 11
18 21 21 21 22 22 20 20 17 16 18 17 15 16 14 13 13 13 13 13 13 13 12 11 10 10 10 10 12 14 14 14 14 13 14 14 12 12 12 13 13 13 12 12 12 12 11 11 11
20 21 22 23 23 22 21 20 19 18 18 18 14 12 12 13 12 13 13 12 12 12 11 10 10 9 8 11 11 11 12 13 13 13 13 12 11 12 12 13 12 12 12 12 12 12 11 11 10
21 22 22 22 21 20 20 20 18 19 20 19 16 12 12 12 11 12 11 11 11 10 9 9 8 8 8 9 11 12 13 14 13 13 12 12 12 13 11 12 12 12 12 12 12 11 11 11 10
20 22 21 21 19 19 19 17 18 18 16 15 13 12 11 11 11 11 11 11 11 10 9 9 9 9 8 8 9 12 12 12 13 12 11 13 12 13 12 11 11 12 11 12 12 11 11 11 10
20 22 21 19 19 19 18 19 17 15 13 13 12 12 11 11 11 10 10 9 9 9 8 7 7 8 9 8 10 11 12 13 13 11 13 12 12 13 12 12 11 12 12 11 11 11 11 10 11
20 20 20 18 19 19 20 19 18 15 14 14 13 12 11 11 10 10 10 9 8 8 8 8 8 8 8 9 10 11 13 13 11 11 13 13 13 13 12 12 12 12 11 11 11 10 9 9 10
20 21 21 20 20 21 19 20 19 16 15 14 14 13 11 11 10 11 9 9 9 8 9 8 9 9 10 10 11 11 11 10 11 13 13 13 13 13 12 12 12 12 11 11 11 10 10 10 10
21 22 21 22 20 20 20 21 19 16 16 16 15 14 12 10 11 11 10 10 10 10 9 9 9 10 11 11 11 10 10 10 11 11 13 12 12 12 12 12 11 11 11 11 10 9 9 9 9
22 22 21 22 21 21 21 21 20 16 17 17 16 15 14 11 11 12 11 11 11 11 10 10 11 11 11 10 12 12 12 12 11 12 12 12 12 12 12 12 11 11 11 10 10 10 9 8 8
21 21 22 21 22 21 22 21 21 18 17 18 17 16 15 13 12 12 12 12 11 12 11 10 11 10 11 11 11 10 11 11 10 11 12 12 12 12 12 11 11 11 10 10 9 9 9 8 8
21 22 22 22 22 21 22 22 22 19 17 18 18 17 16 16 14 13 13 13 12 12 11 11 10 10 11 11 10 11 11 11 10 12 12 12 12 12 12 11 11 10 10 9 9 9 9 7 8
21 21 21 21 21 21 23 22 23 21 19 18 19 18 18 17 16 14 13 13 12 12 12 11 11 11 11 11 11 11 11 11 10 10 11 12 12 12 12 11 10 10 9 9 9 9 8 7 8
21 21 20 21 21 21 20 21 21 21 19 18 18 19 18 18 17 15 14 14 13 13 12 12 12 12 11 11 11 11 11 11 10 12 12 12 12 11 11 11 10 10 9 9 9 9 8 7 6
20 21 20 20 20 21 20 21 22 22 21 20 19 19 19 18 17 17 16 15 14 13 13 12 12 12 12 11 12 11 12 12 11 11 12 12 12 11 11 11 10 9 9 9 9 9 8 7 6
21 20 20 20 21 20 21 21 22 21 22 22 21 20 20 20 19 18 17 16 15 14 13 12 12 12 12 11 11 11 11 12 12 10 11 12 11 11 10 10 9 9 9 9 8 8 8 7 6
20 20 20 20 21 19 21 21 22 23 23 24 23 22 20 20 19 19 18 17 16 15 14 13 13 12 12 11 13 12 12 11 11 12 12 11 11 10 10 9 9 8 8 8 8 7 7 7 6
20 20 19 19 19 19 20 20 22 23 23 22 23 22 21 20 20 19 19 18 17 16 14 15 15 14 13 14 13 13 13 13 12 12 12 12 11 10 10 9 8 8 8 7 7 6 6 6 5
20 21 19 17 18 20 18 20 22 23 22 21 20 20 19 20 20 20 19 19 18 17 15 14 16 15 15 14 14 13 13 13 12 10 9 10 10 10 9 9 8 8 7 7 6 5 5 4 4
20 19 20 18 16 18 20 21 23 22 22 21 21 20 20 19 20 20 19 19 18 17 15 14 13 13 13 15 13 15 14 13 12 10 10 10 10 9 9 8 8 8 7 5 5 5 3 3 2
20 20 19 19 17 17 20 20 21 22 22 22 22 22 21 19 18 18 18 18 17 16 15 13 13 13 12 14 13 14 14 14 13 11 11 10 9 9 9 8 8 7 6 5 5 4 1 1 1
19 19 19 20 19 18 18 20 22 22 22 22 22 21 21 21 19 18 17 16 15 15 14 13 13 13 13 12 13 14 14 13 13 13 12 12 11 10 9 8 7 7 6 4 3 1 0 -0 1
21 21 20 18 18 18 17 19 23 23 22 21 21 20 19 19 19 18 17 16 16 16 14 13 13 13 12 12 11 13 13 13 13 13 12 11 10 9 8 8 7 6 4 3 2 0 -0 1 -0

GFSSGP_850_temp_045.txt.gz
Temp
18 18 18 20 23 24 24 26 28 26 26 26 25 25 25 24 24 16 15 16 18 16 15 16 15 15 16 16 16 16 16 16 16 17 17 16 16 16 15 15 15 14 14 14 14 14 14 14 14
18 19 19 22 23 23 25 27 26 27 25 23 23 23 25 24 20 15 15 17 15 15 14 15 14 14 15 15 15 15 16 16 17 17 16 16 16 15 15 15 14 14 14 14 14 14 14 14 13
17 19 21 24 24 24 25 26 26 26 24 24 25 23 24 22 19 17 15 16 15 15 14 14 14 15 15 15 15 15 16 16 16 16 16 15 15 15 15 14 14 14 14 14 14 14 13 13 13
19 20 22 23 23 25 25 26 26 25 25 24 24 25 20 17 17 17 16 16 18 15 14 14 14 15 15 15 15 16 16 16 16 16 16 15 15 15 15 15 14 14 14 14 13 13 13 13 13
20 22 23 24 24 25 25 26 25 24 24 24 24 25 22 15 15 16 16 15 15 14 14 14 15 15 15 15 15 16 16 16 15 15 15 15 15 15 15 15 14 14 14 13 13 13 13 13 13
22 23 23 23 25 25 25 24 24 24 24 23 23 24 17 15 14 15 15 15 15 14 13 13 14 14 15 15 15 16 15 15 15 15 15 14 15 15 14 14 14 14 14 13 13 13 13 13 13
22 24 23 24 24 23 24 23 23 24 24 24 22 23 17 14 14 15 15 15 14 13 13 12 12 13 14 15 15 15 14 14 15 15 15 15 15 14 14 14 14 14 13 13 13 13 12 12 12
22 24 24 24 22 20 23 23 22 22 22 20 20 22 19 14 14 14 14 14 13 13 12 12 10 11 13 14 14 14 14 14 14 15 15 14 14 14 14 14 13 13 13 13 13 12 12 12 12
22 23 23 24 24 24 24 23 22 21 21 20 19 17 14 15 13 14 14 14 13 12 12 12 13 10 11 12 14 13 13 14 14 14 14 14 14 13 12 13 13 13 13 13 12 12 12 12 12
23 24 24 25 25 24 24 23 23 21 23 22 16 13 12 13 12 13 13 13 12 12 11 11 12 10 9 10 11 11 12 13 13 14 13 13 14 12 12 13 13 13 12 12 12 12 11 12 12
24 23 25 25 23 22 23 22 21 22 20 10 19 12 12 12 12 12 12 12 11 11 12 10 9 10 9 10 9 11 11 10 13 12 12 13 12 12 12 13 12 12 12 12 12 11 11 11 12
23 24 24 24 23 22 23 20 21 21 18 17 15 12 12 12 11 12 12 11 11 10 10 9 8 8 8 8 9 10 11 12 11 12 12 12 11 12 11 11 11 11 11 11 11 11 11 11 11
23 24 23 22 22 22 21 22 20 18 16 14 12 12 11 11 10 11 11 10 9 9 9 8 7 7 8 8 8 9 11 12 11 11 11 11 12 12 12 12 12 12 11 11 11 11 10 11 11
23 23 23 22 22 22 22 22 21 18 17 15 14 11 12 11 10 9 10 9 8 9 8 8 7 7 7 7 9 11 11 11 11 11 11 11 12 11 12 11 12 11 11 11 11 10 10 10 9
23 23 24 22 23 23 22 15 22 19 17 17 16 13 12 10 11 10 9 9 8 7 7 7 8 8 7 9 10 10 10 10 10 11 11 11 11 11 12 12 11 11 11 11 11 10 10 10 10
23 24 20 24 24 23 18 11 22 19 18 18 18 15 13 12 10 11 10 9 8 9 9 8 7 7 8 9 10 10 11 11 11 11 11 11 11 11 11 11 11 11 11 10 10 10 10 10 10
24 22 21 21 24 22 23 16 22 20 20 19 18 17 14 14 11 10 10 10 10 8 8 8 9 9 10 10 10 11 11 11 12 12 12 11 11 11 12 11 11 12 10 10 10 10 10 10 10
23 23 24 22 15 24 23 22 23 21 21 20 19 18 15 15 13 12 12 12 12 11 9 9 9 9 10 11 11 11 11 11 12 12 12 11 11 12 12 11 10 11 10 10 9 9 9 10 10
24 24 23 22 25 23 23 24 21 22 21 21 20 18 17 15 13 13 13 12 12 12 12 12 10 10 11 11 12 12 12 12 12 12 12 12 11 12 12 11 10 11 10 9 9 8 9 9 9
23 23 23 24 24 23 24 23 25 24 23 22 21 20 19 18 16 14 14 15 13 14 13 12 11 11 11 11 12 12 12 12 13 12 11 11 10 10 11 11 10 10 10 9 8 8 8 9 8
22 23 22 23 23 24 24 23 24 25 23 22 21 21 20 19 18 16 15 16 15 15 14 13 13 13 12 13 13 13 13 13 12 12 12 11 10 11 10 10 10 9 9 8 8 9 9 9 7
22 24 23 22 22 21 23 19 19 24 24 23 22 22 21 20 19 18 16 16 15 15 15 14 14 14 13 13 13 13 13 13 13 13 11 10 11 10 10 9 9 9 8 8 8 8 8 8 8
22 23 22 22 22 23 23 23 22 25 24 24 23 22 22 21 20 19 18 17 16 15 15 14 14 14 14 13 13 14 13 14 14 13 12 11 10 10 9 9 9 9 8 8 7 7 8 7 8
23 22 22 22 22 20 23 23 20 24 24 25 25 23 22 22 21 20 19 18 17 17 15 15 14 14 14 14 13 13 13 13 13 13 12 11 10 9 9 9 10 10 9 8 8 7 7 8 7
22 21 20 20 20 20 21 22 23 19 25 25 25 25 24 22 22 21 20 20 19 17 16 15 15 15 14 14 13 12 13 13 13 12 11 11 10 9 9 10 10 10 9 8 7 7 7 7 6
21 22 20 15 19 21 22 21 23 25 24 24 24 24 23 23 22 22 22 21 20 19 17 16 15 15 15 13 13 13 13 14 13 13 12 11 12 10 9 9 10 9 8 7 7 7 6 6 6
22 21 23 19 21 20 22 24 25 25 24 24 24 23 23 23 23 22 22 22 21 20 19 17 15 15 15 13 12 13 13 14 13 14 12 12 10 9 9 9 9 8 7 6 7 6 5 5 4
22 23 20 21 18 18 22 22 23 23 24 24 24 24 23 22 22 22 22 22 21 21 20 18 16 15 14 13 12 13 13 13 13 13 12 10 10 9 10 9 9 8 7 6 6 5 5 4 2
21 21 21 22 21 18 19 22 23 24 24 24 24 23 23 23 22 21 20 21 20 20 19 18 16 16 14 12 12 11 12 12 12 12 10 10 9 9 9 9 7 6 6 6 4 4 3 2 1
23 22 22 20 20 20 19 20 24 24 24 24 23 23 23 22 22 21 20 19 18 18 18 17 16 15 16 14 13 12 10 10 11 10 10 10 9 8 8 8 8 6 6 4 4 3 1 1 0

GFSSGP_850_temp_048.txt.gz
Temp
19 19 19 19 21 22 22 24 26 26 25 20 20 16 14 18 19 20 16 20 17 13 15 15 15 15 16 16 16 16 16 16 17 17 17 16 16 16 15 15 14 14 14 14 14 14 14 14 14
19 18 20 21 21 21 23 26 26 26 22 24 22 18 18 18 19 17 15 16 18 16 16 15 15 15 15 15 16 16 16 16 17 17 16 16 16 15 15 15 14 14 14 14 14 14 14 14 13
19 19 21 22 22 22 24 25 26 26 25 24 23 23 22 13 14 17 15 15 16 16 17 15 15 14 15 15 16 16 16 16 16 16 16 16 15 15 15 14 14 14 14 14 14 13 13 13 13
19 20 21 22 22 24 25 25 26 26 26 25 23 26 20 16 16 18 17 15 17 17 18 17 15 14 14 15 15 15 16 16 16 16 16 15 15 15 14 14 14 14 14 14 13 13 13 13 13
20 22 22 23 23 25 27 26 26 25 25 20 21 22 17 15 16 16 16 15 15 16 15 15 16 14 14 15 15 15 15 16 16 15 15 15 15 14 14 14 14 14 14 13 13 13 13 13 13
21 23 22 22 24 25 22 18 20 25 25 20 17 15 12 16 15 16 15 14 14 14 14 14 13 14 14 14 14 15 15 15 15 15 15 15 14 14 14 14 14 14 13 13 13 13 13 13 13
22 23 23 24 23 23 19 19 15 19 19 14 14 15 14 13 15 14 15 14 14 14 13 13 13 13 13 13 14 15 15 15 15 15 15 14 14 14 14 14 14 14 13 13 13 13 12 13 13
23 23 23 24 23 21 23 21 21 23 16 18 16 19 15 13 14 15 14 13 13 13 13 13 12 12 11 12 12 13 14 15 15 14 14 14 14 14 14 14 14 13 13 13 12 12 12 12 13
22 22 22 23 22 23 24 24 23 18 21 14 13 13 14 13 14 15 14 13 13 13 13 12 12 12 13 11 12 12 13 14 13 13 14 13 13 13 14 13 13 13 13 12 12 12 12 12 12
24 23 23 25 25 24 24 24 19 13 18 13 16 15 12 13 12 12 13 13 13 13 11 11 11 11 12 13 10 11 12 12 13 13 13 13 13 13 13 13 13 12 12 12 12 12 12 12 12
24 23 24 25 24 24 24 23 22 22 17 14 13 13 12 12 12 12 12 12 12 12 11 11 11 11 11 11 9 10 11 13 12 12 13 13 13 13 13 13 12 12 12 12 12 12 11 11 12
23 25 25 25 24 23 24 22 22 20 15 14 12 12 12 11 11 11 11 11 11 11 11 10 10 9 10 9 9 10 10 12 12 11 12 12 12 13 12 12 12 12 12 12 11 11 11 12 12
24 25 24 24 23 23 23 19 16 18 14 13 12 12 11 11 11 11 11 11 11 10 10 10 8 8 8 9 8 8 11 11 11 12 11 12 13 12 12 12 12 12 12 11 11 11 11 11 11
24 24 24 24 24 23 15 12 12 17 17 14 13 11 11 11 11 10 10 9 9 9 9 8 8 7 8 7 8 8 9 10 11 12 12 12 12 12 12 12 12 12 12 11 11 11 11 10 11
24 23 24 24 24 23 19 16 14 17 18 17 14 12 10 10 10 10 9 9 9 8 8 8 7 8 7 8 8 8 9 10 11 11 11 12 12 12 12 12 12 12 11 11 11 11 10 10 10
23 23 22 24 23 19 19 15 16 17 19 19 15 13 11 11 10 9 9 9 8 8 7 7 7 8 8 8 8 9 10 12 11 10 11 11 12 12 12 12 12 11 11 11 11 11 10 10 10
23 22 23 23 23 22 17 12 13 15 20 20 17 15 13 11 11 10 9 9 9 8 9 9 9 8 7 8 8 10 11 11 12 12 12 11 12 11 12 11 11 11 11 11 10 10 10 10 10
22 23 24 22 22 22 22 16 14 14 21 20 19 16 14 13 12 11 10 10 9 10 9 9 9 9 9 9 10 11 10 11 11 11 11 11 12 12 12 11 11 12 11 10 10 10 10 10 10
24 23 23 23 23 22 23 23 16 15 18 21 19 17 16 14 12 11 11 11 10 11 10 10 10 10 9 9 10 10 11 11 11 12 12 12 12 12 12 11 10 12 11 10 10 10 9 10 10
23 23 23 25 24 24 24 24 19 15 18 21 20 18 16 15 13 13 12 11 11 11 11 10 10 10 9 10 10 11 11 11 12 12 12 12 12 12 12 11 11 12 11 10 10 10 9 9 9
23 23 23 22 24 24 24 23 23 23 23 22 21 20 18 16 14 13 13 13 12 12 12 12 11 10 10 11 11 11 12 12 12 12 12 12 12 11 11 11 11 10 11 10 10 10 9 9 9
22 24 24 23 22 21 23 20 23 23 21 23 22 21 20 19 15 14 13 13 13 13 13 12 12 12 11 12 12 13 12 13 13 13 12 12 12 12 11 11 10 10 10 9 9 9 9 8 8
22 23 23 23 22 22 22 21 23 24 22 23 23 22 21 20 19 16 15 15 14 14 14 14 13 13 13 13 12 13 13 13 13 13 13 13 12 11 10 10 10 10 9 9 9 9 8 8 8
24 23 22 22 22 20 22 23 20 20 20 23 24 23 22 21 20 19 17 16 16 16 15 14 14 14 14 14 14 13 13 13 13 13 13 13 12 12 11 11 10 9 9 9 8 8 8 7 8
23 21 19 19 19 19 23 22 22 22 22 24 25 24 23 22 21 20 19 17 17 16 16 15 15 14 14 14 14 14 13 13 14 13 13 13 11 10 11 11 10 9 9 8 7 7 7 7 7
21 21 19 16 15 18 20 21 23 24 25 25 25 25 24 23 22 21 20 19 18 17 16 15 15 15 14 14 14 14 15 14 14 13 13 13 13 11 9 10 9 9 9 8 7 7 7 6 6
22 20 22 17 17 17 19 20 23 25 25 25 24 24 24 24 23 22 21 20 19 18 18 17 15 15 14 14 14 14 15 14 12 13 13 13 12 11 10 9 9 9 9 8 7 7 6 6 4
22 23 20 21 17 17 21 22 22 23 24 24 24 24 24 23 23 23 22 22 21 19 19 18 17 16 15 15 14 14 14 13 12 12 12 12 12 11 10 9 9 9 8 7 7 7 6 5 4
21 21 20 21 21 18 18 20 18 22 24 24 24 24 23 23 22 22 22 23 22 21 20 19 18 16 16 15 15 14 14 13 12 12 11 11 10 9 9 9 9 8 8 7 6 6 5 3 3
23 22 22 19 19 19 17 19 24 23 24 25 24 24 23 23 23 21 21 21 21 21 21 19 18 17 16 16 15 15 13 12 11 10 10 10 10 9 9 8 8 8 8 6 5 4 3 3 3

GFSSGP_850_temp_051.txt.gz
Temp
19 19 18 18 14 13 14 17 19 20 22 20 21 22 18 18 18 17 18 16 19 18 19 15 15 16 16 17 17 17 17 16 17 17 16 16 16 15 14 14 14 15 14 14 15 14 14 13 13
19 19 17 18 14 13 16 19 20 21 22 21 22 21 18 17 16 16 17 19 19 18 19 18 14 15 16 16 16 16 16 16 17 17 16 16 16 15 14 14 15 14 14 14 14 14 14 13 13
19 18 18 14 13 15 16 20 22 22 24 23 22 21 18 13 16 15 18 19 18 18 15 16 15 15 15 15 16 16 16 16 16 16 16 16 15 15 15 15 14 14 14 14 14 14 13 13 13
19 19 19 16 15 17 19 17 17 22 24 20 20 18 15 14 16 16 15 18 17 15 15 14 16 15 15 16 15 15 16 16 16 16 16 16 15 15 15 14 14 14 14 14 14 14 13 13 13
18 18 14 15 16 20 18 19 21 20 21 16 19 14 14 16 14 14 16 16 14 14 15 15 15 15 14 13 14 15 15 16 16 16 16 15 15 14 14 14 14 14 14 14 14 14 13 13 13
18 19 14 16 18 21 20 19 21 20 17 16 15 14 14 16 16 14 15 15 14 15 14 15 14 14 14 14 13 14 15 15 15 15 15 15 14 14 14 14 14 14 14 13 13 13 14 13 13
17 15 15 16 19 21 20 21 20 19 14 12 14 15 14 14 15 15 14 15 15 15 14 13 14 13 12 13 12 14 15 15 15 15 15 15 14 14 14 14 14 14 13 13 13 13 13 13 13
20 15 16 18 20 21 22 22 20 17 13 14 14 12 12 14 13 15 14 15 14 13 13 13 13 13 13 11 12 14 14 15 15 14 14 14 14 14 14 14 13 13 13 13 13 13 13 13 12
20 16 16 18 20 22 23 21 19 17 15 14 16 15 15 15 12 14 14 14 13 13 13 13 13 13 11 12 12 13 13 14 14 14 14 14 13 13 13 13 13 13 13 12 12 12 12 12 12
18 15 17 21 22 20 22 21 18 16 16 14 13 13 12 13 12 14 14 14 13 13 13 12 12 12 13 13 13 13 13 13 13 13 13 13 13 13 13 13 13 13 12 12 12 12 11 11 11
20 17 20 22 23 23 21 16 15 14 14 14 13 12 12 12 11 13 14 13 12 12 12 12 12 11 12 12 13 13 13 12 13 13 12 13 13 13 13 13 13 12 12 12 12 11 11 11 11
20 22 23 23 23 23 16 16 13 13 15 13 13 12 11 12 12 12 12 12 12 12 11 11 11 11 11 12 12 12 12 12 12 12 12 13 13 13 12 13 12 12 12 12 11 11 11 11 11
21 22 23 24 23 18 18 14 13 14 13 12 12 12 11 11 11 11 11 12 12 11 11 10 10 10 11 11 11 12 12 12 12 12 11 13 12 13 13 13 12 12 12 11 11 11 11 11 12
22 22 22 23 21 19 16 13 17 13 14 12 12 12 11 11 10 10 11 11 11 10 10 10 9 10 10 9 10 10 11 12 11 11 12 12 12 13 13 12 12 12 12 11 11 11 11 11 11
21 19 20 21 22 16 16 15 15 15 15 13 12 11 10 10 9 9 9 10 10 9 8 9 10 9 8 9 9 9 10 10 11 11 12 12 12 12 12 12 12 12 11 11 11 11 11 11 10
19 19 18 20 20 18 19 15 17 18 16 13 12 12 10 10 9 9 9 9 9 9 8 8 8 8 9 9 10 9 9 10 11 10 12 12 12 12 12 12 12 12 11 11 11 11 10 10 10
17 16 18 20 19 17 16 13 17 16 17 14 13 12 11 10 9 10 9 9 8 8 8 8 8 8 9 9 9 9 9 10 12 12 12 12 12 11 12 12 12 12 12 11 11 11 11 10 10
16 18 19 19 20 18 14 14 15 18 15 15 14 13 11 11 10 10 9 8 8 8 8 7 8 8 8 9 9 9 10 11 11 11 11 12 12 12 12 11 12 11 11 11 11 11 10 10 10
19 19 19 21 21 20 15 15 14 14 13 15 14 13 12 11 11 10 9 9 8 8 8 8 8 8 8 9 8 9 10 11 11 11 12 12 12 12 12 12 11 11 12 11 11 10 10 10 10
20 20 19 22 22 19 15 15 14 14 13 16 15 13 13 12 11 11 10 10 9 9 9 8 8 8 9 8 10 10 11 11 11 12 12 11 11 12 11 12 12 12 12 11 10 10 10 10 10
20 19 19 21 21 20 20 14 14 15 17 17 16 15 14 13 12 11 11 12 11 11 11 11 10 9 10 11 10 11 10 11 11 11 11 12 12 12 11 12 12 11 12 11 10 10 10 10 10
18 20 21 20 20 17 20 16 16 17 16 15 17 15 15 13 13 12 12 12 12 12 12 12 11 11 11 11 11 10 10 10 11 12 12 12 12 12 12 12 12 11 11 11 10 10 10 9 9
19 21 21 20 18 17 18 16 18 18 15 14 17 16 15 14 14 12 13 13 13 13 12 12 12 11 11 10 11 11 11 12 12 12 12 12 12 12 11 11 11 11 10 10 9 10 9 9 9
21 21 20 20 17 14 18 17 17 18 18 18 19 18 16 15 14 14 15 14 13 13 13 13 12 12 12 12 12 11 12 12 12 13 13 13 12 11 12 11 11 11 10 10 9 9 9 8 8
20 19 15 13 13 13 18 18 16 18 19 20 20 19 18 17 16 15 14 14 14 13 13 13 13 13 13 13 13 13 12 13 13 13 13 13 12 12 13 11 10 12 11 10 9 9 8 8 7
18 17 13 14 11 14 17 17 18 20 20 22 22 21 20 18 17 17 16 16 15 15 14 13 14 13 13 13 13 13 14 14 13 13 13 13 12 13 13 13 11 11 10 10 9 9 8 7 7
18 17 18 15 14 13 15 18 20 21 21 23 23 23 21 19 19 18 18 17 17 16 15 15 14 14 14 13 13 14 14 14 14 13 13 13 13 13 12 12 12 10 9 10 9 8 8 7 7
20 19 17 15 13 12 16 17 17 18 20 21 22 22 22 21 20 20 19 19 18 18 17 16 16 15 15 14 14 14 14 14 13 13 13 13 13 12 12 12 11 10 9 9 8 8 7 6 6
18 18 18 17 14 13 14 15 16 19 21 20 19 23 23 23 22 21 20 18 19 18 17 16 15 14 15 15 15 14 14 14 14 14 13 12 11 12 12 11 10 9 9 8 8 7 7 5 5
20 18 18 13 16 14 10 14 19 18 19 20 21 23 23 22 22 22 21 20 19 18 16 16 17 15 15 15 14 14 14 14 13 13 13 12 11 11 11 9 9 9 8 8 8 7 6 4 4

GFSSGP_850_temp_054.txt.gz
Temp
18 18 18 18 13 11 12 15 17 17 19 21 22 19 18 15 16 16 15 15 15 15 17 17 14 14 17 16 16 16 16 17 17 17 16 16 16 16 16 15 15 15 14 14 13 13 12 12 12
18 18 18 17 12 12 12 15 18 19 21 21 19 19 17 14 15 15 15 15 15 15 15 16 17 15 14 16 16 16 16 17 16 16 16 17 16 16 15 15 15 15 14 14 13 13 12 12 12
18 18 18 12 10 12 13 17 18 19 20 20 20 18 15 14 15 15 15 15 16 16 15 16 15 15 15 15 16 15 16 16 16 16 16 17 16 15 15 15 15 14 14 14 13 12 12 12 13
18 18 17 14 14 15 17 18 18 19 20 18 18 15 14 13 13 15 15 16 16 16 15 15 16 16 15 14 16 15 15 16 15 15 15 15 15 15 15 15 15 14 14 14 13 13 12 12 12
18 17 13 13 14 15 18 19 19 16 16 15 17 15 14 14 15 15 13 15 17 16 15 15 16 15 13 12 12 14 15 15 15 15 15 15 15 15 15 15 14 14 14 13 13 13 12 13 13
17 15 12 12 15 17 19 20 17 15 15 16 15 14 15 16 16 15 16 14 15 17 15 15 14 13 13 13 12 11 15 15 15 15 15 15 15 15 15 14 14 14 14 14 13 13 12 12 12
15 12 13 14 16 17 20 19 16 14 14 14 15 14 15 15 16 16 15 14 14 14 14 13 13 13 13 12 12 11 13 14 15 14 14 15 14 14 14 14 14 14 14 14 13 13 12 12 11
18 13 14 14 16 18 21 19 17 16 14 14 14 14 14 14 13 15 14 14 13 13 13 13 13 13 13 12 12 12 13 14 14 14 14 14 14 14 14 14 13 13 13 13 13 13 13 12 12
19 14 12 14 19 20 19 19 16 15 15 14 14 13 13 13 13 14 14 14 13 13 13 12 12 13 12 12 12 10 13 13 13 13 14 14 14 14 13 13 13 13 13 13 13 12 12 12 12
16 12 15 17 19 17 15 16 16 16 15 14 14 13 12 12 12 14 14 14 12 14 13 12 12 11 12 11 11 9 12 13 13 13 14 14 14 14 13 13 13 13 12 12 12 12 12 12 12
17 15 18 19 21 19 15 14 15 15 14 12 12 12 12 12 12 12 12 12 12 13 13 12 12 12 12 12 11 12 13 13 13 13 13 13 13 13 13 13 12 12 12 12 12 11 12 12 12
18 19 19 20 21 18 15 16 13 14 13 13 12 12 12 12 13 12 12 12 12 12 12 12 11 11 11 11 12 12 13 13 13 13 13 13 13 13 13 13 12 13 12 12 12 12 12 12 11
18 19 20 21 20 17 16 15 14 12 12 13 13 13 13 12 11 12 12 12 12 12 12 12 11 11 11 12 12 12 12 12 12 13 13 13 13 13 13 13 13 13 12 12 12 12 12 11 11
19 19 19 21 18 17 16 14 15 13 12 13 12 12 11 11 11 11 11 11 11 11 11 11 11 11 12 11 11 12 12 12 13 13 12 13 13 13 13 13 13 12 12 12 11 12 11 11 11
19 17 17 19 18 16 16 16 15 15 13 12 12 11 11 11 10 10 10 10 10 11 11 11 11 10 10 10 10 11 11 12 12 12 12 13 13 13 13 13 13 12 12 12 11 11 11 11 11
18 17 16 18 17 17 16 16 15 15 13 12 12 11 10 10 9 9 9 9 9 10 10 10 9 10 10 9 10 11 11 11 12 12 12 12 13 13 12 12 13 12 11 11 11 11 11 11 11
15 14 16 17 18 16 16 15 15 15 14 11 12 11 11 11 9 8 9 9 9 9 9 9 9 9 9 9 9 10 11 11 11 11 12 12 12 11 12 12 12 12 11 11 11 11 11 11 10
14 15 16 16 18 16 15 14 15 15 14 12 12 11 11 12 11 10 9 9 8 8 8 8 8 8 9 9 9 10 10 10 11 11 12 13 12 12 12 12 11 12 11 11 11 11 11 10 10
16 16 16 17 19 18 15 15 15 14 14 12 11 11 11 13 11 10 9 9 8 8 8 9 8 8 8 9 10 10 10 10 11 11 12 12 12 12 12 12 12 12 12 12 11 11 11 10 10
16 16 17 18 20 19 14 15 15 13 13 13 12 11 11 12 12 10 9 8 8 8 8 8 8 9 9 9 9 9 10 11 11 11 11 12 12 12 13 12 12 12 12 12 11 11 11 10 10
17 17 17 18 20 20 15 15 14 15 14 14 13 13 12 13 13 11 10 9 8 8 9 9 8 8 9 9 9 9 10 10 11 11 12 12 12 12 12 12 12 11 11 11 11 11 11 11 10
16 18 18 19 18 16 17 15 14 14 14 15 14 12 12 12 13 12 11 9 10 10 9 9 9 9 9 9 9 9 10 11 11 11 12 12 12 12 12 12 11 11 11 11 11 11 11 10 10
17 19 18 19 17 16 17 15 15 15 14 15 15 13 12 13 14 13 12 12 12 11 10 10 9 9 9 9 10 10 11 11 11 12 12 12 12 12 12 12 11 11 12 11 11 11 11 10 9
20 20 18 16 15 14 16 15 15 14 16 16 16 15 13 13 14 14 13 13 13 12 11 11 11 10 9 10 11 11 11 11 12 13 12 12 12 12 12 12 12 11 11 11 11 10 11 9 9
19 16 14 14 12 13 16 16 15 16 17 17 17 16 15 13 14 13 13 12 12 12 12 12 12 12 12 12 12 12 12 12 12 12 12 12 12 12 12 12 12 11 10 11 11 10 10 9 9
17 16 12 14 11 13 15 16 18 19 18 18 18 18 16 14 14 14 14 14 14 13 12 12 12 12 12 12 12 12 12 12 12 12 12 12 12 13 12 12 12 12 12 11 10 10 9 9 9
18 16 16 13 13 12 14 15 17 20 20 18 18 18 17 15 15 15 14 14 15 14 14 13 13 13 13 13 12 13 13 12 13 12 12 12 12 13 12 12 12 12 12 11 10 9 9 9 8
18 18 15 13 13 14 14 15 16 18 19 19 17 18 18 17 16 16 14 15 15 15 15 15 14 14 14 14 13 13 13 14 13 13 13 13 12 12 12 12 12 11 11 11 10 9 9 8 8
17 17 17 15 13 12 12 14 14 16 18 18 18 20 20 19 17 16 17 17 17 16 14 14 13 13 13 13 14 14 13 13 12 12 13 13 12 11 11 12 12 11 11 10 9 9 9 8 7
17 17 16 14 14 12 9 14 17 16 18 19 19 21 22 22 21 20 19 18 18 16 14 14 13 13 15 15 18 16 13 12 12 11 12 12 12 11 11 11 11 10 10 9 9 9 8 8 7

GFSSGP_850_temp_057.txt.gz
Temp
18 18 17 17 13 10 12 13 15 16 17 18 19 19 16 14 16 16 14 15 15 14 15 16 17 17 16 15 16 17 17 17 16 15 15 15 16 16 16 16 16 15 15 14 14 14 13 13 13
18 18 18 17 11 11 12 13 15 16 18 19 19 17 16 15 14 15 14 15 15 15 15 16 17 18 18 15 13 16 16 16 15 15 15 15 16 16 16 16 15 15 14 14 14 14 13 13 13
18 18 18 10 8 11 12 15 16 17 18 18 18 16 15 15 16 15 14 15 16 15 16 16 17 17 18 14 13 15 16 16 14 15 15 15 15 15 15 15 15 14 13 13 13 13 13 13 13
18 18 16 12 13 13 15 16 16 17 19 18 17 15 14 16 16 16 15 15 16 16 15 16 16 17 15 13 13 13 15 16 14 14 15 15 15 15 15 15 15 14 13 12 12 13 12 13 12
18 17 12 12 13 15 15 17 18 16 16 17 16 16 15 14 14 15 15 15 15 15 14 15 15 15 14 13 14 14 14 15 14 14 14 15 15 15 15 15 14 13 12 12 12 12 12 12 12
17 15 12 12 13 15 16 18 18 16 16 16 15 14 15 14 13 14 15 15 15 14 13 14 14 13 13 12 12 10 12 15 14 13 14 14 14 15 15 14 14 13 12 12 12 13 12 12 12
14 11 12 13 14 15 18 18 16 15 14 14 14 14 14 14 14 14 14 14 14 14 14 13 13 12 12 11 11 10 11 15 13 13 13 14 14 14 14 14 13 13 12 12 12 12 12 12 12
18 12 14 13 15 16 18 18 17 15 15 15 15 14 13 14 14 14 13 13 14 13 14 13 13 12 12 11 11 12 12 13 13 13 13 14 14 14 14 14 14 13 12 12 12 12 12 12 12
18 12 11 14 16 18 19 17 16 16 15 14 14 13 14 14 13 13 13 13 13 14 14 13 12 12 13 11 12 11 11 12 13 13 13 13 13 14 14 13 13 13 13 12 12 12 12 12 12
14 11 14 15 16 17 16 15 17 15 14 14 13 12 12 11 12 12 12 13 13 12 12 12 12 11 11 11 11 11 12 12 12 12 13 13 13 13 13 13 13 13 13 13 12 12 12 12 12
15 14 16 18 19 18 15 14 15 14 13 13 13 12 12 12 12 11 11 12 12 11 12 12 12 12 13 11 10 10 10 11 12 13 13 13 13 13 13 12 13 13 13 13 12 12 12 12 12
17 17 18 19 20 17 14 16 14 14 14 14 13 13 13 12 12 11 11 11 11 12 12 12 12 12 11 12 11 12 11 11 12 13 13 13 13 13 13 13 13 13 12 13 13 12 12 12 12
16 18 19 19 18 17 16 15 15 12 13 13 13 12 12 11 11 11 11 11 11 11 11 11 12 11 11 11 11 12 12 13 13 12 13 13 13 13 13 13 12 13 12 13 12 12 12 12 11
18 18 18 19 17 16 15 14 14 13 12 12 12 13 11 11 10 11 11 11 11 11 11 11 11 10 11 11 12 12 11 12 12 13 13 13 13 14 13 13 12 12 12 13 12 12 11 11 11
18 17 16 16 16 16 16 15 13 15 12 12 12 12 11 10 10 10 10 11 11 11 10 11 11 10 10 11 11 11 11 12 12 13 13 13 14 13 14 13 12 12 13 12 12 11 11 11 11
16 16 15 17 16 18 16 15 16 14 12 11 11 11 10 9 10 10 10 10 10 10 10 11 10 9 10 10 10 11 11 12 12 12 13 13 13 13 13 12 12 13 12 12 12 11 11 11 11
14 14 15 16 16 16 15 15 15 13 12 12 12 11 11 11 10 9 9 9 9 10 10 10 10 10 9 9 10 10 11 12 12 12 12 12 12 14 12 12 12 12 12 12 11 11 11 11 11
13 14 15 15 16 16 14 14 15 13 12 12 12 11 11 11 11 10 8 8 9 9 9 10 9 9 9 9 9 10 10 11 11 11 11 12 12 12 12 13 12 13 12 12 11 11 11 11 11
16 15 14 15 16 16 15 14 14 13 13 11 12 11 11 12 10 10 10 9 8 8 9 9 9 8 8 8 8 9 10 10 10 11 10 11 12 13 12 12 13 13 12 12 11 11 11 11 10
14 14 14 15 17 16 16 16 14 12 12 12 12 12 12 11 10 11 10 9 8 8 8 8 8 8 7 8 8 9 10 10 10 10 11 11 12 12 12 12 12 12 12 12 11 11 11 10 10
14 14 14 15 17 17 16 15 14 14 13 13 12 13 13 13 11 11 11 9 8 8 7 8 8 8 7 8 8 9 10 10 11 10 10 11 12 11 12 12 12 12 12 12 11 11 11 11 10
14 15 16 16 16 15 16 14 15 13 14 13 13 12 13 13 12 13 13 12 11 8 8 8 8 8 8 8 8 9 10 10 11 11 11 12 12 12 12 12 12 12 12 11 11 11 11 11 11
15 16 16 15 15 15 16 13 14 13 14 14 13 13 14 14 14 14 14 15 13 12 11 9 8 8 9 9 9 9 10 10 10 10 11 12 12 12 12 12 12 12 11 11 11 11 11 11 10
17 17 16 14 13 13 15 14 13 13 14 16 15 14 14 14 14 14 14 14 14 13 11 10 10 10 10 11 10 9 9 9 10 11 11 11 12 12 13 13 12 12 11 11 11 10 10 10 10
16 15 13 13 12 12 14 14 14 15 16 17 16 15 15 15 14 15 14 14 14 13 13 11 10 11 11 11 10 10 10 9 10 11 11 12 12 12 12 12 12 12 12 11 11 11 10 10 10
15 14 11 14 11 13 14 14 16 16 18 18 18 18 16 14 14 15 15 14 15 14 13 13 12 12 11 11 11 11 11 11 12 12 12 12 12 12 12 12 12 12 12 12 11 11 10 10 10
15 14 15 12 11 11 13 15 16 17 17 16 16 17 16 15 15 15 15 15 15 14 14 14 13 13 13 12 12 11 12 12 12 12 12 11 12 12 12 12 12 12 11 11 12 11 11 10 10
17 16 14 12 12 13 13 14 14 17 18 16 15 15 17 16 15 15 14 15 16 15 15 13 13 13 13 12 12 12 12 12 12 12 12 12 12 11 11 11 12 12 11 11 11 11 11 10 9
15 15 15 14 12 12 12 13 13 16 16 17 16 18 18 18 18 17 17 16 16 16 15 14 13 13 13 13 13 13 13 14 13 12 13 13 12 11 11 11 11 11 11 11 10 10 9 9 9
16 15 15 13 14 11 9 14 16 15 15 16 17 19 20 19 20 20 19 17 13 14 15 15 15 13 13 14 14 14 13 12 12 12 13 13 13 12 11 11 12 12 11 9 9 9 9 9 8

GFSSGP_850_temp_060.txt.gz
Temp
18 17 17 17 13 10 12 13 14 15 16 18 18 17 17 17 17 16 14 14 15 14 14 16 17 17 17 16 17 17 17 16 16 15 16 16 16 15 15 15 15 15 15 14 14 14 14 14 14
18 18 17 16 11 11 12 13 14 15 18 17 17 16 16 16 15 15 15 14 14 15 15 16 17 17 16 16 16 17 16 15 16 15 15 15 15 15 15 15 15 15 14 13 13 14 13 14 14
18 18 17 9 7 11 12 14 14 16 18 18 17 16 16 16 15 14 14 14 15 15 16 16 16 16 16 17 17 16 16 16 17 15 15 14 14 14 14 15 15 15 14 13 13 13 13 13 13
17 17 15 12 14 12 13 15 15 16 18 17 16 16 16 17 16 15 15 15 14 15 15 15 15 15 16 15 16 17 16 17 16 16 15 14 13 13 14 14 14 14 14 13 13 13 13 12 13
17 17 11 12 12 13 13 15 16 17 17 16 16 16 15 15 15 15 15 14 15 14 15 14 15 15 15 15 15 16 15 15 15 16 14 13 13 13 14 14 14 14 13 14 13 13 13 13 12
16 14 11 12 13 14 14 17 17 16 16 15 15 14 15 16 15 15 14 14 15 16 14 14 14 15 14 14 13 13 13 14 14 15 14 13 12 13 13 13 14 14 13 13 13 13 12 12 12
14 10 12 13 13 14 17 18 16 16 15 15 15 14 15 14 15 15 15 15 15 15 15 14 13 12 12 12 12 12 12 11 15 15 14 13 12 13 13 13 13 13 13 13 13 12 12 12 12
17 10 13 12 14 15 17 18 17 15 15 15 14 13 14 14 14 15 15 14 14 14 14 13 12 12 12 12 12 12 10 13 13 14 14 13 13 13 13 12 12 12 12 13 13 12 12 12 12
17 11 11 14 14 16 18 17 16 16 15 14 14 14 14 14 13 12 12 13 13 14 14 13 12 12 12 12 12 11 12 11 12 14 13 13 13 13 12 12 12 12 12 13 12 12 12 12 12
13 11 13 13 14 16 17 16 16 15 14 14 14 14 13 13 11 12 12 12 13 14 13 12 12 11 11 11 11 11 11 11 11 13 13 13 13 13 12 12 12 12 12 12 13 12 12 12 12
13 13 14 16 18 18 15 14 15 14 14 15 14 13 12 12 12 11 11 12 12 11 11 11 11 11 11 11 10 10 10 10 10 12 13 13 12 12 12 12 12 13 13 12 12 13 12 12 12
15 16 16 18 18 16 14 15 14 14 15 15 13 12 12 12 11 10 11 11 13 11 11 10 11 11 11 10 10 10 10 10 10 12 13 13 12 12 12 13 13 13 13 12 13 12 12 12 12
15 16 18 19 18 17 15 15 14 13 15 13 12 12 11 11 10 10 11 11 11 11 11 11 11 12 11 10 10 10 10 10 11 11 12 13 13 12 12 12 12 13 12 13 12 12 12 12 12
17 17 17 18 18 16 15 14 15 16 14 12 12 11 11 10 10 10 10 11 11 11 11 11 11 11 10 10 10 10 10 11 11 10 11 12 13 13 12 12 12 12 12 12 12 12 12 12 11
17 16 15 16 16 15 15 14 12 16 14 13 12 11 10 9 10 10 11 10 11 11 11 11 11 11 11 10 10 10 11 11 11 12 11 13 13 13 12 13 12 12 12 12 12 12 11 11 11
16 15 14 16 14 15 16 14 15 15 13 12 11 11 10 9 10 10 10 11 10 10 11 10 10 10 10 10 10 9 10 11 12 12 12 13 13 12 13 13 13 12 12 12 12 12 11 11 11
12 13 14 15 15 14 14 14 13 12 11 12 11 11 10 9 9 10 10 10 10 10 10 10 10 10 10 9 9 9 11 11 12 12 12 13 12 12 12 13 13 12 12 12 12 12 11 11 11
13 13 13 13 16 13 13 13 13 12 11 12 12 11 11 10 10 10 9 9 9 9 10 10 10 10 10 10 9 9 11 11 11 12 12 12 12 12 12 12 12 12 12 12 12 12 12 11 11
14 14 14 13 14 16 14 13 15 12 10 11 12 12 11 11 10 9 9 8 9 9 9 9 10 10 9 9 9 10 10 11 11 12 12 12 11 12 11 12 14 12 12 12 12 12 11 11 11
14 14 13 13 15 14 14 14 13 11 10 11 12 12 12 10 10 9 8 8 8 9 9 9 9 9 9 9 9 9 10 10 11 11 11 11 12 11 12 12 13 12 12 12 13 12 12 11 10
13 12 13 14 13 15 15 14 15 14 12 12 13 14 14 12 11 10 9 8 9 8 8 8 8 9 9 8 9 9 9 10 10 10 11 11 11 10 11 12 11 12 11 12 12 12 12 11 11
13 13 14 14 14 13 15 12 14 15 13 12 12 12 13 14 11 11 11 10 10 9 8 8 8 8 8 8 9 9 9 9 10 10 11 11 11 10 11 11 11 12 12 12 12 12 11 11 10
15 14 14 14 13 14 14 12 13 13 15 14 11 13 14 15 14 13 12 13 12 11 9 8 8 8 8 8 8 9 9 9 9 10 11 11 11 11 11 11 11 12 12 12 12 11 11 11 10
16 16 15 12 12 12 14 13 12 14 15 16 15 15 17 15 15 14 13 13 12 12 11 9 8 8 8 8 9 8 9 10 10 10 10 10 11 11 11 11 12 12 12 12 12 11 11 11 11
15 13 12 12 11 11 13 13 14 15 14 15 15 16 17 17 16 15 14 13 13 13 13 11 10 9 8 8 8 8 9 10 10 10 11 11 11 11 11 11 12 12 12 12 12 11 11 10 10
13 14 11 13 11 13 13 13 15 16 16 18 17 18 17 16 16 17 16 15 15 14 14 13 12 11 9 9 8 9 9 9 9 10 10 11 11 11 11 12 12 12 12 12 12 11 11 10 10
14 13 14 11 11 10 12 14 15 16 16 16 15 15 16 17 17 18 17 16 16 15 15 14 14 13 11 11 11 11 10 10 10 10 10 10 11 11 11 11 12 12 11 11 11 11 11 11 10
15 14 13 11 12 12 12 13 14 16 16 15 16 14 17 17 17 16 17 18 17 17 16 15 15 14 14 13 12 12 12 11 11 11 11 11 11 12 12 12 12 11 11 11 11 10 11 11 11
14 14 14 13 11 12 12 12 12 15 16 15 14 17 19 18 19 19 18 19 18 17 16 16 15 15 14 14 14 14 14 14 13 13 13 12 12 12 12 12 11 11 11 12 11 10 10 10 10
15 13 14 12 13 10 9 14 15 14 14 14 15 18 19 20 20 19 19 17 17 16 16 16 16 15 15 15 14 14 14 14 14 14 13 12 12 11 12 11 11 10 11 11 11 10 10 10 10

GFSSGP_850_temp_063.txt.gz
Temp
18 17 17 17 18 17 18 18 16 18 18 17 17 17 18 17 19 20 15 14 14 15 16 16 15 15 17 18 17 17 17 17 16 16 18 16 15 15 15 15 14 14 14 15 14 12 12 12 14
18 17 17 16 18 19 19 17 17 19 19 18 16 16 17 19 17 16 14 13 14 15 15 15 15 15 16 17 17 17 16 17 16 16 16 16 15 15 14 14 14 14 15 15 14 14 13 14 14
18 17 17 16 15 19 19 17 19 18 17 17 18 16 16 18 17 16 15 14 14 15 15 15 16 15 16 17 17 17 17 17 16 16 16 16 15 14 14 14 14 14 14 13 13 14 14 14 14
17 17 15 18 18 17 18 20 18 18 17 16 16 18 16 16 16 15 14 14 14 14 15 15 14 15 16 16 16 17 17 16 16 16 15 15 14 14 14 14 12 12 11 12 14 14 14 13 13
17 16 17 17 17 17 16 16 16 18 18 16 16 18 16 17 16 15 14 14 14 14 14 14 14 15 15 16 16 16 16 15 15 15 15 15 14 15 14 12 12 12 13 14 13 13 13 13 13
17 15 17 18 17 17 17 17 17 17 17 16 15 16 16 16 15 15 15 15 14 13 14 13 13 14 14 15 14 15 15 15 15 15 15 15 14 14 12 11 13 13 13 13 13 13 13 13 13
17 17 17 16 17 17 19 17 17 18 17 17 15 16 15 15 15 15 15 14 15 14 13 13 13 14 13 12 13 13 14 14 14 15 14 15 14 13 11 12 13 13 13 13 13 12 12 12 12
17 17 15 15 17 18 18 17 18 17 18 16 15 17 16 15 15 16 15 14 13 12 14 13 13 14 13 13 13 13 12 13 13 14 13 14 14 13 12 12 12 12 12 13 12 12 12 12 12
16 17 17 17 16 20 18 18 16 16 15 15 15 15 15 14 14 13 13 13 13 13 13 12 13 13 13 13 12 12 12 12 13 13 13 13 13 13 12 12 12 12 12 12 12 12 12 12 12
17 16 17 17 17 19 19 17 17 16 15 15 15 15 15 14 12 11 11 12 12 13 13 13 12 12 12 11 12 12 11 12 11 12 12 12 13 13 12 12 12 13 12 12 12 12 12 12 12
14 18 16 17 17 17 17 16 15 16 17 15 15 15 14 13 12 12 11 11 12 12 12 13 11 12 11 11 10 11 10 10 10 11 13 12 12 12 12 12 12 12 12 12 12 12 12 12 12
16 16 17 18 18 16 16 15 15 15 16 16 15 15 13 12 10 11 11 11 11 11 11 11 11 12 11 10 10 11 10 9 10 11 13 12 12 12 12 12 12 12 12 12 12 12 12 12 12
16 18 16 18 17 16 15 16 16 15 16 14 15 13 11 11 11 11 11 11 11 11 10 10 10 10 10 10 11 10 10 9 9 10 12 12 12 12 12 12 12 12 12 12 12 12 12 12 12
17 16 17 17 17 16 16 16 14 16 15 14 14 12 10 10 10 10 11 12 11 11 11 11 11 10 10 10 10 9 9 10 10 10 12 12 13 12 13 13 12 12 12 12 12 12 12 12 12
16 17 17 18 17 17 15 17 15 15 14 11 11 12 10 10 10 10 10 10 10 11 10 10 11 11 10 9 9 9 9 9 10 11 12 12 12 12 12 13 12 12 12 12 11 12 11 11 11
17 16 17 18 15 15 16 19 17 14 12 11 10 10 10 9 9 10 9 10 10 10 11 10 11 10 10 9 9 9 9 9 10 10 11 12 12 12 12 12 12 12 13 11 11 11 12 12 11
14 17 15 17 16 16 16 18 17 13 12 13 11 10 10 9 9 9 10 10 10 10 10 10 10 10 10 10 9 9 9 10 10 10 11 12 12 12 12 12 11 12 12 12 11 12 12 12 11
16 15 15 16 16 16 16 17 18 13 12 14 12 10 10 9 9 10 10 10 9 10 10 10 9 10 10 9 9 9 9 10 10 10 11 12 12 12 12 11 12 12 12 12 11 11 12 11 11
15 15 16 16 16 16 17 17 18 15 12 13 13 11 10 10 10 10 9 8 8 9 10 9 10 10 10 9 8 9 10 10 10 10 11 11 12 11 11 12 11 11 12 12 12 12 12 12 11
16 16 16 16 16 16 18 18 19 16 15 14 14 12 10 10 10 9 8 8 9 9 9 10 10 10 9 9 9 9 9 10 11 11 11 12 11 11 11 11 12 12 12 13 12 12 12 11 11
15 15 15 16 15 16 16 18 18 18 14 13 13 13 12 12 11 10 10 9 8 9 9 9 9 9 10 9 9 9 9 10 10 11 11 11 11 11 11 11 12 11 12 12 12 12 11 12 12
15 15 16 15 16 17 16 17 18 19 17 15 15 13 12 11 11 11 10 10 8 8 9 9 9 9 9 9 9 9 9 10 10 11 10 11 11 11 11 11 11 10 11 12 12 12 11 11 11
17 15 15 15 15 15 16 16 18 16 19 20 18 14 14 14 13 13 14 14 13 8 8 8 9 9 9 9 9 9 10 10 10 11 11 11 11 10 11 12 11 10 12 11 12 11 11 11 11
16 16 15 14 14 14 16 17 18 18 19 19 19 16 14 14 14 14 14 14 13 12 9 8 8 8 8 8 9 9 10 10 10 10 11 10 11 11 11 11 10 10 11 11 11 11 11 11 11
16 16 15 14 14 15 15 15 19 19 19 18 19 19 16 15 15 13 13 13 13 13 11 9 9 9 9 8 9 9 9 9 10 10 11 10 10 11 11 11 10 10 11 11 11 11 11 11 11
15 16 15 15 14 16 14 16 19 19 18 17 17 16 16 15 16 16 15 15 15 14 13 12 11 10 10 9 9 9 9 9 9 10 10 10 10 11 11 11 11 11 11 11 11 11 11 11 11
14 14 16 14 12 14 16 16 18 19 19 18 18 16 15 13 15 17 16 15 15 15 15 14 13 12 11 11 10 9 9 9 9 9 9 10 10 10 11 11 11 11 11 11 11 11 11 11 11
16 16 15 13 15 14 15 15 18 19 20 19 18 18 16 14 14 15 16 17 16 15 15 15 15 15 14 12 11 11 11 10 10 10 10 10 10 10 10 10 11 11 10 11 11 11 11 11 11
15 15 15 16 14 16 15 16 16 19 19 18 18 17 17 17 16 17 17 16 16 16 15 15 15 15 15 14 13 12 12 11 11 11 11 10 10 10 10 11 11 11 11 11 11 11 11 11 11
16 16 16 15 14 12 13 17 16 17 17 16 17 18 19 20 19 18 17 17 16 16 16 15 15 15 16 15 15 15 14 13 12 12 13 12 12 12 12 11 11 11 11 11 11 10 10 9 10

GFSSGP_850_temp_066.txt.gz
Temp
18 18 17 18 22 24 24 24 23 23 23 22 21 21 23 22 23 23 16 17 16 15 15 16 17 17 17 17 17 18 17 17 16 16 16 16 17 17 14 15 15 14 13 13 14 14 13 14 13
17 17 17 21 23 24 25 24 23 24 23 21 20 20 21 23 20 19 16 16 15 15 14 14 15 15 16 17 17 17 17 16 16 16 16 15 16 16 15 14 15 14 14 14 14 15 15 14 13
17 17 21 23 23 24 24 24 24 23 22 21 22 20 21 22 17 17 15 15 15 14 14 14 15 15 16 17 17 16 17 16 16 16 16 15 15 15 15 14 14 14 14 14 12 15 14 13 12
17 18 19 23 24 24 23 24 24 24 22 21 22 22 19 17 16 15 16 16 15 14 14 14 15 14 14 16 16 17 17 16 16 16 16 15 15 14 14 14 14 14 14 14 14 14 13 13 13
17 20 23 23 23 23 23 23 22 23 22 21 20 23 21 16 15 16 15 16 15 14 14 14 15 15 16 13 15 16 16 15 15 16 15 15 14 14 14 14 14 14 14 14 14 14 13 13 13
20 21 23 23 24 23 23 23 22 22 22 22 20 21 21 16 14 14 15 14 15 14 14 14 15 14 14 13 14 15 15 15 15 15 15 15 15 13 14 13 13 13 13 14 13 13 13 13 13
21 23 23 23 23 23 23 21 22 23 23 23 20 21 20 16 15 15 15 13 14 13 14 14 14 15 14 13 14 14 15 14 15 15 15 15 14 14 13 13 13 12 13 13 13 13 13 13 13
20 23 23 23 23 23 23 22 22 22 23 18 18 22 21 16 16 15 14 14 13 13 13 14 14 13 13 13 13 13 14 14 14 14 14 13 15 14 13 14 12 13 13 12 12 13 13 13 13
19 22 23 23 22 23 23 22 22 20 20 19 18 18 17 16 16 13 12 12 12 13 13 13 13 13 13 12 13 13 13 13 12 13 13 14 12 15 13 13 13 13 12 12 12 12 12 12 12
20 22 23 24 24 23 23 23 22 20 22 21 19 16 15 15 13 13 13 12 12 12 13 13 13 13 13 12 12 13 12 12 11 12 12 13 12 13 11 13 12 12 12 12 12 12 12 12 12
20 22 24 22 22 22 22 22 21 22 23 23 21 18 15 14 13 12 12 12 11 12 12 12 12 12 12 12 13 12 12 10 11 12 11 12 12 10 12 12 12 12 11 11 11 11 11 10 10
20 21 22 22 22 21 22 21 21 21 21 18 18 16 15 14 13 12 12 11 11 11 12 12 12 12 11 11 11 12 11 10 10 10 11 12 10 11 12 11 10 10 10 10 10 10 10 10 10
20 22 22 21 21 20 21 21 22 21 20 17 16 15 14 13 12 12 11 11 11 11 12 12 10 11 10 11 11 11 10 10 9 9 10 12 12 12 12 11 11 11 11 10 10 10 10 10 10
21 21 22 21 21 21 20 22 19 22 20 17 16 16 13 13 12 11 11 11 11 11 12 11 10 10 10 10 10 10 10 10 9 9 10 11 13 12 12 11 11 10 11 11 11 10 10 10 10
20 20 22 22 21 22 20 21 21 22 18 17 16 15 14 13 12 11 11 11 11 11 11 11 10 10 10 10 10 10 9 9 9 9 10 11 13 13 12 12 12 11 11 10 11 10 10 10 10
20 21 21 23 23 21 20 21 24 20 18 18 17 15 14 13 13 12 10 10 10 11 11 10 11 10 10 10 10 9 9 9 9 9 11 13 13 13 12 11 11 10 12 11 12 11 10 10 10
20 21 21 22 22 22 20 22 22 18 19 19 17 16 14 14 13 11 10 10 10 10 11 10 10 10 10 10 9 9 9 9 9 10 10 12 12 12 12 12 11 12 12 12 11 12 10 10 10
20 20 21 21 22 20 22 22 24 22 19 19 19 17 16 14 14 11 11 10 10 10 10 10 10 10 10 9 9 9 9 9 9 9 9 11 12 11 11 12 13 12 11 10 11 12 11 10 10
21 21 21 22 22 20 21 22 23 24 20 20 20 18 16 15 13 11 10 9 9 10 10 10 10 10 10 9 9 9 9 9 9 9 10 11 12 12 11 13 12 12 10 11 11 12 11 11 10
19 20 21 22 21 20 22 22 24 24 23 22 21 19 18 15 13 11 9 8 9 9 10 10 10 10 10 10 9 9 9 9 9 10 10 10 11 11 12 12 12 12 11 12 11 12 12 11 12
19 19 20 20 20 21 20 21 23 24 22 21 20 20 19 16 14 11 10 9 9 9 9 10 10 10 10 10 9 8 9 8 9 10 10 11 11 11 11 11 11 11 11 11 11 11 12 10 11
18 20 20 20 19 20 20 20 23 23 23 23 22 19 19 17 15 13 11 10 9 9 9 9 10 10 10 10 9 9 9 9 9 9 10 11 11 11 10 11 11 11 11 11 11 11 11 11 10
19 20 19 19 19 19 20 20 23 23 22 23 24 22 19 17 15 14 12 11 10 9 9 9 9 9 10 10 9 9 9 9 8 8 10 11 11 10 10 10 11 11 10 11 11 11 11 12 11
19 18 18 19 19 18 20 20 22 23 23 23 24 23 21 18 16 15 13 12 11 9 9 8 8 9 9 9 9 9 8 8 8 9 9 10 10 9 10 10 10 10 11 11 11 10 10 11 11
18 18 17 17 17 18 21 20 21 23 23 24 23 23 21 19 17 15 14 13 12 10 9 8 8 8 9 9 9 9 9 9 9 10 11 10 10 10 9 9 10 10 11 11 11 10 11 11 11
18 19 19 17 18 19 20 19 21 23 24 23 22 22 21 19 17 16 15 14 12 11 10 9 9 9 8 9 9 8 9 10 9 10 10 10 10 10 10 10 10 10 11 11 11 10 10 11 10
17 17 20 18 17 19 20 20 21 23 23 24 23 22 21 20 18 17 15 14 13 11 11 10 10 10 9 8 10 9 9 9 9 9 10 10 11 11 11 10 10 11 11 11 11 9 9 10 9
19 20 17 17 17 17 20 19 20 22 23 23 23 23 21 19 18 17 16 14 13 12 11 10 10 10 10 9 9 9 9 8 9 9 9 10 10 10 10 10 11 10 11 10 9 9 9 9 9
18 18 18 19 19 18 18 20 21 22 23 22 23 22 21 20 18 17 16 15 13 12 12 12 11 11 10 9 9 9 9 9 9 9 9 9 9 9 9 10 10 10 10 9 9 9 9 9 10
20 19 19 17 17 18 18 20 20 21 23 21 22 22 21 20 20 18 17 15 14 13 12 11 11 10 10 10 10 9 9 9 9 10 10 10 10 9 9 9 9 9 9 9 9 9 9 10 11

GFSSGP_850_temp_069.txt.gz
Temp
18 18 18 20 24 26 27 27 27 26 26 25 25 25 25 25 25 24 18 17 18 18 16 17 17 17 16 16 17 17 17 17 17 16 16 15 15 15 15 16 14 14 14 14 14 14 14 14 14
18 19 20 22 24 27 29 28 26 27 26 24 24 24 25 25 24 23 21 17 17 17 16 16 17 17 16 16 16 16 16 16 17 16 16 16 14 14 14 15 14 14 15 14 14 13 14 14 13
17 19 22 25 26 26 27 27 27 26 25 25 25 24 24 24 22 20 18 16 18 15 15 15 17 16 16 15 16 16 16 16 16 16 16 16 15 14 14 14 15 14 14 15 13 13 14 13 13
19 20 22 24 26 28 26 27 26 26 25 24 25 25 24 21 20 19 17 16 15 15 15 15 16 15 15 16 15 15 15 16 16 16 16 16 15 14 14 14 14 15 14 14 13 14 14 13 12
19 22 25 25 26 28 27 26 25 25 25 24 24 25 25 20 18 17 16 15 15 15 15 15 15 15 15 14 15 14 15 16 15 16 16 15 15 14 14 13 14 15 15 15 14 14 13 13 13
21 23 24 25 27 28 27 26 25 25 25 25 24 24 24 19 18 16 16 15 14 15 15 14 14 15 14 13 13 14 14 15 15 16 16 16 15 14 13 13 14 15 15 14 14 14 13 13 13
22 25 25 26 27 27 26 25 25 25 25 26 24 23 23 20 17 16 15 15 14 16 15 15 14 14 14 14 14 12 13 15 14 15 15 15 14 14 13 13 14 14 14 14 14 14 14 13 13
22 25 24 26 26 26 27 25 24 24 25 23 23 24 24 19 16 15 15 14 14 14 16 15 14 14 14 15 14 13 13 14 15 14 15 14 13 14 13 13 12 14 14 14 14 13 13 13 13
22 23 24 26 26 26 26 25 24 24 23 24 23 22 21 17 16 16 15 14 13 13 14 14 14 13 13 13 14 13 12 12 13 14 13 13 13 13 13 12 12 13 14 14 13 13 13 12 12
23 23 24 27 27 26 26 25 25 24 24 25 24 22 19 17 17 17 17 15 14 13 13 13 14 13 13 13 13 13 12 12 12 12 13 13 12 12 12 12 12 13 13 13 13 13 12 12 11
23 23 26 26 25 25 26 25 25 25 24 24 23 22 21 18 17 16 16 14 14 12 13 13 13 13 13 13 13 12 13 12 12 12 12 13 12 11 12 12 12 12 12 12 12 12 11 10 10
23 24 24 25 25 24 25 24 25 24 24 23 22 21 20 17 17 17 15 14 12 13 12 12 13 13 13 12 12 12 13 12 12 10 10 11 11 11 11 12 12 12 12 12 12 11 12 11 11
23 24 24 24 24 24 23 24 24 24 24 23 22 19 19 17 17 16 15 12 12 12 11 13 13 13 13 12 12 12 11 11 11 11 10 10 9 10 12 11 11 11 11 11 10 12 11 11 11
24 24 23 23 24 24 24 24 23 24 23 23 21 20 19 17 17 16 14 12 12 12 12 13 13 13 12 11 11 11 11 11 10 11 10 10 9 11 11 11 11 11 12 11 12 12 11 11 11
23 23 24 24 24 25 24 24 24 24 24 23 22 20 19 18 16 15 15 11 12 11 11 11 11 11 11 10 10 11 10 10 9 10 9 9 10 11 11 11 12 12 12 12 12 11 12 12 11
22 22 22 24 25 25 24 22 25 25 24 23 22 21 19 18 17 16 14 12 11 11 11 10 10 10 10 10 10 10 10 10 9 9 9 9 11 12 11 11 11 12 12 12 12 12 12 12 12
22 21 22 24 26 25 24 23 26 24 23 23 23 22 20 19 17 16 14 12 11 11 11 10 10 10 10 10 10 10 10 9 8 9 9 9 11 11 12 11 11 11 11 12 12 12 12 12 12
21 22 23 24 26 24 24 24 25 25 24 23 23 23 21 19 18 16 14 12 12 11 11 10 11 10 10 10 10 9 9 9 9 9 9 10 10 10 11 10 11 11 11 11 11 11 11 12 12
22 24 24 25 26 24 24 24 25 26 25 24 24 23 22 20 19 16 13 11 9 11 10 10 10 10 10 9 9 9 9 9 8 8 10 10 10 9 11 12 12 11 10 10 11 11 11 11 11
21 22 23 24 25 23 23 24 25 26 26 25 24 24 23 20 19 16 13 11 9 10 11 10 10 10 10 10 9 9 9 9 9 9 9 10 10 10 12 11 11 12 11 10 10 10 10 10 10
21 21 22 23 24 23 23 23 24 26 26 25 24 24 24 22 19 17 14 12 10 9 10 10 10 10 10 10 9 9 9 8 8 9 9 10 9 10 11 11 12 11 11 10 10 10 10 11 11
20 22 22 22 22 21 24 22 25 26 26 26 25 24 24 22 19 18 15 13 11 9 10 10 10 10 9 9 9 9 9 9 9 10 10 10 10 12 12 11 11 11 10 10 10 11 11 11 10
20 22 22 22 21 21 22 22 24 26 25 26 26 25 23 23 20 18 16 15 13 10 10 10 10 10 10 9 9 9 10 9 9 9 10 9 9 10 11 11 11 11 10 11 11 11 11 11 10
21 21 21 21 21 19 21 22 23 25 26 25 26 25 24 23 21 19 17 16 14 12 9 10 10 10 10 10 9 10 10 9 9 9 9 9 10 10 10 11 11 11 10 11 11 10 10 10 11
20 19 18 18 18 18 23 22 23 26 25 25 25 25 24 23 21 19 18 16 15 13 11 10 9 9 10 10 10 9 9 9 10 9 9 9 10 10 11 10 10 10 10 9 10 11 11 10 11
19 20 19 18 18 20 23 21 23 26 26 25 24 24 24 23 21 20 19 17 16 14 12 11 10 9 9 9 10 10 9 9 10 9 9 9 11 11 11 11 10 10 10 11 10 11 10 11 11
19 19 21 20 19 20 22 23 24 24 25 25 25 25 24 23 22 20 19 18 16 15 13 12 11 11 9 9 9 10 9 9 9 9 9 9 11 11 11 11 11 11 11 10 10 10 10 11 11
18 21 18 20 17 17 21 22 23 23 24 25 25 25 24 23 22 21 20 18 17 15 14 12 12 12 12 9 9 9 9 9 9 9 9 9 10 11 11 11 11 11 10 10 10 10 10 10 10
16 18 19 20 20 18 19 21 24 23 23 24 24 24 23 22 22 21 20 19 17 16 14 13 12 13 13 11 10 9 9 9 9 9 9 9 9 10 11 11 11 11 10 10 10 11 10 10 10
18 19 19 18 18 20 20 19 23 24 24 24 24 24 23 23 22 21 20 19 17 16 15 14 13 13 13 12 11 10 10 10 10 10 10 10 10 9 10 10 10 10 10 10 10 10 10 10 10

GFSSGP_850_temp_072.txt.gz
Temp
19 19 19 20 22 24 25 27 29 27 27 27 26 26 25 25 25 22 19 19 20 18 19 18 18 19 18 16 16 17 17 17 17 18 17 17 16 16 15 15 16 15 14 14 13 13 14 14 14
19 19 20 22 22 23 26 29 27 28 27 26 25 25 25 25 24 22 20 19 20 18 17 18 18 18 18 17 17 16 16 16 16 17 17 17 16 15 14 14 14 15 14 13 13 13 14 14 14
19 19 21 23 23 24 26 29 28 28 26 26 26 26 25 25 22 21 20 21 20 18 17 16 17 17 17 16 15 15 16 16 16 16 16 16 16 15 14 13 13 14 14 12 12 14 13 13 13
19 20 21 22 23 26 27 28 28 27 27 26 25 25 25 23 22 21 21 20 20 17 16 16 16 16 17 16 15 15 15 16 16 16 16 15 15 15 14 13 13 13 13 11 13 14 13 13 13
19 22 22 23 24 27 29 28 27 26 26 26 25 25 25 21 21 22 21 20 19 17 16 16 16 16 16 15 15 14 15 15 16 15 15 15 15 15 14 13 12 13 14 14 15 14 13 13 13
21 22 22 23 25 28 29 27 27 26 26 26 26 25 24 20 19 20 21 20 19 17 16 16 15 15 15 15 14 14 13 13 14 14 15 14 15 14 15 13 12 12 14 15 15 14 14 13 13
22 23 23 24 25 27 28 27 27 26 26 26 25 24 24 21 19 20 18 17 16 17 15 15 15 16 15 14 13 13 13 12 12 14 15 14 14 14 14 13 13 13 14 14 15 14 13 13 12
21 23 22 24 25 26 29 26 25 25 25 25 24 24 23 19 20 19 17 16 15 15 16 15 15 14 14 14 15 13 13 13 12 12 15 14 14 14 13 14 14 13 14 14 14 14 14 13 13
22 22 22 23 25 27 28 26 25 25 25 25 24 24 23 19 18 17 16 15 15 14 14 14 14 14 13 13 12 12 13 13 11 13 15 13 14 13 12 13 14 13 14 14 14 14 13 13 12
23 22 23 25 26 27 27 27 26 26 25 25 25 24 22 19 19 18 18 18 16 14 14 14 14 14 13 13 12 13 12 14 11 13 13 13 13 13 12 12 13 13 13 13 14 13 13 13 12
22 22 24 25 26 26 26 26 26 26 25 25 25 23 23 20 19 18 17 17 15 14 13 14 13 14 13 13 12 12 12 12 12 12 12 13 13 12 12 12 13 13 13 13 13 12 12 12 12
22 23 24 24 25 25 26 25 25 25 25 24 24 23 22 21 19 18 18 17 15 13 13 13 13 13 13 13 13 13 12 12 12 11 12 13 12 12 12 12 12 13 13 13 13 12 12 12 12
23 24 24 24 24 25 25 25 25 25 25 24 24 22 20 20 19 18 17 16 14 13 12 12 13 13 13 13 13 13 12 12 12 11 12 12 12 11 10 11 12 12 12 13 12 11 11 12 11
23 24 24 24 25 25 25 25 25 24 24 24 24 23 21 20 19 18 17 14 13 13 12 13 13 13 13 13 12 12 12 13 12 11 11 12 12 12 10 11 12 11 12 12 12 11 11 11 11
23 23 24 24 24 24 24 24 24 25 25 24 25 24 22 20 19 17 17 15 13 13 12 13 12 12 12 11 11 12 12 12 12 12 11 11 12 11 10 11 12 11 12 12 12 12 11 11 11
22 22 21 24 24 25 24 22 25 25 25 25 24 24 22 21 19 18 17 14 12 11 11 12 12 11 10 10 11 11 11 11 11 11 11 11 11 10 10 11 12 11 12 12 12 12 11 11 11
20 20 21 22 25 25 25 23 25 25 25 25 24 24 23 21 19 18 16 14 12 12 11 11 11 11 10 10 10 10 10 11 11 11 11 10 10 10 10 12 11 12 12 12 12 12 12 12 12
18 20 21 22 25 25 25 24 25 25 25 25 24 24 23 21 20 18 16 14 12 11 11 10 11 10 10 9 10 10 10 10 10 10 10 10 9 9 11 10 11 11 11 12 12 12 12 12 12
20 20 21 24 25 25 24 24 25 26 26 25 25 24 24 22 21 19 16 13 12 11 11 10 11 10 10 10 10 9 10 9 9 10 9 9 9 9 11 11 12 12 12 12 12 12 12 12 12
19 19 20 23 25 24 24 24 25 26 26 26 25 25 24 22 21 18 15 13 11 10 10 11 11 11 10 10 10 9 10 9 9 9 9 9 9 10 10 11 11 11 11 11 11 11 11 11 11
19 19 20 21 23 25 24 23 23 25 26 26 26 25 25 23 21 18 15 13 11 10 10 10 10 11 10 10 10 9 9 9 9 9 9 9 10 10 10 11 11 11 12 11 11 11 11 11 11
18 20 21 21 21 21 24 21 24 25 25 26 26 25 25 24 21 19 16 14 12 10 10 11 11 11 10 9 9 10 9 9 9 9 9 9 10 11 11 10 11 12 12 12 12 12 11 11 11
18 19 19 21 21 21 22 21 23 25 25 26 26 25 24 24 21 20 17 15 13 11 11 10 10 11 10 9 9 9 9 9 9 9 9 10 10 10 10 10 11 12 12 12 12 12 11 11 10
18 17 16 19 20 18 21 21 22 24 25 26 27 26 25 24 22 20 18 16 14 12 10 10 10 10 10 9 9 10 10 9 9 9 9 9 9 10 10 10 10 12 12 12 12 11 10 11 10
15 13 12 15 17 17 21 21 22 25 26 26 26 26 25 24 22 21 18 17 15 13 12 9 10 10 10 10 9 9 9 9 9 10 10 10 9 9 10 10 11 11 11 12 11 11 10 11 11
15 14 15 14 16 18 21 20 23 26 27 26 25 26 25 24 23 21 19 17 16 14 12 11 10 9 9 9 9 9 9 10 9 10 10 10 10 10 10 10 11 11 11 11 10 11 10 11 11
13 14 17 17 18 18 21 23 24 25 25 25 25 25 25 25 23 21 20 18 16 15 13 12 10 10 9 9 9 10 9 9 9 9 10 9 9 11 11 11 11 11 11 11 11 11 11 11 11
12 15 14 17 14 14 20 21 22 23 24 25 25 25 25 24 23 22 20 18 17 16 14 12 12 11 10 9 9 9 9 9 9 9 9 9 9 10 11 10 11 11 11 11 11 11 11 11 10
13 15 15 17 18 17 17 19 18 22 24 24 24 24 24 23 23 22 21 19 18 16 15 13 12 12 12 11 10 9 9 10 9 10 10 9 9 9 9 10 11 11 11 11 11 11 11 10 10
15 14 16 15 15 18 17 19 22 24 24 24 24 24 23 23 23 22 21 20 18 17 16 14 13 13 12 12 12 10 10 10 9 9 10 10 10 10 10 10 11 11 11 11 11 11 11 11 11

GFSSGP_850_temp_075.txt.gz
Temp
19 19 19 18 15 14 16 19 22 25 22 24 25 24 23 24 23 19 19 20 20 20 20 20 19 19 19 19 18 18 17 17 18 17 17 17 17 17 16 16 16 16 15 14 14 13 14 14 14
19 19 18 19 15 14 17 21 22 23 24 25 25 25 24 22 21 20 20 20 19 20 20 19 19 18 19 19 18 17 17 17 17 17 17 17 17 17 16 16 15 14 14 14 13 14 14 14 14
19 18 18 15 14 16 16 23 24 24 26 25 25 25 25 22 21 20 21 22 21 19 19 19 18 18 18 18 17 17 16 17 17 16 17 17 16 16 16 15 14 14 14 13 14 13 13 13 13
19 19 19 16 15 18 20 23 24 25 26 25 25 24 23 22 22 22 22 22 22 20 19 19 17 17 17 17 17 17 17 16 17 16 16 16 16 15 15 14 14 13 13 12 14 14 13 13 13
18 18 15 15 16 20 22 24 25 24 25 25 25 23 22 22 21 21 22 22 21 20 18 17 16 16 16 16 15 15 16 14 16 16 16 16 16 14 14 14 14 13 13 14 14 13 13 13 13
17 19 14 14 17 21 23 25 25 24 25 25 25 23 21 21 22 21 21 20 20 19 17 16 15 15 15 15 15 15 14 13 13 12 13 15 15 14 14 14 13 13 13 14 14 13 13 13 13
15 14 14 16 18 21 23 26 23 24 24 24 24 23 20 20 21 21 21 20 19 18 17 16 15 15 15 15 15 15 15 14 14 13 12 12 14 13 13 14 14 13 14 14 14 13 13 13 13
18 15 16 17 18 19 24 26 25 25 24 25 24 22 18 20 21 20 20 18 18 18 16 15 14 15 14 16 14 16 15 14 13 12 12 12 13 13 13 14 14 14 14 13 14 13 13 13 13
19 16 16 17 19 21 24 24 25 25 25 25 24 24 24 21 20 20 19 18 16 16 16 16 14 14 14 15 14 13 13 13 13 13 13 11 13 13 13 13 14 14 14 14 14 13 13 13 13
17 15 17 19 20 21 23 23 25 24 24 24 24 22 22 21 21 20 18 17 16 15 14 15 14 13 13 13 14 12 12 13 14 12 12 12 13 13 13 13 14 14 13 13 14 13 12 12 12
18 17 19 20 22 22 22 22 25 24 22 24 23 22 22 21 21 19 18 17 16 16 15 14 14 13 13 13 13 12 12 12 12 11 11 12 12 12 13 12 13 13 14 13 13 13 12 12 12
16 19 20 20 22 22 21 23 23 24 24 24 24 24 21 21 20 19 18 17 16 15 14 14 13 13 13 12 13 13 12 12 11 12 12 12 12 12 12 13 13 13 14 14 13 13 12 12 12
18 19 20 21 22 22 23 22 22 23 25 24 24 23 22 21 20 18 18 17 16 15 14 13 13 13 13 12 13 13 12 12 12 12 11 12 13 12 12 13 13 13 13 13 13 13 12 12 12
19 20 20 21 22 22 22 22 22 24 24 24 24 23 22 21 20 19 18 17 16 14 13 14 13 13 13 12 13 13 13 12 12 11 11 12 13 12 13 13 13 13 13 12 12 12 12 11 12
19 18 19 20 21 20 23 20 21 23 24 24 24 24 22 21 20 19 18 17 15 14 13 14 13 13 13 12 12 13 13 12 13 12 11 11 12 13 13 13 13 12 12 12 12 12 12 11 11
17 18 17 19 20 21 20 19 20 24 24 24 24 24 21 21 20 19 18 17 14 14 12 13 13 13 13 13 11 11 12 12 12 12 12 11 12 12 13 13 12 13 12 11 11 11 11 11 11
15 15 16 19 21 21 20 20 22 24 24 23 23 23 22 21 20 19 18 16 15 13 11 11 12 13 13 11 10 11 11 11 11 11 11 12 11 12 12 12 12 12 12 12 11 11 11 11 11
14 15 16 18 20 21 20 20 22 23 23 23 24 24 22 21 20 19 18 16 15 13 10 10 11 13 12 11 10 11 10 10 11 11 11 11 11 11 11 12 12 12 12 12 11 11 11 11 11
15 16 16 18 21 21 21 21 21 22 22 20 22 24 23 21 20 19 18 16 15 12 10 10 11 10 11 11 10 10 10 10 11 11 11 11 10 10 11 11 11 11 12 12 11 12 12 11 11
15 15 16 18 20 20 20 20 20 20 20 22 21 23 23 21 20 18 17 16 15 13 10 9 10 10 10 10 10 10 10 10 10 10 11 10 10 10 11 11 11 11 11 11 11 12 12 12 12
13 13 17 17 19 19 20 20 20 22 22 24 23 24 24 21 20 18 17 16 15 13 10 10 10 10 10 9 9 10 9 10 9 10 10 9 9 10 10 10 11 11 10 10 11 12 12 12 12
11 14 16 18 18 14 17 17 18 21 21 22 23 23 23 21 20 18 17 16 15 14 10 10 10 10 10 11 9 9 9 9 9 10 10 9 10 10 10 11 10 10 10 10 11 12 12 12 12
12 14 15 15 13 13 15 17 18 19 20 21 22 22 23 21 20 19 18 17 16 14 10 10 9 10 10 10 10 9 9 9 9 9 9 9 10 10 10 10 11 11 11 12 12 12 12 12 12
12 12 14 12 12 11 14 16 17 19 20 22 23 22 24 20 20 19 18 16 16 14 10 10 10 10 10 9 10 10 10 9 9 9 9 9 9 9 10 10 11 11 11 12 12 12 11 11 11
11 11 10 11 11 11 17 17 18 19 21 22 21 21 23 21 19 18 17 16 15 14 12 10 10 10 10 9 9 10 10 10 10 9 9 9 9 9 10 10 10 11 11 11 11 12 11 11 11
12 9 11 12 11 14 18 17 19 21 22 23 25 25 23 21 20 19 18 17 16 15 13 10 10 10 9 9 9 9 10 10 10 10 10 10 10 10 10 10 10 11 11 11 11 12 11 12 11
10 9 11 11 13 11 16 19 20 21 22 21 22 23 21 21 20 19 18 18 17 16 14 14 11 10 10 9 9 9 9 10 10 10 10 10 10 10 10 11 11 10 11 10 11 11 11 11 11
10 12 10 8 11 11 15 17 17 20 20 20 21 20 23 22 20 19 18 18 17 17 15 14 13 12 10 9 9 9 9 9 9 10 11 10 10 10 10 10 10 10 10 10 10 11 11 10 11
9 9 9 9 10 13 12 14 15 18 20 19 19 21 23 21 20 20 19 18 18 17 16 15 13 12 12 10 9 9 9 9 9 9 10 10 10 10 11 11 10 10 10 11 11 10 11 11 11
10 9 9 9 11 13 12 12 16 19 20 19 19 23 23 23 21 20 20 18 18 17 16 16 15 13 12 12 11 10 9 9 9 9 9 9 10 10 10 10 11 11 11 11 11 11 11 11 11

GFSSGP_850_temp_078.txt.gz
Temp
18 18 18 18 14 11 13 16 19 19 22 24 24 24 22 22 22 19 21 21 21 21 21 21 20 19 19 19 19 19 18 18 18 18 17 17 16 15 16 16 16 17 16 16 15 14 14 14 14
18 18 18 17 13 13 13 17 19 20 23 25 25 24 22 19 22 21 19 21 20 21 21 20 20 19 18 18 18 19 19 18 18 17 18 17 16 16 16 16 16 16 16 16 14 14 14 14 14
18 18 17 13 11 12 14 19 22 23 25 25 24 25 23 20 22 23 21 21 21 21 21 20 20 19 18 18 18 18 18 18 17 16 17 17 16 16 16 16 16 15 15 15 13 13 13 13 13
18 17 17 14 13 15 16 19 20 21 24 24 25 21 22 22 22 23 22 21 20 21 21 20 19 18 17 17 17 17 17 18 18 17 17 17 16 16 16 16 15 14 14 13 14 14 13 13 13
17 17 13 13 13 16 18 20 21 21 23 24 25 22 21 20 21 22 21 21 20 20 20 19 18 17 17 17 16 16 16 16 15 16 15 16 16 16 16 15 14 14 13 13 13 13 13 13 13
17 15 11 12 14 18 18 21 21 22 24 24 23 21 19 20 22 21 22 22 20 19 19 18 16 16 16 16 16 15 14 14 12 13 12 12 13 15 15 15 14 14 13 13 13 12 12 12 12
13 10 12 13 15 17 19 22 21 22 22 23 24 19 18 19 20 21 21 20 19 19 19 17 15 15 15 15 15 14 16 14 12 13 14 11 12 12 13 14 14 14 13 13 12 12 12 11 12
17 11 14 14 15 15 19 22 24 23 23 24 24 18 17 20 20 20 20 20 19 19 18 17 14 15 14 15 14 15 16 15 13 13 13 12 11 13 13 13 14 13 14 13 12 12 12 12 12
16 12 11 14 15 17 20 19 22 24 24 24 24 23 24 22 20 20 20 19 18 18 16 17 16 13 14 14 14 14 15 15 13 13 13 13 12 12 13 13 13 14 13 13 12 12 12 12 12
13 10 13 15 17 17 19 19 20 22 23 23 22 22 23 21 20 20 20 19 18 18 16 16 15 15 13 13 13 14 13 12 12 13 13 12 11 12 12 13 13 13 14 13 12 12 12 12 12
15 15 15 16 18 19 18 19 20 21 20 22 22 22 22 20 21 20 20 19 18 17 16 15 14 14 13 13 14 15 12 12 12 12 11 12 11 12 12 12 12 13 13 13 12 12 12 12 12
13 16 16 17 18 18 18 20 20 20 22 24 24 23 22 21 21 20 19 18 18 17 16 15 14 13 13 13 14 14 12 12 12 13 11 12 11 12 11 12 12 13 12 13 12 12 12 11 11
14 16 17 18 18 19 19 19 19 20 22 23 23 22 21 21 21 20 18 18 17 17 16 15 14 13 13 13 13 14 13 12 12 12 11 12 12 12 11 13 13 13 13 13 13 12 12 11 11
16 17 17 18 18 19 19 19 20 21 22 23 22 23 22 21 20 19 18 18 17 17 16 15 13 13 13 12 12 14 14 12 12 11 11 10 12 12 13 14 13 13 13 13 13 12 12 12 11
17 15 16 17 18 17 19 18 19 21 22 22 24 23 22 21 20 20 20 18 18 17 16 15 13 13 13 12 12 14 14 11 11 11 11 11 12 13 13 14 14 14 13 13 12 12 12 12 11
15 15 14 17 17 18 18 17 19 22 22 22 23 24 22 21 21 20 20 18 18 17 16 15 13 13 13 13 12 12 12 12 11 11 12 12 12 13 13 14 13 13 13 13 12 11 11 12 11
13 13 14 15 18 18 18 18 19 22 22 20 23 23 22 21 20 20 19 19 18 17 16 15 13 13 13 12 11 11 12 12 11 11 11 12 12 13 14 14 13 13 13 12 12 11 12 12 11
12 12 13 13 17 18 18 18 20 21 21 20 21 23 20 20 21 20 19 18 17 16 15 14 13 12 12 10 10 11 11 11 11 11 11 11 12 13 13 13 13 13 12 12 12 11 11 12 12
13 13 13 14 16 17 16 17 18 20 20 20 20 21 20 21 20 19 18 18 16 15 14 14 12 12 12 10 10 10 11 11 11 11 12 12 11 12 12 13 13 12 12 12 11 11 11 11 11
13 13 13 15 17 17 16 16 18 19 19 20 20 20 20 18 18 18 17 17 15 15 14 13 12 12 11 10 10 11 11 11 11 11 11 12 11 11 11 12 12 12 11 11 11 11 11 11 11
12 12 12 13 14 16 16 16 16 18 19 21 20 23 21 19 18 18 17 16 15 14 14 14 11 11 11 10 10 10 10 10 10 11 10 10 10 10 11 11 12 11 12 11 11 11 11 11 11
10 13 13 13 13 12 15 12 15 17 18 19 20 21 21 18 20 19 17 16 15 14 14 13 12 11 10 9 10 10 10 10 10 11 10 10 10 10 10 10 11 11 11 11 11 11 11 12 11
11 13 13 12 11 11 14 12 15 17 17 19 19 20 20 19 20 19 19 17 15 14 14 13 10 10 10 11 10 10 10 10 10 10 10 10 9 9 10 10 11 11 11 11 11 11 11 11 11
13 11 11 12 11 10 13 13 14 16 18 20 20 21 20 18 19 18 17 17 15 14 13 13 10 10 10 10 10 10 10 10 9 9 9 9 9 9 10 10 10 10 11 11 11 10 10 12 12
10 10 10 9 10 10 16 14 15 18 18 19 20 21 20 18 16 16 17 16 15 15 13 12 10 10 10 10 10 11 10 10 10 9 9 10 9 9 9 10 10 10 10 10 10 10 11 11 12
9 9 9 10 10 12 16 14 17 19 20 20 21 21 18 16 17 18 19 17 16 15 13 14 10 10 9 9 10 10 11 11 11 11 10 10 10 10 10 10 10 10 10 10 10 10 11 11 11
8 9 10 9 10 10 13 16 19 20 20 19 18 17 17 16 17 18 18 17 17 16 15 15 10 10 10 9 9 10 10 10 10 10 11 10 11 10 10 10 10 10 10 10 11 11 11 11 11
8 9 9 8 10 11 14 15 16 17 17 18 18 16 17 17 16 17 18 18 17 16 15 15 15 10 10 9 9 9 10 9 9 10 10 10 10 10 10 10 10 10 10 11 11 11 11 11 11
8 8 9 9 9 11 11 13 15 14 14 16 17 18 17 17 18 18 18 18 17 16 15 15 14 12 10 9 9 9 9 9 10 10 10 10 10 10 10 10 11 10 10 10 11 11 12 11 11
9 8 9 9 9 11 10 11 13 12 14 17 18 18 19 20 18 18 18 18 17 17 16 16 15 14 13 12 10 9 9 9 9 10 10 10 10 10 10 10 10 10 10 10 11 11 10 10 10

GFSSGP_850_temp_081.txt.gz
Temp
18 18 18 18 14 10 12 14 16 18 21 23 23 22 20 22 21 19 22 22 22 21 22 21 20 19 18 18 19 19 19 19 18 17 17 17 17 17 16 16 16 16 16 16 15 14 14 15 14
18 18 18 17 12 12 12 14 18 18 21 24 23 22 21 20 21 21 22 22 21 21 21 21 21 19 19 18 18 18 18 18 18 17 17 16 16 16 16 16 16 16 16 16 14 14 14 14 14
17 17 17 12 9 11 13 16 18 20 23 22 23 23 22 21 22 22 22 22 21 21 20 20 20 20 18 18 18 18 18 17 17 17 17 16 16 15 16 16 16 16 15 15 13 14 14 14 14
17 17 16 12 12 12 14 18 18 18 23 24 23 21 21 23 23 23 23 22 22 21 21 20 20 19 18 17 17 17 17 17 17 16 16 15 15 16 16 16 15 15 15 12 12 13 14 13 13
16 16 11 11 12 13 15 17 19 19 20 22 23 21 21 22 22 22 22 22 22 21 21 20 19 18 17 17 17 17 16 16 15 14 14 15 14 15 16 16 15 14 14 13 13 13 13 13 13
16 14 10 10 12 15 16 19 19 19 21 21 21 19 20 21 21 21 21 21 21 20 20 19 18 17 17 16 16 15 15 15 14 13 12 13 13 14 13 13 13 13 13 13 13 13 13 13 13
12 9 10 11 13 15 17 20 19 19 18 20 22 17 19 20 21 21 20 20 20 20 20 18 17 16 15 15 15 14 15 14 14 12 12 12 12 13 12 13 13 13 13 12 12 13 13 12 13
16 10 11 12 14 14 17 19 20 20 20 22 23 17 17 21 21 20 19 19 19 19 18 18 17 14 14 15 14 14 14 15 14 13 14 11 12 10 13 12 13 13 13 12 12 12 12 12 12
15 10 8 12 14 16 18 18 20 20 20 21 22 22 23 22 20 19 19 19 19 18 18 17 17 15 14 14 14 14 14 14 15 13 13 14 13 11 11 12 13 13 13 12 12 12 12 12 12
11 9 11 12 16 16 17 17 18 19 19 19 20 23 22 22 20 19 19 20 19 19 18 17 16 15 14 14 14 14 13 13 15 13 13 14 13 12 12 12 12 12 12 12 11 11 11 11 11
13 13 13 15 17 17 16 16 18 18 17 19 20 22 22 22 20 20 20 20 20 18 17 17 16 15 14 13 13 13 13 13 14 14 14 12 12 13 12 12 12 12 12 12 11 11 11 12 12
12 13 15 16 17 16 15 17 17 18 18 20 20 21 20 21 21 21 21 20 19 18 17 17 15 15 14 13 13 13 13 14 13 13 12 12 12 11 11 11 12 12 11 11 11 11 12 12 12
12 14 15 16 16 17 17 16 16 18 19 21 20 20 21 21 22 21 21 19 18 18 17 17 15 15 14 13 13 13 13 13 13 11 12 12 11 11 11 11 12 12 11 11 11 11 11 11 12
14 14 15 16 16 16 16 16 17 18 19 20 20 21 21 21 22 21 20 19 18 17 17 16 16 15 14 13 13 12 12 12 12 12 11 12 11 11 11 11 12 12 11 11 11 11 11 11 11
15 13 13 14 15 14 18 15 15 19 19 20 21 21 21 22 21 21 21 20 19 18 17 16 16 15 14 13 12 12 12 11 11 12 11 11 11 11 12 12 12 12 12 12 11 11 11 11 11
13 13 12 15 15 16 16 15 17 19 20 20 21 21 20 21 21 21 20 19 19 18 17 16 15 15 14 12 12 11 12 12 12 11 11 10 10 11 12 12 12 12 12 12 11 11 11 11 11
11 11 11 13 16 15 15 16 17 19 19 19 20 21 21 20 20 20 20 19 18 17 16 16 15 14 13 12 11 11 12 12 12 11 11 10 10 11 12 12 12 13 12 12 12 11 11 11 11
10 10 11 11 15 14 14 14 15 17 18 18 19 20 20 21 22 21 19 18 17 17 16 15 14 14 13 13 11 11 11 11 11 11 11 10 10 11 12 12 13 13 12 12 12 11 11 11 11
11 11 11 12 13 14 14 14 15 16 17 16 18 18 20 21 22 20 19 18 16 16 15 15 14 14 13 12 11 11 11 11 11 11 11 11 11 12 12 12 12 13 13 12 12 11 11 11 11
10 10 10 12 14 14 13 13 15 16 16 17 18 18 19 19 19 19 18 17 16 16 15 14 14 13 12 13 10 10 10 11 11 11 11 11 11 11 12 12 13 13 12 12 12 11 11 11 11
10 10 10 11 13 13 13 14 15 17 16 17 18 20 19 18 19 18 17 17 16 15 15 15 14 12 12 13 10 10 10 10 11 11 11 11 11 11 11 11 12 12 12 12 12 11 12 12 11
9 11 11 12 11 10 12 11 13 14 15 16 18 19 18 18 17 18 18 17 16 15 15 14 13 12 12 12 10 10 10 10 10 11 11 11 10 10 10 10 11 12 12 12 12 12 11 12 11
9 10 11 11 10 10 11 11 12 14 15 16 17 19 20 19 19 18 19 19 17 15 15 15 13 12 11 11 11 10 10 10 11 10 10 10 10 10 10 9 10 11 11 11 11 11 11 11 11
10 10 10 10 10 9 11 11 12 14 16 18 19 19 20 19 17 16 15 16 16 15 15 14 12 11 11 11 11 10 9 10 10 10 10 10 10 9 9 9 9 10 11 11 11 11 11 11 11
9 9 7 7 8 9 13 12 13 15 17 18 18 19 19 20 17 15 15 14 16 16 15 14 12 11 9 10 11 10 10 9 9 10 10 10 10 10 10 9 9 9 10 11 10 10 11 11 11
8 8 8 9 9 10 13 11 14 16 18 19 18 19 19 19 18 17 16 16 17 17 15 14 13 11 9 9 10 10 10 10 10 10 10 10 10 10 10 9 9 9 10 10 10 10 10 10 10
9 8 9 9 9 10 10 13 16 14 18 15 15 17 19 19 16 15 15 15 17 17 16 15 13 12 9 9 9 10 10 10 10 10 10 9 9 9 10 9 9 10 10 10 10 10 10 9 10
8 9 9 8 9 10 11 13 12 11 12 14 14 15 17 16 13 13 13 17 17 17 16 15 13 13 12 9 10 10 10 10 10 10 10 9 9 9 9 9 9 9 10 10 10 10 10 9 10
9 8 7 8 9 10 11 11 12 11 12 12 13 13 15 15 14 14 14 15 16 16 16 14 13 13 12 9 9 9 10 10 10 10 10 10 10 9 9 10 9 9 9 9 9 10 10 10 10
9 9 9 9 10 9 9 10 11 11 11 12 12 13 15 15 14 14 14 15 16 16 15 14 13 13 13 11 9 9 9 10 10 10 10 10 10 10 10 10 10 10 10 10 10 10 10 10 10

GFSSGP_850_temp_084.txt.gz
Temp
17 17 17 18 14 10 12 13 15 16 19 21 22 21 20 21 19 18 22 23 23 22 22 22 21 20 19 18 18 18 17 18 18 18 18 18 18 17 17 17 17 17 16 16 16 16 16 15 15
17 17 17 17 11 12 12 13 16 17 20 21 21 21 21 21 21 22 22 22 22 22 22 21 21 20 19 19 18 18 17 17 17 17 17 17 17 17 17 16 16 16 16 16 16 15 14 14 14
17 17 17 11 8 11 13 14 16 18 20 21 22 21 22 22 22 23 23 22 22 22 21 21 20 20 19 18 18 17 17 17 17 17 16 16 16 16 16 16 16 16 15 15 15 15 14 14 14
17 17 15 11 11 11 13 17 16 16 21 22 22 21 22 22 23 23 23 22 22 21 20 20 20 19 18 18 17 17 16 16 16 16 16 16 15 15 15 15 15 15 14 14 14 14 14 14 14
16 16 9 10 11 11 13 15 17 17 19 20 20 20 21 22 23 23 22 22 22 21 19 20 19 19 18 17 17 16 16 16 15 15 15 15 15 14 15 14 14 14 14 14 14 14 13 14 14
15 13 9 9 11 13 14 17 18 18 19 21 19 19 21 23 22 22 22 22 21 20 20 19 19 18 17 16 16 16 16 15 15 14 15 14 15 14 14 13 14 13 13 14 13 13 13 13 13
11 9 9 9 12 14 15 18 17 18 18 19 20 18 22 23 22 22 22 21 20 20 19 19 18 17 16 15 15 15 15 15 15 15 14 14 14 15 13 14 14 13 13 13 13 13 13 13 13
15 9 9 10 13 14 17 19 20 19 18 20 20 18 20 21 21 21 21 20 20 19 19 18 17 16 16 15 14 14 14 14 14 14 14 13 13 12 12 13 12 13 13 13 13 12 12 12 12
14 10 7 11 12 15 16 17 18 19 19 19 20 20 21 21 19 20 20 20 19 19 18 18 17 15 14 14 14 13 13 13 13 13 14 14 13 12 12 12 12 12 13 13 12 12 12 12 12
11 8 10 11 13 14 16 16 17 17 17 18 18 20 21 20 20 19 20 20 20 19 18 17 17 15 15 14 14 14 13 13 12 12 13 13 14 12 13 13 11 12 12 12 11 11 11 11 11
12 11 11 13 15 16 15 14 16 16 15 18 19 20 20 20 19 19 20 21 21 20 18 17 17 15 15 15 14 14 13 13 12 12 12 13 12 12 12 12 12 11 11 12 11 11 11 11 11
11 11 14 15 16 15 14 16 15 16 17 19 19 19 19 20 19 19 20 21 20 19 18 17 17 15 15 14 13 14 13 13 12 12 12 12 12 12 12 12 12 11 11 12 11 11 11 11 12
11 12 14 15 15 15 16 14 15 15 17 18 19 19 20 20 20 20 19 19 19 19 18 17 17 15 15 14 14 13 13 12 12 12 12 12 11 12 12 12 11 11 11 12 11 11 11 11 11
13 13 13 14 14 15 14 15 15 16 18 18 18 19 20 20 21 20 20 20 19 19 18 17 17 15 15 14 14 13 13 13 12 12 12 12 11 12 12 11 11 12 11 11 11 11 11 12 11
13 11 11 12 13 13 15 13 13 16 18 18 19 20 21 21 21 21 21 21 21 20 18 17 16 15 14 14 14 13 13 12 12 12 12 11 12 12 12 11 11 11 11 11 11 11 11 11 11
12 12 11 13 13 14 15 14 15 18 18 18 18 19 20 21 21 21 21 21 20 19 18 17 16 15 14 14 13 13 12 12 12 12 12 12 12 11 11 11 12 11 11 11 11 11 11 11 11
9 9 10 12 14 14 12 14 15 18 17 16 18 19 19 20 20 20 21 21 20 19 18 17 15 15 14 13 11 11 11 11 11 12 12 12 12 11 12 12 12 11 11 11 11 10 11 11 11
8 10 10 11 12 12 11 12 13 15 16 16 18 18 19 19 20 21 21 21 20 18 17 16 15 14 13 12 12 11 11 11 11 11 11 11 11 11 11 11 12 12 11 11 10 10 10 11 11
10 9 9 9 11 11 12 12 14 14 14 13 16 17 18 19 21 20 20 20 19 17 17 16 14 14 13 12 11 11 11 11 11 11 11 10 10 10 10 11 12 11 12 11 10 10 10 10 11
9 9 9 9 11 11 10 11 13 13 13 15 15 17 18 19 19 20 20 19 18 17 17 15 15 14 14 12 12 10 10 11 11 11 10 10 10 10 10 11 11 11 12 10 10 10 10 10 11
9 8 9 9 10 11 10 11 12 14 15 16 17 18 18 18 19 18 19 19 17 17 16 15 15 14 13 12 11 10 10 10 10 10 11 11 10 10 11 11 11 11 12 11 11 11 10 10 10
8 10 10 9 9 8 10 9 12 13 13 14 14 16 18 19 19 18 17 17 17 17 16 15 14 13 13 12 11 9 10 10 10 11 11 11 10 10 11 11 11 12 11 11 11 11 10 11 11
9 10 9 9 8 9 9 8 10 12 13 13 13 16 19 20 20 18 18 16 16 16 15 15 14 13 13 12 11 9 10 10 10 11 10 10 10 11 11 11 11 11 11 11 11 11 11 11 11
10 9 9 10 10 8 9 9 9 11 13 14 15 17 19 20 19 16 16 15 14 13 14 14 13 13 13 12 10 10 9 10 10 10 10 10 10 11 10 10 10 9 10 11 11 12 11 11 11
9 8 6 7 8 8 11 9 10 13 14 15 15 17 18 19 19 18 18 15 15 14 14 14 13 13 13 12 10 10 9 9 10 10 10 10 11 10 9 9 9 9 8 10 11 11 11 11 11
7 8 8 8 8 9 10 9 11 12 13 12 13 13 15 17 18 20 20 16 14 13 14 14 14 13 13 12 11 9 10 9 10 10 10 10 10 11 10 10 9 9 8 8 10 10 11 11 11
8 7 9 8 8 9 10 11 13 12 11 12 12 12 12 13 17 19 18 14 13 14 15 15 15 14 13 11 11 10 9 9 9 9 9 10 10 10 10 10 9 9 9 8 8 10 10 10 10
9 8 8 8 7 9 10 10 12 10 10 11 11 11 11 12 16 16 15 14 12 13 16 15 14 15 12 10 9 9 10 9 9 9 10 10 9 10 10 10 10 9 9 8 9 9 9 10 10
8 8 7 7 8 9 8 10 12 11 11 11 11 11 10 12 14 13 12 12 12 13 15 14 13 14 12 10 9 9 9 9 9 10 9 9 9 9 9 9 9 9 9 9 9 9 10 10 10
9 8 9 8 8 8 8 8 11 11 11 12 12 10 9 12 11 11 10 9 10 12 13 13 13 13 12 10 9 8 9 9 9 9 9 9 9 9 9 9 9 9 9 9 9 10 10 10 10

GFSSGP_850_temp_087.txt.gz
Temp
18 17 17 17 19 17 18 19 17 20 20 19 20 21 23 22 22 23 23 22 23 23 23 22 22 22 21 20 19 18 18 18 18 18 18 18 18 18 17 17 17 17 17 17 16 16 16 16 15
17 17 17 16 19 20 20 17 19 21 20 19 20 20 21 23 22 22 22 23 23 23 22 22 22 22 20 19 19 18 17 17 18 18 18 17 17 18 17 17 17 16 16 16 16 16 16 16 15
17 17 17 18 16 20 20 18 21 20 20 19 21 21 22 23 22 23 23 23 22 22 22 22 21 21 20 19 18 17 17 17 17 17 17 17 17 17 16 16 16 16 16 16 15 15 15 15 15
16 16 15 17 17 17 19 19 18 19 20 20 21 22 22 23 23 23 23 23 22 22 21 21 21 20 20 18 17 17 17 17 17 17 17 17 17 17 15 15 15 15 15 15 14 14 14 14 14
16 16 15 15 16 16 16 16 17 19 19 19 19 21 21 23 23 23 23 22 22 22 21 21 20 20 19 18 17 16 16 16 17 17 16 16 16 16 15 14 15 15 15 14 14 14 14 14 14
15 14 15 16 15 17 16 17 18 19 19 20 19 19 21 23 23 23 22 22 22 21 21 20 19 19 18 17 17 16 16 16 16 16 16 15 15 14 14 15 14 14 15 14 14 14 14 13 13
15 15 16 14 15 17 19 18 18 20 20 20 20 20 20 20 21 21 21 21 22 20 20 20 19 18 17 17 17 16 15 16 16 15 15 14 14 14 15 14 15 14 14 14 14 13 14 13 13
15 15 13 13 16 18 19 17 19 19 20 20 20 21 21 20 20 20 20 20 21 20 20 19 18 18 17 15 15 15 15 15 15 15 15 14 14 14 14 14 15 14 13 14 13 13 13 12 12
14 15 14 15 15 18 16 18 18 18 19 19 19 20 20 19 20 20 19 20 20 20 19 19 18 18 17 15 14 14 15 15 14 14 14 15 14 14 14 13 13 12 12 13 14 13 13 12 12
14 14 14 14 17 17 17 18 18 18 18 18 18 20 20 20 20 19 20 20 20 20 20 19 18 17 16 15 14 14 13 13 14 14 14 14 14 14 14 13 13 11 11 11 13 12 12 11 11
13 14 14 14 15 15 17 15 16 17 17 17 18 18 18 19 19 19 19 20 20 19 19 19 18 17 16 15 14 14 13 13 13 13 13 13 13 13 13 12 12 11 11 12 11 12 12 11 11
13 12 14 15 15 15 16 17 16 16 17 18 17 18 18 18 19 19 20 19 19 18 18 19 18 17 16 15 14 14 14 13 13 13 12 13 12 12 13 12 12 11 11 12 11 11 12 11 11
12 13 14 14 14 14 15 15 16 15 16 17 17 17 18 18 19 20 20 19 19 19 18 18 18 17 16 15 14 14 13 13 13 12 12 12 12 12 12 11 11 10 11 11 11 11 12 11 11
13 13 13 14 14 14 15 16 16 16 16 16 17 18 18 19 20 20 20 21 20 19 18 17 17 17 16 15 14 14 13 12 12 12 12 11 11 12 11 11 11 10 11 11 11 12 11 11 12
13 13 14 14 15 15 14 16 15 16 16 15 16 17 18 19 20 20 21 21 21 21 19 17 17 17 16 15 14 13 12 12 12 11 12 11 11 11 11 11 11 11 10 11 11 11 11 11 11
13 13 13 14 14 14 15 15 17 17 16 16 16 17 18 19 20 20 21 21 21 20 19 17 16 16 16 15 14 14 11 12 11 11 12 11 11 11 11 10 11 11 11 11 11 11 11 11 11
10 12 12 13 14 15 15 15 15 15 15 16 16 17 18 18 19 20 21 21 21 21 19 17 17 16 16 15 14 13 11 12 11 11 11 12 11 11 10 11 10 11 11 11 11 11 11 11 11
11 11 11 13 14 14 14 14 15 15 15 15 16 16 16 17 19 20 20 21 21 21 18 17 17 16 16 14 13 12 11 11 11 11 11 11 11 11 10 10 10 10 10 11 11 11 11 11 11
11 11 11 11 12 12 13 13 14 15 15 15 15 16 16 16 18 19 20 20 21 20 19 17 17 16 16 14 13 11 10 11 11 10 11 11 11 10 10 11 10 10 10 11 11 10 11 10 10
11 11 11 11 12 12 12 13 14 15 15 15 15 16 16 16 18 19 20 20 20 20 19 16 16 16 15 14 13 11 11 10 11 11 11 11 10 10 10 11 11 11 11 11 10 10 10 10 10
10 10 10 11 11 12 12 13 14 15 15 15 15 15 16 16 18 19 19 19 19 19 18 16 16 16 15 14 13 11 10 10 10 10 11 10 10 10 10 11 10 11 11 11 10 10 10 10 10
10 11 11 10 10 11 12 13 15 15 15 16 16 15 15 16 17 19 19 19 18 17 16 16 15 16 15 14 13 10 10 10 10 10 10 10 10 10 10 10 10 10 11 11 10 10 10 11 11
11 11 10 10 10 10 10 10 13 15 16 16 17 16 15 16 17 19 20 18 16 16 15 15 15 15 15 14 11 9 10 10 9 10 10 10 10 10 10 10 10 10 10 10 11 10 10 10 10
10 10 10 10 10 9 11 11 13 15 15 14 14 14 15 16 17 18 17 15 15 14 15 15 15 15 14 13 10 10 9 10 10 10 10 10 10 9 10 10 10 10 10 10 11 10 10 10 10
10 9 10 9 9 10 11 11 13 14 13 13 13 12 13 14 15 16 15 15 13 15 15 15 14 14 14 12 10 10 9 10 10 10 10 10 10 10 10 10 10 10 10 11 11 11 10 10 10
9 9 10 10 10 11 12 12 14 13 13 12 12 12 12 12 13 13 15 14 11 15 12 14 14 14 13 11 9 10 9 10 10 10 10 10 10 10 10 10 10 10 10 10 10 10 10 10 10
9 8 10 9 10 10 12 14 13 14 14 14 13 12 11 11 11 13 14 16 13 14 12 13 13 14 13 10 10 10 9 9 9 9 9 10 10 11 10 10 10 10 9 9 9 9 10 10 10
10 10 8 8 8 9 12 13 14 13 12 13 13 12 11 10 11 14 14 14 11 10 10 12 13 14 12 10 10 9 9 9 9 10 9 9 10 10 10 11 10 9 10 9 9 9 9 9 9
8 8 8 8 8 10 10 13 13 12 13 12 12 11 9 8 10 10 10 10 9 9 10 10 12 12 11 10 9 9 9 9 9 9 9 9 9 9 10 10 9 9 9 9 9 8 8 8 9
9 9 9 7 8 8 9 11 12 12 13 12 11 9 8 8 9 9 9 9 9 9 10 10 11 12 11 10 9 9 9 9 9 9 9 9 9 9 9 9 9 9 9 9 9 8 8 9 9

GFSSGP_850_temp_090.txt.gz
Temp
17 17 17 18 23 24 26 26 26 26 25 24 23 25 27 26 27 26 24 22 23 23 23 23 23 22 22 21 20 19 19 18 18 18 17 17 17 17 17 17 17 17 17 16 16 15 16 16 16
15 17 17 21 23 25 27 27 25 27 25 23 23 23 24 26 24 24 22 23 23 23 23 23 23 22 22 21 20 19 19 18 18 18 17 17 17 17 17 17 16 16 17 15 15 15 15 16 16
15 16 21 23 24 25 27 26 27 25 23 23 25 24 25 26 23 24 22 23 23 23 23 22 22 21 21 21 20 19 18 18 18 17 16 16 17 17 16 16 16 16 15 15 15 15 15 15 15
16 17 19 22 24 24 26 26 26 25 23 23 23 25 24 23 23 23 23 23 23 23 22 22 22 21 21 20 19 18 18 18 17 17 17 16 16 16 16 16 16 15 15 15 15 15 15 15 14
16 20 22 22 24 25 23 24 23 24 23 23 23 25 24 23 22 23 21 23 23 22 22 22 21 21 20 20 19 18 17 17 17 17 17 16 16 16 16 16 16 16 15 15 15 15 15 15 14
19 20 22 23 24 23 25 23 23 23 23 24 23 24 24 21 20 21 22 22 22 22 22 22 21 21 20 19 19 17 17 17 17 17 17 16 16 15 15 15 16 15 15 14 14 14 14 14 14
19 21 21 23 23 23 24 23 22 23 24 25 23 24 24 22 20 21 21 21 22 22 21 21 21 20 20 19 18 17 16 16 17 16 16 15 15 15 15 15 15 15 15 15 14 14 14 14 14
18 21 21 22 21 21 24 22 22 22 24 21 22 24 24 21 20 20 20 19 21 21 21 21 20 20 20 19 18 17 16 15 16 16 15 15 14 14 14 14 14 14 14 16 15 13 14 13 13
16 19 20 21 20 22 22 21 22 21 22 21 21 21 21 19 19 18 17 19 20 20 20 20 20 19 19 19 18 16 14 15 15 15 15 15 14 14 14 13 13 13 13 14 14 13 13 13 13
18 19 20 22 21 22 23 22 22 21 22 22 21 21 20 19 19 19 18 18 17 19 20 19 19 19 19 18 18 15 14 14 14 15 15 14 14 14 13 13 13 13 14 12 13 13 13 13 12
17 19 21 20 19 20 21 21 21 21 21 21 21 21 20 20 20 19 19 19 19 17 19 20 19 18 18 18 17 15 14 14 14 14 14 14 14 14 13 13 13 13 11 11 12 12 12 12 11
16 18 18 19 18 19 19 19 20 20 20 20 20 20 20 19 19 20 20 20 19 18 17 20 19 18 17 17 17 16 15 14 14 14 14 14 13 13 13 13 12 12 11 11 12 12 12 11 11
16 18 18 17 18 18 18 19 19 20 20 19 19 19 19 19 19 20 20 20 20 19 16 19 19 18 18 17 17 16 16 14 13 13 13 13 13 13 13 13 12 12 11 11 11 11 11 11 11
18 17 18 17 17 17 18 19 18 19 19 19 19 19 19 19 19 20 21 20 20 19 17 15 19 18 18 16 16 16 16 15 13 13 13 13 13 13 13 13 12 11 11 11 11 11 12 11 11
15 15 17 18 18 18 18 18 20 20 20 19 20 19 20 20 20 20 21 20 19 18 17 16 17 18 17 16 16 15 15 14 13 12 13 12 13 12 13 12 12 11 11 11 10 10 11 11 11
15 16 15 19 18 18 18 18 22 20 20 20 20 20 20 20 20 20 21 20 20 19 17 16 16 18 17 16 16 15 14 14 12 12 12 12 12 11 12 12 11 11 11 10 10 10 11 10 11
16 15 17 17 17 18 18 19 21 19 19 19 19 20 20 20 20 20 20 20 20 19 17 16 15 18 17 17 15 14 14 13 12 12 12 11 11 11 11 11 11 11 11 10 10 10 11 10 11
15 15 15 16 18 17 18 18 20 19 19 19 19 20 20 20 20 20 20 20 20 18 17 15 15 17 17 16 15 14 14 14 11 11 11 11 11 10 11 11 11 11 11 10 10 10 10 11 11
15 14 16 17 16 15 16 17 19 19 19 19 19 20 20 20 20 20 20 20 18 19 17 16 14 17 16 16 15 14 14 14 12 11 11 11 10 10 11 11 11 10 10 10 10 10 10 11 11
13 13 14 16 16 15 16 17 18 19 19 19 20 20 20 20 20 20 20 19 17 18 19 15 14 16 16 14 12 12 15 13 12 11 11 11 11 11 11 11 11 10 10 10 10 10 10 10 10
13 13 14 14 15 15 16 17 20 19 19 19 19 19 19 19 19 19 19 19 17 18 18 14 14 14 14 12 12 12 13 12 11 11 11 11 11 10 10 11 10 10 10 10 10 10 10 10 10
13 14 13 13 14 15 15 17 20 20 20 20 19 19 18 18 19 18 19 20 18 16 15 14 13 12 12 13 12 12 11 10 10 11 11 11 11 10 10 10 10 10 10 10 10 10 10 10 10
13 13 13 13 14 14 16 15 20 19 19 19 19 18 17 17 18 18 19 19 19 15 14 13 13 12 12 13 12 12 10 10 11 11 10 10 10 10 10 10 10 10 9 9 10 9 10 9 10
14 12 13 13 14 13 16 16 20 19 18 18 18 17 17 17 17 18 19 19 17 14 13 12 12 12 11 11 13 12 10 10 10 10 10 10 10 10 10 10 10 10 10 10 10 10 10 10 10
13 12 12 12 12 14 16 15 18 18 17 17 17 17 17 16 16 16 17 16 15 12 11 12 12 12 11 12 14 13 10 10 10 10 10 10 10 10 10 10 10 10 10 10 10 11 10 10 10
12 13 14 13 14 16 15 15 18 17 16 17 17 16 16 16 16 16 16 15 14 10 10 10 11 11 11 14 14 12 10 10 10 10 10 10 9 10 9 9 10 10 10 10 10 10 10 10 10
12 11 14 12 13 13 16 17 16 17 17 17 17 16 15 15 15 15 16 15 14 11 10 11 11 11 10 13 14 10 9 9 10 10 10 10 10 10 9 9 10 10 10 10 10 10 10 10 10
12 14 10 12 11 12 16 16 18 15 16 16 16 15 14 13 13 13 15 14 13 11 10 11 11 11 9 11 11 9 9 9 9 10 9 9 9 10 10 9 10 10 9 10 10 10 9 9 9
11 11 11 11 12 12 14 16 15 15 15 15 15 14 12 10 10 11 12 13 12 11 10 10 10 10 9 11 10 9 9 9 9 9 9 9 10 9 10 10 10 11 10 10 10 10 9 8 9
12 12 12 12 10 11 10 14 16 16 16 16 15 12 11 8 7 9 9 11 10 9 9 9 10 10 9 10 9 9 10 9 9 9 10 9 9 9 10 10 10 10 9 10 10 9 9 9 9

GFSSGP_850_temp_093.txt.gz
Temp
18 18 18 21 24 26 27 29 31 29 29 29 27 29 29 30 30 28 25 24 23 22 23 23 23 23 22 22 21 20 20 19 18 18 18 18 18 17 17 17 17 17 16 16 16 16 16 16 16
16 18 20 22 24 26 28 31 30 29 30 26 26 26 27 28 28 26 25 22 22 21 24 23 23 23 23 22 21 20 19 19 18 18 17 17 17 17 17 17 17 16 16 16 16 16 16 16 16
17 19 21 24 25 25 28 31 30 30 27 27 27 27 28 28 27 27 25 22 22 22 23 23 23 23 22 22 21 20 19 18 18 18 17 17 17 17 16 17 17 16 16 16 15 15 16 16 16
18 19 21 24 25 28 28 30 29 29 26 26 27 28 27 26 25 25 24 22 22 22 21 23 23 22 22 22 21 20 19 18 18 18 17 17 16 17 17 16 16 16 15 15 15 15 15 15 15
19 21 23 24 25 27 29 28 27 28 27 26 26 27 27 26 24 23 23 22 22 21 20 23 22 22 22 21 21 20 19 18 18 18 17 16 17 16 16 16 16 15 15 15 15 15 15 15 15
20 21 23 24 26 28 29 28 27 27 27 26 26 26 27 25 24 23 23 22 21 20 19 23 22 22 21 21 21 20 18 18 18 17 17 16 16 15 16 16 15 14 15 15 15 15 15 15 14
21 23 23 25 26 27 29 27 27 27 27 27 26 26 26 25 22 21 22 21 20 19 20 22 22 21 21 21 20 19 18 18 17 17 16 16 16 16 16 15 15 15 15 15 15 16 15 14 14
20 22 23 24 25 26 28 26 26 26 26 26 25 26 26 24 21 20 20 20 19 18 19 21 21 21 21 21 20 19 18 17 17 16 15 15 15 15 15 15 15 14 14 14 14 15 15 14 13
19 21 22 23 24 25 26 25 25 24 25 25 24 24 24 22 21 21 20 19 18 17 17 20 21 20 20 20 20 19 18 17 17 16 15 15 15 15 14 14 14 14 14 13 13 13 14 14 13
21 20 21 25 26 25 25 25 25 24 24 24 24 23 23 23 22 22 21 20 19 18 17 18 20 20 19 16 17 18 18 17 16 16 15 15 14 14 13 14 13 13 13 13 12 13 13 13 13
20 20 22 24 24 24 24 24 24 25 24 24 24 23 23 23 22 22 22 22 21 19 18 18 18 19 19 16 15 15 14 14 14 14 14 14 14 14 14 13 14 12 12 12 12 13 12 12 13
20 21 21 22 22 22 22 22 23 23 23 23 23 23 23 22 22 22 22 22 22 21 19 17 18 15 19 17 16 15 15 14 14 14 14 13 13 14 13 13 13 12 13 13 12 13 12 12 12
20 21 20 20 20 20 21 21 22 22 22 22 22 22 22 22 22 21 22 22 22 22 21 18 18 16 17 18 18 17 16 15 14 14 14 14 14 14 13 12 12 12 12 12 12 12 11 12 12
20 20 20 19 20 20 20 20 20 21 21 21 21 21 21 21 21 21 22 22 23 22 22 19 17 17 15 17 19 18 18 17 15 13 14 14 14 13 13 13 13 12 12 12 11 11 11 11 11
18 18 19 20 19 19 19 19 20 20 21 21 22 22 21 22 22 22 22 22 22 22 22 20 17 17 16 18 19 18 17 17 16 15 14 13 13 13 13 13 13 13 12 12 11 10 11 11 11
17 18 18 20 20 20 20 18 22 23 23 22 22 22 22 22 22 22 22 22 23 22 21 20 18 17 16 17 18 19 18 17 16 15 15 14 13 13 12 12 12 12 13 12 11 10 10 11 11
17 16 17 19 21 20 20 20 23 23 22 22 22 22 22 22 22 22 22 22 23 22 22 20 18 17 17 16 17 18 18 17 16 14 13 14 13 12 12 12 12 11 12 12 11 10 10 11 11
17 16 18 18 20 20 18 19 21 22 21 21 21 22 22 22 22 22 22 22 22 22 22 20 18 17 17 15 15 17 16 16 15 14 13 13 12 12 12 12 11 11 12 11 11 10 10 11 12
17 17 17 18 21 19 18 19 20 21 21 21 21 22 22 22 22 22 22 22 22 22 21 20 18 16 16 14 14 16 15 15 14 13 13 13 12 12 12 11 11 11 11 11 11 10 10 11 12
15 15 15 17 19 19 18 18 20 21 22 21 21 22 23 23 23 23 22 22 21 21 20 19 18 16 15 14 14 13 13 13 13 13 13 13 11 11 11 11 11 11 11 11 10 10 10 11 12
15 15 15 16 17 18 18 17 19 22 23 22 22 22 22 22 22 22 22 22 21 21 19 18 18 17 15 13 13 13 13 12 12 12 11 11 11 11 11 10 11 11 10 11 10 10 10 10 11
13 16 15 15 15 15 19 18 21 22 22 22 22 21 21 20 20 20 21 21 21 21 19 18 18 17 15 13 15 14 12 12 12 11 11 11 11 11 11 11 11 11 10 10 10 10 10 10 11
14 16 16 16 15 15 17 17 19 22 22 22 21 20 20 20 19 20 21 21 21 21 19 17 17 17 13 14 15 14 13 13 12 11 11 12 12 11 10 11 11 10 10 10 10 9 10 10 11
16 15 15 15 15 14 16 17 20 22 21 20 20 20 20 19 19 19 20 20 21 21 19 16 16 16 14 14 14 14 13 14 13 11 11 11 11 10 10 10 10 10 10 10 10 10 10 11 11
15 14 12 13 14 14 19 19 20 21 20 19 20 19 19 18 19 19 19 20 21 21 17 15 15 16 15 14 13 13 13 12 12 11 11 11 10 10 10 10 10 10 10 10 10 10 10 11 11
14 14 14 14 15 17 19 17 20 21 20 19 19 19 18 17 17 18 19 19 19 18 14 12 15 15 15 13 13 13 12 11 11 11 11 11 11 10 10 10 10 10 10 10 9 9 10 10 10
14 13 16 14 14 15 17 19 19 20 18 18 19 18 17 16 14 16 17 18 17 15 11 12 14 15 14 13 12 12 11 11 11 11 11 11 10 10 10 10 10 10 10 10 9 9 10 10 10
14 15 12 13 13 14 17 19 17 16 17 18 18 17 16 13 11 11 15 18 17 12 10 11 13 14 12 12 11 11 11 10 10 11 10 10 10 10 9 9 10 9 10 10 10 9 10 10 10
13 12 13 14 15 14 16 17 17 17 17 17 17 16 14 11 8 7 10 15 16 13 10 10 12 13 12 11 10 11 10 10 10 10 10 10 10 9 9 9 8 9 9 9 9 10 10 10 10
15 14 14 12 12 15 14 14 17 18 18 17 17 15 13 10 6 6 8 10 12 10 10 10 11 12 10 11 10 11 10 10 9 9 10 10 9 9 9 9 9 9 9 9 9 10 10 10 10

GFSSGP_850_temp_096.txt.gz
Temp
19 18 19 19 22 23 24 26 30 30 31 31 29 29 30 29 28 26 26 25 25 24 24 24 23 23 23 23 23 21 20 19 18 18 18 18 18 18 17 17 18 17 17 16 16 16 17 17 17
18 17 19 21 21 22 25 28 29 31 31 28 28 28 28 29 28 26 24 24 23 25 24 24 24 23 23 22 22 21 20 19 18 18 18 18 18 17 17 17 17 16 16 16 16 16 16 16 17
18 18 21 22 22 22 25 28 31 31 29 28 28 28 28 29 29 26 25 23 23 24 24 24 23 23 23 22 22 21 20 19 18 18 17 17 17 17 17 17 17 16 16 16 16 16 16 16 16
17 18 20 21 22 25 26 28 29 30 29 28 28 28 28 27 27 26 24 23 22 22 24 23 23 23 23 22 22 21 20 19 18 18 17 17 17 17 16 17 17 16 16 16 16 16 16 16 16
17 21 21 21 23 25 27 28 29 29 29 28 27 27 28 27 25 24 24 23 22 22 22 23 23 23 22 22 22 21 20 19 19 18 17 17 17 17 16 16 16 16 15 15 15 16 16 16 16
19 21 21 22 23 25 27 28 28 29 28 28 27 27 27 26 25 24 23 22 22 22 21 22 23 22 22 22 21 21 20 19 18 18 18 17 17 16 16 16 16 16 15 15 15 15 16 16 15
20 21 21 22 23 25 27 28 29 29 28 27 27 27 27 27 24 23 23 22 22 21 21 22 22 22 22 21 21 20 20 19 18 18 17 17 16 16 16 16 15 15 15 15 15 15 15 15 15
20 22 21 22 23 24 26 27 28 28 27 27 27 27 27 25 22 22 22 22 21 20 19 22 22 22 22 21 21 20 19 19 18 17 17 16 16 15 15 15 15 15 14 14 14 14 14 14 14
20 20 20 21 22 24 26 27 27 26 26 26 26 26 25 23 22 21 21 21 20 19 18 21 21 22 21 21 21 20 19 18 17 17 16 16 15 15 15 15 14 14 14 13 13 13 13 13 13
20 20 20 22 24 24 26 26 26 26 25 25 25 25 25 23 23 22 21 20 20 19 17 18 19 21 21 21 21 20 19 19 18 17 16 16 15 15 14 14 14 13 14 13 13 14 13 12 13
19 19 21 22 23 24 24 25 25 25 25 25 25 24 24 24 23 23 22 21 20 19 18 17 18 19 20 18 21 20 20 19 17 16 16 15 15 14 14 14 14 13 13 13 13 12 13 13 13
20 21 21 22 22 22 23 23 24 24 24 23 24 24 24 23 23 23 22 22 22 21 19 18 18 18 19 17 19 19 19 18 17 16 15 15 15 14 14 13 14 13 13 13 13 12 12 13 12
20 21 21 22 22 22 21 22 22 22 22 23 23 23 23 23 23 23 23 22 22 22 20 19 19 18 18 18 17 17 17 17 16 15 15 15 14 14 14 13 13 13 13 13 13 12 12 13 13
20 21 21 21 21 21 21 21 21 21 21 21 22 22 22 23 22 22 22 22 22 22 22 20 21 19 19 18 18 18 17 16 16 15 15 15 15 14 14 13 12 13 13 12 12 12 12 11 11
19 19 20 20 20 21 20 19 20 21 20 20 20 22 22 22 22 22 22 22 22 22 23 21 21 21 19 19 17 18 18 17 16 15 16 15 15 14 14 13 13 13 13 13 12 12 11 10 10
18 18 17 20 20 21 20 18 20 20 20 21 21 22 22 22 22 22 22 22 22 22 22 22 20 21 19 18 16 16 17 18 18 17 15 15 14 14 13 12 12 12 12 12 12 12 11 11 10
17 16 17 18 20 20 21 20 21 21 21 21 23 23 22 22 22 22 22 22 22 22 23 22 20 20 20 18 16 15 15 17 17 17 17 15 14 14 14 13 13 12 12 12 12 11 11 11 10
15 16 17 18 19 20 18 20 21 21 22 22 22 22 22 22 23 23 23 23 23 23 23 23 21 20 20 17 15 15 15 14 15 16 16 16 15 14 13 12 12 12 11 12 11 11 11 11 11
17 17 17 19 20 20 19 18 20 21 21 21 21 22 22 22 22 22 23 23 23 23 23 23 21 19 20 18 15 14 15 14 14 14 15 14 14 14 12 12 12 11 11 11 11 11 11 10 10
17 16 16 18 19 18 18 18 20 20 20 20 21 21 21 22 22 22 23 23 22 22 22 22 20 19 19 18 16 13 14 14 14 14 15 13 13 13 12 12 11 11 11 11 11 11 10 10 10
16 16 16 16 17 18 18 17 19 20 20 21 21 21 21 22 23 23 23 23 22 22 22 22 20 19 18 18 14 13 13 13 13 13 12 12 13 12 12 11 11 11 11 11 11 11 10 10 10
15 17 17 16 15 14 18 15 18 21 22 21 21 21 22 22 21 21 21 21 22 22 22 21 20 19 17 17 14 13 13 13 12 12 13 12 13 12 10 10 11 11 11 11 11 11 11 10 10
16 17 16 16 15 15 15 15 17 20 21 22 21 21 21 20 20 20 20 20 21 22 21 21 20 19 17 17 15 14 13 13 12 12 12 12 11 11 11 11 11 11 10 10 11 10 10 10 10
16 16 15 15 15 13 15 15 17 18 21 21 20 20 20 19 19 19 20 20 20 21 21 20 19 18 17 17 15 14 14 13 14 13 12 12 12 11 11 11 11 11 10 11 11 10 10 10 10
15 13 10 10 12 12 16 16 17 19 20 20 20 20 18 17 17 17 19 20 21 21 21 19 18 18 17 16 15 15 15 15 14 13 12 12 11 11 11 10 10 11 10 11 10 10 10 10 10
13 13 11 11 12 14 16 15 17 20 20 20 19 18 17 15 14 13 15 17 20 21 19 18 17 17 16 15 14 15 14 14 14 13 12 12 11 11 11 10 10 10 10 10 10 10 10 10 9
12 12 13 12 13 11 12 18 18 18 18 19 19 17 15 14 12 10 12 13 19 17 16 16 15 16 16 15 14 14 13 13 13 12 11 11 11 11 10 10 10 10 10 10 10 10 10 9 9
12 14 12 12 10 11 11 13 12 14 17 18 18 16 14 12 9 9 9 10 14 17 15 15 15 16 16 15 14 13 13 12 11 11 11 11 11 11 11 10 10 10 10 10 10 10 10 9 9
14 11 12 12 13 10 14 14 12 11 15 17 17 15 12 10 7 6 7 10 11 13 14 13 13 13 15 14 13 12 11 11 10 10 11 11 11 10 10 10 9 10 10 10 10 10 9 9 9
16 13 11 11 12 14 12 10 9 13 16 16 15 14 11 9 6 4 7 8 9 10 10 12 12 12 13 13 11 11 10 10 10 10 10 10 10 9 9 9 9 9 10 10 9 10 9 10 10

GFSSGP_850_temp_099.txt.gz
Temp
19 19 19 18 15 13 15 18 21 23 24 28 28 26 25 27 25 21 24 25 26 25 24 24 24 24 24 23 22 21 20 19 19 19 18 18 18 18 18 18 17 17 17 17 16 16 16 16 16
18 18 18 18 14 13 15 19 21 24 27 27 28 28 27 26 25 24 24 25 25 25 24 24 24 24 23 23 22 21 20 19 19 18 18 18 18 18 18 18 17 17 17 16 16 16 16 16 16
18 18 17 14 13 15 15 20 22 25 28 28 27 28 28 27 26 24 25 25 25 24 24 24 23 23 23 23 22 21 20 19 19 18 18 18 18 17 17 17 17 17 16 16 16 16 16 16 16
18 17 17 14 14 16 19 21 23 24 27 28 27 27 27 27 25 25 24 25 25 24 24 23 23 23 23 22 22 21 20 19 19 18 18 18 17 17 17 17 17 16 16 16 16 16 16 16 16
16 17 13 14 15 18 20 22 23 24 26 27 27 25 26 25 26 24 23 23 23 24 23 23 23 23 22 22 22 21 20 20 19 18 18 17 17 17 16 16 16 16 16 16 16 16 16 16 16
16 18 13 15 16 19 20 24 24 25 26 27 26 26 25 24 24 23 23 22 23 24 23 23 23 23 22 22 22 21 20 20 19 18 18 17 17 16 16 16 16 16 16 16 15 16 16 15 15
14 13 14 14 17 19 21 24 23 25 25 26 27 23 26 25 24 23 23 22 22 23 22 22 22 22 22 22 22 21 21 20 19 19 18 17 16 16 16 16 15 15 16 15 15 15 15 15 14
17 14 15 16 17 18 21 23 24 25 25 27 27 23 24 23 24 23 23 22 22 22 21 21 22 22 22 22 22 21 20 20 19 18 18 17 16 16 15 15 15 15 15 15 14 14 13 14 13
17 15 15 16 17 19 22 22 24 25 26 26 26 26 24 24 23 23 22 22 21 21 21 21 21 22 22 22 21 21 21 20 19 18 18 17 16 15 15 15 15 14 14 14 13 14 14 13 13
15 14 16 17 18 19 21 21 21 22 23 25 25 25 23 23 23 23 22 21 21 21 21 21 21 21 21 21 21 21 21 20 19 19 17 17 16 15 15 14 14 14 14 14 13 14 14 13 12
16 15 16 18 19 20 20 20 22 20 20 24 23 24 25 23 22 22 22 21 20 20 20 20 20 19 20 21 21 21 21 20 19 19 18 17 16 15 15 14 14 13 14 14 13 13 14 13 13
15 17 17 18 19 19 19 21 20 20 20 21 22 22 23 23 23 23 22 22 22 20 20 20 20 19 19 19 20 21 21 20 20 19 18 17 16 15 15 14 14 14 14 13 13 12 13 13 15
16 17 18 19 20 20 21 20 20 20 20 20 21 21 21 22 23 23 23 23 22 21 20 20 21 20 20 18 19 19 20 20 20 19 18 17 16 15 15 14 14 14 13 13 13 12 13 13 14
17 18 18 19 19 20 19 19 20 20 20 20 20 20 20 21 21 22 23 22 22 22 22 20 20 20 20 19 19 19 20 19 19 18 19 18 16 16 15 15 14 14 13 13 13 12 13 13 13
17 15 16 17 18 17 19 17 17 20 20 20 20 20 20 21 21 21 22 23 22 22 22 21 20 20 19 19 19 18 18 18 18 19 18 17 16 15 15 15 14 13 13 12 12 12 11 12 11
14 14 13 16 17 18 17 16 18 20 20 19 19 20 20 20 21 21 22 22 22 22 22 22 21 20 20 19 18 18 17 17 17 18 17 17 16 16 15 14 14 14 13 13 12 12 11 11 11
12 11 12 14 16 16 16 16 18 19 19 19 19 19 19 20 20 21 22 22 22 22 22 22 21 20 20 19 18 18 17 16 16 16 16 16 16 15 15 14 13 12 12 13 12 11 11 11 11
11 11 12 13 15 16 16 16 18 19 18 19 20 19 19 21 21 21 22 22 22 22 22 22 22 21 20 20 18 18 16 16 15 14 15 15 15 15 15 14 13 13 12 12 11 11 11 11 11
12 12 12 14 16 15 16 14 16 17 18 18 19 19 20 20 22 22 22 22 22 22 22 22 22 21 19 18 18 17 17 15 14 13 14 15 13 14 14 12 13 12 12 12 12 11 11 11 11
12 12 12 14 15 16 14 14 14 15 15 18 18 19 20 20 21 21 21 22 22 22 22 22 22 21 20 20 19 18 17 15 14 13 13 13 13 13 13 13 12 12 11 11 11 11 11 10 11
13 12 13 13 15 14 13 14 14 16 17 18 19 20 19 19 20 21 21 22 22 22 22 22 22 21 20 19 18 16 16 14 13 13 13 13 12 13 13 13 12 11 11 11 11 11 11 11 10
12 14 14 14 14 11 14 12 14 16 17 18 19 20 19 20 21 20 20 20 20 21 22 22 22 21 19 19 18 18 18 16 14 13 13 13 13 13 12 11 11 11 11 11 11 11 11 11 11
12 14 13 14 14 12 12 11 13 15 16 18 19 19 19 19 18 17 17 19 20 20 21 21 22 20 19 18 19 18 18 16 13 12 12 12 12 12 12 12 11 10 11 10 11 11 10 10 10
13 13 12 10 11 10 12 12 12 15 16 18 17 16 15 15 16 17 17 18 19 19 20 21 21 20 19 18 19 19 18 16 12 12 12 12 12 11 11 11 10 10 10 10 11 11 11 11 10
11 11 8 7 9 9 13 12 13 16 17 15 14 13 12 13 14 14 15 15 17 18 20 20 20 19 18 19 18 18 16 16 13 13 13 12 12 12 11 11 10 10 11 10 11 10 11 10 10
10 11 7 8 9 10 13 12 14 17 17 10 13 12 11 11 10 11 11 12 15 18 20 20 20 19 19 19 18 16 16 15 15 14 13 13 13 13 12 11 10 10 10 10 10 10 10 10 10
8 8 9 7 10 9 11 13 14 12 12 10 11 10 9 7 6 8 10 10 12 13 15 17 18 17 18 17 17 16 15 15 14 14 13 12 12 12 11 10 10 10 10 10 10 10 10 10 10
10 10 8 7 8 9 11 11 8 7 7 9 10 8 7 6 6 6 7 8 10 11 12 15 16 16 16 16 16 15 15 13 13 13 12 12 12 11 11 10 11 10 10 10 10 10 10 10 10
7 7 8 9 10 9 10 9 5 6 9 9 9 7 5 4 3 2 5 6 8 9 10 11 12 15 15 15 15 14 14 13 13 12 11 11 11 11 10 10 10 10 10 10 10 10 10 10 10
9 8 9 7 10 11 9 8 7 7 8 9 9 7 4 3 2 1 2 4 6 8 9 9 10 11 12 14 14 14 13 12 11 11 10 11 11 10 9 9 9 9 10 10 10 10 10 10 10

GFSSGP_850_temp_105.txt.gz
Temp
18 18 17 18 14 10 12 13 16 17 20 23 23 22 22 24 23 21 24 25 24 24 23 22 21 21 21 21 21 22 21 20 19 19 19 19 18 18 18 18 17 17 17 17 16 16 16 16 16
17 17 17 16 11 11 12 13 16 17 21 23 24 25 24 23 24 24 23 24 25 24 23 23 23 23 22 21 21 21 21 20 19 19 18 18 18 18 18 18 18 17 16 16 16 16 16 16 16
16 16 17 11 8 11 13 15 16 20 21 21 22 24 25 24 25 25 25 25 24 23 23 23 23 23 23 22 21 21 21 20 19 19 18 18 18 18 18 18 17 17 16 16 16 16 16 16 16
17 16 15 11 11 11 13 16 18 18 21 22 23 20 25 26 26 25 25 24 24 23 23 23 23 23 22 22 21 21 21 20 19 19 18 18 17 17 17 17 17 17 16 16 16 16 16 16 16
16 15 11 10 11 12 15 17 17 18 19 21 22 21 24 25 25 25 25 24 24 24 24 23 23 23 23 22 22 21 20 20 19 19 18 18 17 17 17 17 17 16 16 16 16 16 16 16 16
15 13 9 10 12 15 15 18 18 18 20 21 21 21 24 25 25 24 24 25 24 24 24 23 23 22 22 22 21 21 20 20 19 18 18 18 17 17 17 16 16 16 16 16 16 16 15 15 15
12 9 9 11 13 14 15 19 17 19 19 20 22 20 23 24 24 24 24 24 24 24 24 23 23 22 22 21 21 21 20 20 19 18 18 18 17 17 16 16 16 16 16 15 15 15 15 15 15
14 9 11 11 13 13 17 19 19 19 19 21 21 19 20 22 23 23 23 23 23 23 23 23 23 22 22 21 21 21 20 20 19 18 18 18 17 17 16 16 16 15 15 15 15 15 14 14 14
14 10 8 12 13 14 17 17 19 19 19 20 20 21 20 21 20 22 22 22 22 23 23 23 22 22 22 22 21 21 20 19 19 18 18 18 17 17 16 16 15 15 15 14 15 14 14 14 14
12 8 11 12 14 14 16 16 17 17 18 18 19 21 22 20 19 19 22 23 23 23 22 22 22 22 22 22 22 21 20 20 19 18 18 18 17 17 16 16 15 15 14 14 14 14 14 14 14
12 11 13 14 15 15 14 15 16 16 16 18 19 20 21 21 20 18 18 21 23 23 22 22 22 21 21 21 22 21 21 20 19 18 18 18 17 17 16 16 15 15 14 14 14 14 14 14 14
12 13 13 14 15 15 14 16 16 16 16 17 18 19 20 21 21 20 19 19 20 22 22 21 21 21 20 21 21 21 21 20 20 19 19 18 17 17 16 16 15 15 15 14 14 14 14 14 14
12 12 14 15 15 15 15 14 15 16 18 18 18 19 20 20 21 21 21 20 19 19 21 22 21 21 20 20 20 21 21 21 20 19 19 18 17 17 17 16 15 15 15 15 14 14 14 13 13
13 12 12 13 14 14 14 14 15 16 17 18 18 19 20 20 20 20 21 21 20 19 20 20 21 21 20 20 20 20 20 21 20 20 19 18 18 17 17 16 16 15 15 15 14 14 14 13 13
12 11 12 14 13 13 16 14 13 16 17 18 18 18 19 19 20 20 20 20 21 21 20 19 20 21 20 20 20 20 19 20 20 20 19 18 18 17 17 16 16 16 15 14 14 13 13 12 12
11 11 11 13 12 14 14 12 14 16 16 16 17 18 18 19 19 20 20 20 20 20 20 21 20 20 20 20 20 20 20 19 19 19 19 18 17 17 16 16 16 16 15 14 13 13 12 12 13
8 8 9 10 12 12 13 11 13 14 14 14 15 16 17 18 19 19 20 20 20 20 20 20 21 20 19 19 19 20 20 20 19 19 18 18 17 17 15 15 15 15 14 14 13 12 12 12 12
8 7 7 7 9 10 10 10 12 13 14 14 14 15 16 16 18 19 19 20 20 20 20 20 20 21 20 20 20 19 19 19 19 18 17 17 17 17 15 15 15 14 14 13 12 12 12 12 12
9 8 8 9 11 10 10 10 11 12 13 13 14 14 15 17 18 18 19 19 19 19 20 20 20 20 21 19 20 19 19 20 19 18 17 17 16 16 16 15 14 13 13 13 13 12 11 12 11
8 8 8 9 10 10 10 10 11 12 12 13 14 14 14 17 17 18 18 19 19 19 20 20 20 20 20 21 21 20 20 20 20 18 17 17 16 16 15 15 14 13 13 13 12 12 11 11 11
8 8 8 8 10 10 10 10 11 12 13 14 15 14 14 11 12 15 17 18 19 19 19 20 19 20 20 20 20 20 18 18 18 17 17 17 16 15 14 14 13 13 12 12 12 12 11 12 11
8 10 9 9 8 7 9 7 10 11 12 13 14 10 8 8 10 11 12 15 16 18 19 19 20 20 19 19 20 20 20 19 19 18 18 17 17 15 14 13 13 12 12 12 12 12 11 12 12
8 9 8 8 7 8 9 7 9 11 11 12 11 8 7 6 5 5 7 9 13 16 17 19 20 21 20 20 19 20 19 19 20 18 18 17 17 15 14 13 12 12 12 12 12 12 12 12 11
9 8 8 8 7 6 8 7 9 10 11 12 7 6 5 4 4 4 4 6 9 13 16 19 20 21 21 20 19 19 20 19 18 18 18 18 17 15 13 13 12 12 12 12 12 12 11 11 11
7 6 4 3 5 6 9 8 9 8 9 8 7 4 3 4 3 2 2 4 8 11 15 17 19 17 17 19 20 19 17 18 18 19 18 17 17 15 13 13 12 12 12 12 11 11 11 11 11
5 5 4 5 6 7 9 8 7 7 7 5 4 3 1 2 4 0 1 2 5 9 10 13 14 13 13 14 14 16 17 17 17 18 17 18 17 15 13 13 12 12 12 11 11 11 11 11 10
5 3 6 6 7 5 7 10 9 4 3 3 1 1 0 -1 4 -1 -1 1 5 7 9 10 11 13 13 13 14 14 16 17 18 18 17 16 15 13 13 12 12 11 11 11 11 11 10 10 10
6 7 4 4 5 5 9 8 5 3 3 2 1 -0 -1 -2 0 -2 -2 1 3 6 8 9 10 11 13 13 14 14 17 17 17 17 16 15 14 13 13 12 11 11 11 10 10 10 10 10 10
5 5 6 6 6 6 7 5 3 2 1 1 0 -0 -2 -3 -3 -4 -4 1 2 4 6 8 9 10 11 12 13 14 16 15 16 15 15 14 13 13 12 12 11 11 10 10 10 10 10 10 10
6 6 5 6 6 8 7 4 2 0 0 -1 -0 -1 -2 -4 -4 -4 -3 -1 -1 2 5 6 8 10 10 12 14 14 15 15 14 14 14 13 12 12 12 11 10 10 9 9 9 10 10 10 10

GFSSGP_850_temp_108.txt.gz
Temp
17 17 17 17 13 9 12 13 13 16 18 21 21 21 20 22 21 20 25 25 24 24 23 22 21 21 20 20 21 21 21 20 20 20 20 19 18 18 18 17 17 17 17 17 16 16 16 16 16
17 17 16 16 10 11 12 12 15 15 19 21 22 22 22 21 24 24 24 24 24 24 23 23 22 21 21 21 21 20 20 20 20 19 19 19 19 18 18 17 17 17 17 16 16 16 16 16 16
16 17 17 11 7 11 12 13 15 18 20 20 20 22 22 23 24 24 24 25 24 24 24 23 22 21 21 21 21 20 20 20 19 19 19 18 18 18 18 18 17 17 16 16 16 16 16 16 16
16 16 15 11 10 11 13 15 16 17 20 20 21 18 22 24 24 24 25 25 25 24 23 23 22 22 21 21 21 20 20 19 19 19 18 18 18 18 18 17 17 17 16 16 16 16 16 16 16
16 15 10 10 10 11 12 15 17 17 18 20 20 19 21 24 24 25 24 25 25 24 23 23 22 22 21 21 21 20 19 19 19 19 18 18 18 18 18 17 17 17 16 16 16 16 16 16 16
14 12 9 9 11 13 13 16 17 17 18 19 20 19 21 22 21 22 23 24 24 24 23 22 22 21 21 21 20 20 19 19 19 18 18 18 18 18 17 17 17 17 16 16 16 16 16 16 16
11 8 9 10 12 14 14 17 17 18 18 19 20 18 21 21 21 21 22 23 24 23 23 22 22 21 21 21 21 20 19 19 18 18 18 17 17 17 17 17 16 16 16 16 16 16 16 16 15
14 9 9 10 12 13 16 18 19 18 18 19 20 18 18 20 20 21 21 21 23 22 22 22 21 21 21 21 20 20 19 18 18 18 18 17 17 17 17 17 16 15 15 15 16 15 15 15 15
13 9 7 12 13 13 16 15 17 17 17 18 19 19 20 20 20 19 20 19 21 22 22 22 21 21 21 21 20 19 19 19 18 18 18 17 17 16 16 16 16 15 15 15 15 15 15 15 15
11 7 9 11 13 14 15 14 15 16 16 16 17 19 19 19 20 20 19 19 20 20 21 22 21 21 21 21 20 19 19 19 19 18 18 17 16 16 16 16 16 15 15 15 15 15 14 14 15
11 9 10 13 14 14 14 14 15 15 14 16 17 18 18 19 19 20 19 19 19 19 19 19 21 21 21 21 21 20 19 19 19 19 18 18 17 16 16 15 15 15 15 15 14 14 14 15 15
11 11 12 13 15 14 13 15 14 15 15 16 17 17 17 18 19 19 21 20 18 18 19 19 19 20 21 21 20 20 20 19 19 19 18 18 17 16 15 15 15 15 15 15 15 14 14 14 14
10 11 13 13 14 14 14 12 13 14 16 17 17 17 18 18 19 19 20 21 21 19 19 19 19 20 20 20 20 20 20 20 20 19 19 18 18 17 16 15 15 15 15 15 15 14 14 14 14
12 11 11 12 13 14 12 13 14 15 16 16 17 17 18 18 19 19 19 20 20 21 21 20 19 19 19 19 20 20 20 21 20 20 19 19 19 18 16 15 15 15 15 15 15 14 14 14 14
12 10 10 11 12 12 13 11 11 15 14 14 14 15 15 16 17 18 19 19 19 20 20 21 20 19 19 18 18 19 20 20 20 20 20 19 19 19 17 16 15 15 15 14 14 14 13 13 12
9 10 10 12 11 13 13 11 12 14 13 13 13 14 15 15 15 16 17 17 18 19 20 20 20 20 20 19 19 19 18 18 19 19 20 19 19 18 18 16 16 15 15 14 14 13 13 13 12
7 7 8 9 9 10 9 9 11 12 12 12 12 13 13 14 16 16 17 18 18 18 19 19 20 20 20 20 19 19 19 19 19 18 19 19 18 18 18 16 15 15 14 14 13 13 13 13 12
7 7 7 7 8 9 8 8 11 12 12 11 11 12 12 14 15 16 17 17 18 18 19 19 19 19 20 20 19 19 19 19 19 19 18 19 18 18 17 17 15 14 14 14 13 13 13 12 12
8 7 6 8 9 8 8 8 10 11 11 10 11 12 13 13 15 15 16 16 17 18 18 19 19 19 19 19 19 19 19 19 19 19 18 18 18 18 17 17 15 14 14 14 14 13 12 12 12
7 6 6 7 8 8 8 8 10 10 10 11 12 12 12 13 13 14 15 16 17 17 18 18 19 19 19 18 19 19 20 19 20 20 18 17 18 18 17 17 16 14 14 13 13 13 12 12 11
7 7 7 8 8 7 7 8 9 10 11 12 12 12 12 12 11 11 12 14 15 16 17 17 18 19 19 18 18 16 16 17 16 18 19 17 16 17 17 17 16 15 15 13 13 12 12 12 11
6 8 8 7 6 7 8 6 9 9 10 11 12 12 6 5 6 8 9 11 12 13 14 16 17 18 19 19 18 15 15 17 19 19 20 18 17 17 17 16 16 15 14 13 13 12 12 12 11
7 8 7 7 6 5 7 5 8 9 9 9 7 5 3 3 3 4 5 5 6 8 11 14 17 18 19 19 18 17 16 18 20 20 19 19 18 17 17 16 15 15 14 13 12 12 12 12 12
8 6 6 6 5 4 7 6 7 7 5 5 5 4 3 2 1 2 3 6 6 7 8 12 16 18 19 19 18 18 17 18 18 18 18 18 18 17 17 16 15 14 14 13 12 12 12 12 12
5 4 2 2 3 5 7 6 7 4 3 2 2 1 1 -0 -1 -0 1 4 4 5 6 9 12 15 16 16 15 15 16 16 18 18 17 17 17 17 18 17 15 14 14 13 12 12 12 12 12
4 4 4 4 5 5 7 6 6 4 3 1 0 -0 -1 -2 -2 -2 -0 -0 2 3 6 8 10 12 13 12 13 13 13 15 14 15 16 15 16 17 17 17 16 14 14 13 12 12 12 12 12
4 3 5 5 5 4 5 6 6 4 3 2 0 -1 -2 -3 -4 -3 -2 -1 1 2 3 7 8 10 12 13 13 13 13 13 13 14 14 15 16 17 16 16 14 14 13 12 12 12 12 12 11
4 6 3 4 2 4 5 6 3 2 2 1 -0 -1 -3 -4 -4 -4 -3 -2 -0 -0 5 5 8 9 10 12 12 13 13 13 14 15 15 16 16 16 15 14 13 13 12 12 11 11 11 11 10
4 4 4 4 4 4 3 3 2 0 -0 -1 -1 -2 -4 -4 -5 -5 -4 -4 -2 -0 3 5 7 9 10 11 11 12 12 13 13 14 16 16 16 15 14 13 13 12 12 11 11 10 10 10 11
5 4 4 2 6 6 5 3 1 -1 -1 -2 -2 -3 -4 -5 -6 -6 -5 -5 -3 -2 0 2 5 6 8 9 11 12 12 13 13 15 15 15 15 14 13 12 12 11 11 11 10 10 10 10 10

GFSSGP_850_temp_111.txt.gz
Temp
17 17 17 17 19 17 18 20 16 19 19 19 20 20 22 22 23 24 25 24 23 23 23 23 22 22 21 20 20 20 20 20 20 19 19 19 19 18 18 18 18 18 17 17 17 17 16 16 16
16 17 17 16 19 19 21 17 18 20 20 20 21 21 21 23 22 23 24 23 23 24 23 23 22 22 21 20 20 20 20 20 20 19 19 19 18 18 18 18 18 18 17 17 17 16 16 16 16
16 16 17 18 16 20 21 18 19 18 19 19 21 21 21 23 22 22 23 23 23 23 23 23 22 22 21 20 20 20 20 20 19 19 19 19 18 18 18 18 18 18 17 17 16 16 16 17 16
16 16 14 17 17 17 18 18 17 19 19 19 19 21 21 21 21 21 22 22 23 23 23 23 22 21 21 20 20 19 19 19 19 19 19 18 18 18 18 18 18 17 17 17 16 16 16 16 16
16 15 16 15 15 16 16 15 17 18 18 19 19 21 20 21 21 21 22 22 22 22 23 22 22 21 21 20 19 19 19 19 18 18 18 18 18 18 18 18 18 17 17 17 16 16 16 16 16
15 13 15 16 15 16 17 16 17 18 18 19 19 20 20 21 21 21 21 22 22 22 22 22 21 21 20 20 19 19 19 19 18 18 18 18 18 18 17 17 17 17 17 17 16 16 16 16 16
15 15 15 13 15 17 17 17 18 19 19 19 19 20 20 20 20 20 20 21 21 21 21 22 21 20 20 20 19 19 19 18 18 18 18 17 17 17 17 17 17 17 17 17 16 16 16 16 16
14 15 12 13 15 17 17 17 17 18 18 18 18 19 19 18 19 19 20 20 20 20 20 20 21 21 20 19 18 18 18 18 18 17 17 17 17 17 17 17 16 16 17 17 17 16 16 16 16
13 14 13 15 15 17 16 16 16 16 16 16 17 17 17 18 18 19 19 19 19 19 19 19 20 20 19 19 18 18 18 18 18 17 17 17 17 16 16 16 16 16 16 16 16 16 16 16 16
13 12 13 14 15 16 15 15 15 15 16 16 16 17 18 18 18 18 18 19 18 18 19 19 19 19 18 18 18 18 18 17 17 17 17 16 17 17 16 16 15 15 15 15 16 16 15 15 15
11 14 12 13 14 14 15 15 15 16 16 16 16 17 17 17 18 19 18 19 18 18 18 19 19 19 18 18 18 18 19 18 18 17 17 17 16 16 16 15 15 15 15 15 15 15 15 15 15
12 12 13 13 13 13 14 14 15 15 15 16 16 16 16 17 18 18 19 18 19 19 19 19 18 19 19 18 18 19 19 19 19 18 18 17 17 16 16 16 15 15 15 15 15 15 15 15 15
12 13 12 12 12 12 13 13 15 14 15 15 15 15 15 15 16 17 18 18 19 20 20 20 19 19 19 19 19 19 19 20 20 19 18 18 17 17 16 16 15 15 15 14 14 15 15 15 14
11 12 12 12 13 13 13 14 12 14 13 14 14 15 15 15 15 16 17 18 18 18 19 20 20 20 20 19 19 19 19 20 19 19 19 18 18 18 17 16 16 15 15 14 14 14 14 14 14
11 11 12 13 13 13 11 13 13 12 13 13 13 13 14 14 15 16 16 17 17 18 18 18 19 20 19 19 19 19 19 19 20 20 19 18 18 18 17 17 16 16 15 14 14 13 14 13 14
11 10 12 12 11 12 13 14 13 12 12 13 12 12 13 14 15 15 16 16 17 17 18 19 19 19 19 20 19 19 19 19 19 18 19 18 18 18 18 17 16 16 16 14 14 13 13 13 13
9 12 10 11 11 11 12 12 13 12 12 12 12 12 12 13 14 15 15 16 16 17 18 18 18 19 19 19 19 19 19 19 19 18 19 19 18 19 18 18 17 16 15 15 14 13 13 13 13
11 10 9 10 11 12 11 11 12 12 12 12 12 12 12 12 13 14 14 15 15 17 17 18 18 18 18 18 18 19 18 18 18 19 19 18 17 18 18 18 18 16 16 15 14 13 13 13 12
9 9 9 10 11 9 10 11 12 12 11 11 12 12 12 12 12 12 12 14 14 15 16 17 18 18 18 18 18 18 18 18 19 19 19 19 17 17 18 17 18 16 16 16 15 14 13 13 12
9 9 9 10 10 10 11 11 12 12 11 12 12 12 12 12 11 9 11 12 12 14 15 17 17 18 18 17 18 18 18 19 19 19 19 19 19 17 18 17 18 17 16 15 15 14 13 13 13
9 9 9 9 10 10 10 11 12 13 12 11 10 7 5 5 4 5 5 7 9 10 12 15 16 17 17 17 15 15 14 14 15 15 18 19 19 18 17 17 16 17 16 16 16 15 14 13 13
8 9 9 9 8 9 10 9 11 12 11 8 6 4 3 2 2 2 2 3 5 7 9 12 15 16 17 17 16 13 15 13 13 18 19 19 19 18 18 17 16 16 16 16 16 15 14 13 13
9 9 8 8 8 8 9 7 11 12 9 5 4 3 2 0 0 -1 -0 1 3 5 5 7 12 13 16 17 16 15 14 15 13 17 18 18 19 19 18 17 17 15 16 16 16 15 14 13 12
8 7 8 7 7 6 9 8 10 7 4 3 3 2 0 -1 -2 -0 -1 0 2 3 4 5 6 9 13 16 16 15 15 13 13 14 16 17 18 19 18 17 16 16 16 16 16 15 13 13 12
7 7 6 6 6 7 8 8 9 4 4 3 2 1 -0 -1 -3 -2 -2 -1 0 1 2 4 5 7 9 14 16 16 13 13 13 14 16 17 15 17 18 18 17 16 16 16 15 14 13 13 12
6 6 6 5 6 7 8 7 8 5 4 2 1 0 -1 -2 -3 -4 -4 -3 -1 -1 1 2 3 7 8 10 13 11 11 12 12 12 13 14 14 16 17 18 17 17 17 16 15 14 13 13 12
5 4 7 6 6 5 7 7 5 4 3 2 -0 -1 -2 -3 -4 -5 -5 -4 -3 -2 0 -0 3 6 7 9 10 11 12 12 13 12 12 14 15 16 15 17 17 17 16 16 14 13 13 13 12
6 7 5 5 4 5 8 8 7 2 1 1 -1 -2 -3 -4 -5 -5 -5 -5 -3 -3 -2 -0 2 4 7 9 11 12 13 12 12 12 13 13 14 14 14 14 16 16 15 13 13 13 12 12 12
4 4 5 6 6 6 7 5 1 -0 -1 -1 -2 -3 -4 -5 -6 -6 -6 -6 -5 -4 -3 -2 2 5 7 9 11 12 12 12 12 12 12 13 13 14 14 14 15 15 14 13 12 12 12 12 11
5 5 4 3 6 5 5 5 -0 -1 -2 -3 -3 -4 -4 -5 -6 -6 -6 -6 -6 -5 -4 -3 4 5 6 7 10 11 12 11 12 12 13 13 13 13 13 14 14 13 12 12 12 11 11 11 10

GFSSGP_850_temp_114.txt.gz
Temp
17 17 17 18 23 24 26 27 26 26 25 24 23 24 26 25 26 26 25 22 21 21 23 23 23 22 21 21 21 20 20 20 19 19 19 19 19 19 18 18 18 18 18 18 17 17 17 17 17
16 17 17 21 24 25 27 27 25 26 24 22 23 23 25 26 24 24 24 20 21 19 23 22 22 22 21 21 20 20 20 19 19 19 19 19 18 18 18 18 18 18 18 17 17 17 17 17 17
16 16 21 23 24 25 26 27 26 24 22 22 24 23 24 24 22 21 21 19 21 18 20 23 22 22 21 21 20 20 20 19 19 19 19 19 18 18 18 18 17 17 17 17 17 17 17 17 17
16 18 19 22 24 25 25 25 23 24 23 22 23 25 23 21 20 20 19 19 20 18 18 22 22 22 21 20 20 20 19 19 19 19 19 18 18 18 18 18 17 17 17 17 17 17 16 16 16
17 19 22 22 23 24 24 23 21 23 22 22 23 25 24 21 20 19 19 19 17 18 17 21 21 21 21 20 20 20 19 19 19 19 19 18 18 18 18 17 17 17 17 17 17 17 17 16 16
19 19 21 23 24 23 24 22 21 22 23 22 22 23 23 21 20 18 18 18 18 17 17 20 20 20 20 20 20 19 19 19 19 18 18 18 18 18 17 17 17 17 17 17 17 17 17 16 16
19 21 22 23 23 22 24 21 22 22 23 23 21 22 23 22 19 18 18 18 19 19 19 19 20 19 19 19 20 19 19 18 18 18 18 18 18 17 17 17 17 17 16 16 16 16 17 16 16
18 20 21 21 21 21 23 21 21 21 22 19 20 23 22 20 19 19 18 19 18 19 18 18 19 19 18 18 19 18 18 18 18 17 17 17 17 17 17 17 17 17 16 16 16 16 16 16 16
16 19 20 21 20 21 21 20 20 19 19 20 19 19 19 18 19 19 19 18 16 18 18 18 18 18 17 17 18 18 17 17 17 17 17 17 16 16 16 16 16 16 16 16 16 16 16 16 16
17 19 20 21 21 21 20 20 20 19 20 20 20 19 18 18 19 19 19 19 18 16 18 18 18 18 18 16 16 17 17 17 17 17 17 16 15 14 14 15 16 16 16 16 15 15 15 15 14
17 18 20 18 18 18 19 19 19 19 20 20 19 18 18 17 18 18 18 18 19 18 15 18 18 18 18 17 16 15 15 15 16 16 15 16 14 15 14 14 15 15 15 15 15 15 15 14 14
16 17 17 18 17 17 18 18 18 18 18 18 18 17 16 16 17 17 17 17 17 18 16 16 19 18 19 18 18 18 16 17 18 17 15 15 15 14 14 15 14 14 14 14 14 13 13 13 14
15 17 16 16 16 16 16 17 17 17 18 18 16 16 16 16 16 17 17 17 17 17 17 16 16 18 19 19 19 18 18 15 17 18 18 17 17 16 16 15 15 15 14 14 14 13 13 13 13
15 15 15 15 16 16 16 17 17 17 15 16 16 16 16 16 16 16 17 17 17 17 16 17 15 15 16 18 19 19 19 17 19 19 18 18 17 16 17 15 14 15 14 14 14 14 13 13 13
14 14 16 17 17 17 15 17 17 17 15 16 17 17 16 16 16 17 17 16 17 17 16 17 18 16 16 18 18 19 19 19 18 19 19 18 17 15 17 17 15 14 14 14 14 14 13 13 13
15 15 16 17 15 16 16 17 19 16 16 17 17 16 16 16 16 16 16 16 16 17 16 16 17 18 17 18 18 17 18 19 19 19 19 19 18 17 16 17 17 14 14 14 14 14 14 13 13
15 16 17 16 16 15 16 16 17 16 16 15 15 16 16 16 16 16 15 15 15 15 15 15 16 17 17 16 16 17 17 16 16 18 19 19 19 18 17 15 17 16 15 16 14 13 14 13 13
17 15 16 15 16 15 15 16 17 16 15 15 15 15 16 16 15 15 14 13 12 12 13 15 15 15 16 15 14 14 14 14 14 15 16 19 19 17 17 14 14 16 16 16 15 14 13 13 13
14 14 14 16 16 14 15 16 17 17 16 16 16 16 15 14 12 10 10 9 9 9 10 12 15 14 14 14 14 15 14 14 15 15 16 18 18 18 16 15 16 18 18 16 15 14 13 13 13
13 13 14 15 14 14 15 15 16 18 17 15 15 14 11 9 8 7 7 7 6 6 7 7 9 11 11 12 14 15 15 14 15 15 15 15 16 18 18 18 18 18 18 15 15 15 13 13 13
13 13 13 13 14 14 15 15 18 16 15 13 11 9 8 7 6 5 5 5 4 4 5 5 7 8 11 10 10 14 14 14 14 14 14 14 17 19 19 19 18 18 17 17 14 15 15 13 13
12 14 12 12 12 13 15 13 16 18 14 11 10 8 7 6 5 4 3 3 3 3 2 4 6 9 9 8 9 11 15 15 14 13 13 18 18 18 19 19 18 18 17 17 16 14 15 13 13
12 12 11 11 11 12 13 12 15 17 14 10 8 6 5 4 4 3 2 1 1 2 1 2 4 7 8 5 6 8 11 14 15 14 13 15 19 18 17 19 18 18 18 17 16 14 14 15 13
11 10 11 11 11 10 14 14 15 14 7 6 5 3 4 3 2 1 1 0 0 0 0 4 4 5 7 7 6 7 9 13 15 15 14 13 15 18 18 18 17 17 18 17 17 15 14 15 14
10 10 10 11 10 11 12 11 13 8 6 5 4 3 3 1 0 -1 -1 -1 -2 -2 -0 3 4 4 5 6 6 8 8 10 14 15 15 14 13 12 15 17 17 16 17 17 16 16 14 14 14
10 10 10 9 11 13 11 10 13 8 7 5 4 3 1 0 -1 -2 -3 -3 -3 -4 -3 -1 1 2 4 5 6 7 10 10 13 14 15 14 13 13 13 14 17 16 17 17 17 16 16 14 14
9 7 10 8 9 9 10 12 9 7 6 5 3 1 -0 -2 -3 -3 -4 -4 -4 -5 -4 -2 -0 2 3 3 5 8 9 10 13 14 14 14 13 12 13 13 13 15 16 17 17 17 16 15 15
8 9 6 8 6 8 11 11 10 3 2 2 0 -1 -2 -3 -4 -5 -5 -6 -6 -5 -4 -2 -1 -0 1 2 4 8 10 11 12 12 13 13 13 13 13 12 13 14 16 17 16 16 16 14 14
7 7 7 8 8 8 9 8 2 0 -1 -1 0 -1 -2 -4 -5 -6 -6 -6 -6 -5 -5 -4 -1 -2 -0 2 4 8 10 11 12 12 12 13 13 13 13 12 12 12 13 14 16 16 15 14 13
8 8 8 6 7 8 8 7 1 -1 -1 -1 -1 -1 -3 -4 -5 -6 -7 -7 -7 -6 -6 -4 -4 -3 -1 1 5 9 11 12 12 12 12 12 12 13 13 13 12 12 13 13 13 15 13 13 12

GFSSGP_850_temp_120.txt.gz
Temp
19 20 20 21 23 25 26 29 32 30 30 28 27 27 27 28 28 26 25 22 22 22 22 23 23 23 23 22 22 22 22 22 21 20 20 20 19 19 19 19 19 18 18 18 18 17 17 17 17
19 19 20 22 23 25 28 31 31 29 27 27 27 27 28 28 26 25 23 22 21 21 21 21 22 22 22 22 22 22 22 21 21 20 20 19 19 19 19 18 18 18 17 17 17 17 17 17 17
18 19 21 24 24 24 27 30 29 28 27 27 27 27 27 26 24 23 22 21 21 21 21 20 21 21 21 21 22 22 21 21 20 20 20 19 19 19 18 18 18 18 17 17 17 17 16 17 17
18 21 21 22 24 27 29 30 28 28 27 26 27 27 27 24 24 22 21 21 21 21 21 20 20 21 20 20 21 21 21 21 20 20 19 19 19 18 18 18 17 17 17 17 17 17 16 16 16
19 21 23 24 25 27 29 30 29 27 27 27 26 26 27 24 23 22 21 20 19 21 21 20 20 20 20 20 20 20 20 20 20 19 19 19 19 18 18 17 17 17 17 17 17 16 16 16 16
21 22 22 23 26 28 30 29 28 28 27 26 27 26 26 24 22 21 21 20 19 20 20 20 19 19 20 19 19 20 20 19 19 19 19 19 18 18 18 17 17 17 17 17 17 16 16 16 16
20 22 23 24 25 26 28 28 27 26 25 26 24 25 26 23 21 21 21 21 19 19 19 19 19 19 19 19 19 19 19 19 19 19 19 19 18 18 17 17 17 17 17 17 16 16 16 16 16
21 22 22 23 24 25 27 27 25 25 25 24 24 24 24 23 21 21 21 21 20 19 18 18 18 19 19 19 18 18 19 19 19 19 18 18 18 17 17 17 17 16 17 17 16 16 16 16 16
21 20 21 23 25 25 26 25 25 24 24 23 23 23 23 22 21 21 21 21 21 20 19 18 17 18 18 18 18 18 18 18 18 18 18 18 17 17 17 17 17 17 16 16 16 16 16 16 16
21 21 22 25 25 24 24 23 23 22 23 23 23 23 23 22 21 20 20 21 21 21 20 19 17 16 16 18 18 18 18 18 18 18 18 18 17 17 17 17 17 17 16 16 16 16 15 15 16
21 20 22 23 23 23 22 22 22 22 22 22 22 21 21 21 20 19 20 20 21 21 19 19 18 16 16 16 16 18 18 18 18 18 18 17 17 16 16 15 16 16 16 15 15 15 16 16 15
21 22 22 22 22 21 21 21 21 21 21 21 21 21 21 19 19 19 20 20 20 20 20 17 17 17 16 17 16 17 17 18 18 17 18 18 17 16 15 15 16 16 16 16 15 15 16 16 15
22 22 22 21 21 21 20 20 20 19 19 20 20 21 20 19 19 19 20 19 19 20 19 18 16 16 16 16 16 16 17 16 17 17 17 17 17 17 16 15 16 16 15 16 15 15 15 15 15
20 21 21 20 20 20 21 20 20 20 20 20 20 20 20 19 19 19 19 19 19 19 19 19 18 16 16 16 16 16 16 16 16 16 16 16 16 16 16 16 16 16 16 16 15 15 15 15 15
19 19 20 20 20 21 21 20 19 20 20 20 19 20 20 20 19 19 19 19 19 19 19 18 18 18 16 16 16 16 16 16 16 16 16 16 16 16 16 16 16 16 16 16 16 15 15 14 14
18 19 18 21 22 21 20 18 21 21 20 20 20 20 20 19 19 19 19 18 17 17 17 17 16 16 16 16 15 15 15 15 16 16 16 16 16 16 16 16 16 16 16 16 16 16 15 15 14
18 17 19 21 22 21 20 18 21 21 21 20 19 19 19 19 19 16 15 13 13 12 12 13 13 13 13 14 15 15 15 15 15 16 16 16 16 16 16 16 16 17 16 17 16 16 15 15 15
18 19 20 20 22 22 21 20 20 21 21 20 20 20 19 19 17 13 12 11 10 10 10 10 10 10 11 12 13 14 15 15 15 15 16 15 16 17 16 15 16 16 16 16 16 16 16 15 15
19 19 19 19 20 20 19 20 20 20 20 20 20 20 20 19 14 12 11 10 9 8 8 8 7 8 8 9 11 12 14 15 15 15 15 15 15 16 17 16 15 16 17 17 16 16 16 15 15
18 18 17 18 19 19 19 19 19 20 20 20 20 19 15 14 12 11 10 9 8 7 7 6 6 6 6 7 8 10 12 14 15 15 15 15 15 15 16 16 15 17 17 16 15 15 16 15 15
17 17 17 17 18 18 17 17 18 20 20 21 18 15 13 11 10 9 8 7 6 5 5 5 5 5 4 5 6 8 10 11 14 15 15 15 16 15 15 15 16 15 17 17 16 16 16 15 14
15 17 17 16 15 14 17 14 16 18 18 19 14 12 10 9 8 7 6 5 4 3 3 3 3 2 3 3 3 5 6 8 12 12 15 15 16 16 15 15 15 15 15 15 17 17 16 14 14
16 17 16 15 14 14 14 14 15 17 17 12 11 10 9 8 6 5 4 3 2 1 0 -0 -0 -0 1 1 2 2 3 5 8 11 11 13 14 15 15 15 15 15 15 15 16 16 16 15 14
16 14 14 14 14 12 13 14 15 14 12 10 9 8 7 5 4 3 2 0 -1 -2 -2 -3 -2 -2 -2 -0 0 1 2 3 6 10 12 12 12 13 15 15 15 15 15 15 14 15 15 16 14
15 13 11 11 12 12 15 15 11 11 10 9 8 6 4 3 2 0 -1 -2 -3 -4 -4 -4 -4 -4 -4 -3 -2 -1 -0 1 2 7 11 13 13 13 13 14 15 15 15 15 16 16 17 14 13
13 13 11 9 10 12 14 12 11 11 9 6 5 4 3 1 -0 -2 -3 -4 -5 -5 -5 -5 -5 -5 -5 -4 -4 -2 0 1 3 5 8 11 13 14 13 13 14 14 15 15 15 16 14 13 13
12 11 13 11 11 10 11 13 11 8 6 5 5 3 2 -0 -2 -3 -4 -5 -6 -6 -6 -6 -6 -6 -5 -4 -3 -1 -1 0 2 4 5 8 11 13 12 13 13 14 14 14 14 14 13 14 13
12 12 9 10 8 8 11 12 6 3 3 3 3 2 1 -1 -3 -4 -4 -5 -6 -6 -6 -6 -6 -6 -5 -4 -3 -2 -1 0 1 3 4 7 10 12 12 12 13 12 13 14 14 13 12 13 13
11 11 10 10 9 8 8 8 2 1 1 1 2 1 -0 -2 -3 -4 -5 -5 -6 -6 -6 -6 -6 -6 -5 -4 -3 -2 -1 0 2 3 4 7 9 10 12 12 14 13 11 13 13 13 13 12 13
12 11 11 8 7 9 9 7 3 1 2 1 1 -0 -1 -3 -4 -5 -5 -6 -6 -6 -6 -6 -5 -5 -5 -5 -3 -2 -1 0 2 3 5 7 7 9 11 11 13 13 12 13 13 13 12 12 12

GFSSGP_850_temp_123.txt.gz
Temp
20 20 20 20 16 15 17 20 23 22 23 26 27 26 25 25 24 19 22 22 21 22 22 22 23 23 23 23 23 22 22 22 21 20 20 20 19 19 19 19 19 19 18 18 18 17 17 17 17
19 20 19 20 16 16 17 22 22 23 26 27 27 27 26 24 24 22 24 21 21 22 21 21 22 22 23 22 22 22 22 21 20 20 20 19 19 19 19 19 18 18 18 18 18 17 17 17 17
19 19 19 15 15 16 18 24 23 24 26 26 27 27 27 23 23 21 21 23 21 21 21 21 21 21 21 22 21 21 21 21 20 20 19 19 19 19 18 18 18 18 18 18 18 17 17 17 17
19 19 20 16 17 18 21 23 26 24 26 26 26 25 24 23 22 21 21 23 22 21 21 21 20 20 21 21 21 21 21 21 20 20 19 19 19 19 18 18 18 18 17 17 17 17 17 17 17
18 19 15 16 18 20 22 24 26 26 26 26 26 25 23 22 21 21 21 22 21 20 20 20 20 20 20 21 20 20 20 20 20 19 19 19 19 18 18 18 17 17 17 17 17 17 17 17 17
17 20 15 16 18 21 23 26 26 24 24 24 24 25 21 22 22 21 21 21 20 20 19 19 20 20 20 20 20 20 20 20 19 19 19 19 18 18 18 17 17 17 17 17 17 17 16 16 17
17 15 15 17 18 20 23 25 23 23 23 23 24 23 21 22 22 21 21 21 21 20 20 18 19 19 19 19 20 20 20 20 19 19 19 18 18 18 18 17 17 17 17 16 16 16 16 16 17
19 16 16 17 18 19 23 24 23 23 23 23 23 22 21 21 21 21 21 21 21 20 20 19 19 18 18 19 19 19 19 19 19 19 19 19 18 18 17 17 17 17 16 16 16 16 16 16 16
19 15 14 16 19 20 22 21 22 22 22 23 23 23 22 21 21 21 21 21 20 20 20 20 19 19 18 18 19 19 19 19 19 19 19 18 18 18 18 17 17 16 16 16 16 16 16 16 16
17 14 16 18 19 19 21 20 21 21 21 22 22 22 21 21 21 20 20 20 21 20 20 19 18 18 17 17 18 18 18 19 19 19 18 18 18 18 18 18 17 16 16 16 16 16 16 16 16
18 15 17 20 21 21 20 20 21 19 18 20 20 21 21 21 20 20 20 20 20 20 19 19 18 17 16 16 17 17 18 18 18 18 18 18 18 18 18 17 17 17 16 16 16 16 16 16 16
17 19 20 21 21 21 19 21 19 20 19 20 20 20 20 20 20 19 19 19 19 19 19 19 18 17 16 16 16 16 17 17 18 18 18 17 17 17 17 17 18 17 17 17 16 16 16 16 16
17 18 19 20 20 20 20 19 18 19 20 20 19 20 20 20 19 19 19 19 19 19 19 19 19 18 18 16 16 16 16 16 17 17 18 18 17 17 17 17 17 17 17 16 16 16 16 16 16
18 18 18 19 19 19 18 18 19 20 20 19 19 19 20 19 19 19 19 19 17 18 17 17 15 15 15 15 15 15 15 15 16 17 17 18 18 17 16 15 16 16 16 16 16 16 16 16 16
17 15 16 17 18 17 19 16 16 20 20 19 20 19 19 19 19 17 17 16 16 16 16 17 16 15 15 14 14 14 15 15 15 16 17 17 17 17 17 15 16 16 16 16 16 16 16 15 15
15 15 14 16 18 18 18 16 18 20 20 20 19 19 19 19 18 16 15 15 15 16 17 15 15 15 15 15 15 15 14 14 14 15 16 15 17 16 16 16 16 16 15 16 16 16 16 16 15
14 12 14 16 19 19 17 16 17 20 19 19 20 19 19 19 16 13 13 13 13 13 13 13 13 13 14 14 14 15 14 14 14 15 15 15 15 16 16 16 16 16 16 16 16 16 16 16 15
14 14 15 15 18 17 16 15 15 20 20 19 19 19 19 14 11 10 10 10 10 11 12 12 13 13 13 13 13 13 14 14 14 14 14 15 15 15 15 16 15 16 15 16 16 16 16 16 16
15 15 14 15 17 16 15 15 15 17 18 17 19 18 13 10 9 9 8 9 9 10 11 12 13 12 12 12 12 12 12 13 14 14 14 14 15 15 15 16 15 16 15 16 16 16 16 16 15
15 14 14 15 17 16 14 14 14 15 16 17 15 11 10 9 8 7 7 7 7 7 8 9 10 9 8 8 8 8 9 11 12 13 13 13 14 14 16 16 14 15 16 16 16 16 16 16 16
15 14 14 14 15 14 13 13 14 15 16 12 9 8 7 6 5 5 5 4 4 4 4 5 6 7 6 5 5 6 7 9 10 12 12 12 13 13 14 15 14 16 15 16 16 15 15 16 15
13 15 15 14 12 10 13 10 12 14 13 10 8 7 5 4 4 3 2 2 1 1 2 3 4 3 4 4 4 3 3 4 8 10 12 12 13 13 13 13 15 16 15 15 16 16 15 16 16
13 14 13 13 10 10 12 9 12 13 9 8 7 5 3 2 1 0 -1 -1 -0 1 2 2 2 2 2 3 2 2 2 2 2 7 10 12 12 13 12 12 13 14 14 15 16 16 15 15 17
14 13 11 11 10 8 11 10 9 7 8 6 5 4 2 1 1 1 0 0 0 0 -0 0 -0 -1 0 2 2 1 0 0 0 1 7 10 12 13 13 12 12 13 14 15 15 16 14 14 15
13 11 6 6 6 8 12 12 8 7 6 5 4 2 1 -1 -2 -3 -4 -4 -4 -4 -4 -4 -4 -3 -2 -2 -1 -1 -2 -3 -2 -1 2 7 10 12 13 12 12 13 13 14 14 14 14 13 13
11 10 8 7 7 7 11 9 7 6 5 4 3 2 0 -1 -3 -4 -4 -5 -5 -5 -5 -6 -6 -6 -4 -3 -2 -2 -1 -2 -2 -1 1 5 7 10 12 13 13 13 13 13 13 13 14 13 12
11 9 11 9 8 8 8 7 5 5 3 3 2 1 -1 -2 -4 -5 -5 -5 -5 -5 -5 -6 -6 -6 -5 -5 -4 -3 -2 -1 -1 -1 1 4 7 9 10 11 12 14 13 13 13 13 13 13 13
10 11 5 5 6 6 7 9 6 2 2 1 1 -0 -2 -3 -4 -5 -5 -5 -5 -5 -6 -6 -5 -6 -6 -5 -5 -4 -3 -2 -1 -1 1 2 4 7 9 10 11 11 13 13 13 13 13 13 13
9 8 8 7 6 4 3 2 2 0 1 1 1 -0 -3 -4 -5 -6 -5 -5 -5 -6 -6 -6 -6 -6 -6 -6 -5 -5 -4 -3 -2 -1 1 2 3 6 8 9 9 10 11 12 13 13 13 11 12
10 9 8 3 6 6 6 3 1 0 1 1 -0 -1 -3 -5 -6 -6 -6 -6 -6 -6 -6 -6 -6 -6 -6 -6 -6 -5 -4 -3 -3 -1 1 2 4 7 6 5 6 8 9 11 12 13 14 12 10

GFSSGP_850_temp_126.txt.gz
Temp
19 19 20 21 16 13 16 19 21 23 24 26 26 24 21 22 22 19 21 21 22 23 23 22 22 22 22 22 22 22 22 21 21 20 20 20 19 19 19 19 19 18 18 18 17 17 17 16 16
19 19 20 20 14 14 15 18 23 23 25 26 26 25 23 21 22 21 21 22 22 23 22 21 22 22 21 22 22 22 21 21 20 20 20 19 19 19 19 19 18 18 18 18 17 17 16 16 16
19 19 19 13 12 14 16 21 23 24 26 26 26 26 24 21 21 20 20 22 23 22 21 21 21 21 21 21 21 22 21 21 20 20 19 19 19 19 19 18 18 18 18 17 17 17 16 17 16
19 19 18 14 15 16 19 20 22 23 25 26 26 21 21 22 21 21 21 21 22 22 20 20 20 20 20 21 21 21 21 21 20 20 19 19 19 19 18 18 18 18 17 17 17 17 16 16 16
18 18 13 15 15 17 19 22 23 22 24 24 25 20 20 21 21 21 21 21 22 22 20 19 19 19 19 20 20 21 21 20 20 20 19 19 19 18 18 18 18 18 17 17 17 16 16 16 16
17 16 13 14 16 18 20 22 23 22 22 23 23 20 20 21 22 22 22 22 22 22 21 19 19 19 19 19 20 20 20 20 20 20 19 19 19 18 18 18 18 18 17 17 17 16 16 16 16
15 12 14 16 16 17 20 22 20 20 21 22 23 19 21 21 21 21 22 22 21 21 21 20 20 19 18 19 19 20 20 20 20 20 19 19 19 18 18 18 18 18 17 17 17 16 16 16 16
18 13 15 15 16 17 20 22 21 21 21 22 23 20 20 21 21 21 21 21 21 20 20 20 20 19 19 18 19 19 19 19 19 19 19 19 18 18 18 18 18 18 17 17 17 17 16 16 16
18 13 12 15 18 19 20 19 21 21 21 21 21 21 20 20 20 21 21 21 20 20 20 19 19 18 18 18 18 19 19 19 19 18 18 18 18 18 18 18 18 18 17 17 17 17 16 16 16
16 12 14 16 18 18 19 18 19 20 20 20 20 21 20 19 20 20 20 20 20 20 20 19 18 18 18 17 17 18 18 19 19 18 18 18 18 18 18 17 17 17 17 17 17 17 16 16 16
16 14 15 18 20 18 19 19 20 19 18 19 19 19 20 19 20 20 20 20 19 19 19 18 18 17 17 17 16 17 18 18 18 18 18 18 18 17 17 17 17 17 16 17 17 17 16 16 16
16 17 17 18 19 18 17 19 19 19 19 20 20 19 19 20 19 19 19 19 19 19 19 17 15 15 16 16 16 16 16 17 17 18 18 18 18 18 17 17 17 17 17 16 16 17 17 17 16
16 17 18 18 18 18 19 18 18 18 20 20 20 19 19 19 19 19 18 18 17 18 17 16 16 16 15 14 14 15 15 16 16 16 17 17 17 17 17 17 17 17 17 17 16 17 17 16 16
16 16 16 18 17 17 17 17 17 19 20 20 20 19 19 19 18 18 17 16 16 16 16 15 16 16 15 15 15 14 14 14 15 16 16 16 16 17 17 17 16 16 16 17 17 16 16 16 16
16 15 14 16 17 16 18 16 16 20 19 19 20 19 19 17 15 14 13 14 14 15 14 15 15 15 15 14 14 15 14 13 14 14 14 15 15 16 16 16 17 17 16 16 16 16 16 16 15
14 14 14 16 17 18 16 14 15 20 19 19 20 19 17 10 10 11 11 12 12 13 14 13 13 14 14 14 14 14 14 14 14 13 13 14 14 13 14 15 16 16 15 15 15 15 16 16 15
12 12 13 15 17 17 16 15 16 18 18 19 18 19 11 9 9 8 9 9 10 11 12 13 14 14 15 15 15 14 14 15 14 14 13 13 13 13 13 14 15 15 15 15 15 15 15 16 15
11 12 13 13 15 15 15 14 14 17 17 17 16 12 9 7 6 7 8 8 9 9 10 11 13 13 14 14 15 15 15 15 15 14 14 13 13 13 12 13 14 14 15 15 15 15 15 15 15
12 12 11 13 15 14 13 13 15 16 13 10 8 7 6 5 4 5 6 7 8 10 10 10 11 12 12 13 14 16 16 16 16 15 15 13 13 13 13 13 13 14 14 15 15 15 16 15 15
12 12 12 13 15 15 13 12 13 11 8 7 5 4 4 4 5 5 5 6 7 8 8 9 10 10 11 11 11 11 13 13 13 13 13 13 13 12 12 12 13 11 13 14 14 15 16 16 16
13 12 13 13 13 13 13 12 13 10 8 6 4 3 2 2 2 3 3 3 4 5 5 6 7 7 8 8 8 9 9 11 11 11 11 12 12 12 12 12 12 12 13 12 13 15 15 15 15
12 14 13 12 10 9 11 8 10 9 6 5 3 2 1 2 2 2 1 1 1 1 2 3 4 5 5 5 5 5 7 8 10 9 10 11 12 12 12 12 11 12 12 12 14 16 17 15 15
12 13 12 12 9 9 9 8 9 8 5 4 3 1 0 -0 -0 -0 -1 -0 -0 -0 -1 -1 0 1 2 3 3 3 4 5 6 8 8 9 11 11 12 12 12 11 12 12 13 15 17 15 15
13 11 9 9 8 7 10 8 8 5 5 4 2 1 -1 -1 -2 -2 -2 -1 -2 -2 -1 -0 0 1 1 1 1 1 1 1 2 4 5 6 8 10 10 11 12 12 11 12 12 13 13 14 13
12 8 6 6 6 7 10 8 5 4 4 2 1 -0 -2 -2 -3 -3 -4 -4 -4 -4 -3 -4 -4 -2 -1 -1 -1 -1 -2 -2 -1 -0 1 3 6 8 9 9 11 12 12 12 12 12 12 14 13
10 8 6 7 7 6 9 7 4 4 3 2 1 -0 -1 -3 -4 -4 -4 -4 -4 -4 -5 -6 -6 -4 -4 -4 -4 -4 -4 -4 -3 -2 -1 -1 1 4 7 8 9 11 12 13 12 11 12 13 12
11 8 9 8 7 6 7 4 5 4 2 2 1 -2 -3 -3 -4 -4 -5 -5 -5 -6 -6 -6 -6 -5 -6 -6 -5 -5 -5 -4 -3 -2 -1 -1 -0 1 5 7 9 10 11 12 13 12 11 13 13
10 10 7 5 7 6 6 6 3 2 2 2 0 -2 -3 -3 -4 -5 -6 -6 -6 -6 -6 -7 -6 -6 -6 -6 -6 -6 -5 -4 -4 -3 -2 -1 -0 1 2 6 9 9 10 10 11 12 13 13 13
8 7 7 6 6 5 3 1 -1 -1 -0 -1 -0 -2 -4 -4 -5 -6 -6 -5 -6 -6 -6 -6 -6 -6 -6 -6 -6 -6 -6 -5 -4 -3 -3 -2 -0 1 2 5 6 7 9 9 9 10 12 12 12
9 8 7 4 6 5 6 4 2 -0 -0 -1 -1 -2 -4 -5 -6 -6 -6 -5 -6 -6 -6 -6 -5 -5 -6 -7 -7 -7 -6 -5 -5 -4 -3 -2 -0 1 3 5 6 5 6 7 8 10 11 12 12